Date StartTime U_cm/s V_cm/s W_cm/s Ustd_cm/s Vstd_cm/s Wstd_cm/s Uvar_(cm/s)^2 Vvar_(cm/s)^2 Wvar_(cm/s)^2 KE_(m/s)^2 TurbulentKE_(m/s)^2 HorizWindSpeed_cm/s FrictionSpeec_cm/s DragCoef SpeedOfSound_m/s SonicTemperature_C Pressure_mb 
09/10/2013  00:00:00     -123.026      -25.163       -2.027       38.039       29.880       21.475     1446.971      892.811      461.167        0.929        0.140      125.573       20.516        0.027      342.642       18.194      859.594
09/10/2013  00:01:00     -110.372      -34.907        0.824       34.643       27.963       19.256     1200.119      781.926      370.807        0.788        0.118      115.761       17.284        0.022      342.691       18.278      859.604
09/10/2013  00:02:00      -69.016      -20.975        1.550       24.705       36.943       17.516      610.342     1364.769      306.827        0.374        0.114       72.133       16.476        0.052      342.566       18.065      859.621
09/10/2013  00:03:00      -51.926      -15.354       -1.482       16.783       17.690       12.120      281.665      312.941      146.888        0.184        0.037       54.148        6.062        0.013      342.575       18.080      859.630
09/10/2013  00:04:00      -42.679      -36.076       10.724       57.494       24.479       20.045     3305.555      599.214      401.787        0.377        0.215       55.883       29.965        0.288      342.571       18.073      859.630
09/10/2013  00:05:00      -78.399      -42.589       -2.591       22.904       22.899       15.410      524.592      524.357      237.473        0.463        0.064       89.220       14.717        0.027      342.622       18.161      859.633
09/10/2013  00:06:00      -78.184      -49.952       -2.877       25.415       20.470       13.218      645.911      419.040      174.715        0.493        0.062       92.779       13.003        0.020      342.635       18.183      859.635
09/10/2013  00:07:00     -116.046      -62.829      -10.951       39.146       21.669       17.647     1532.429      469.547      311.418        0.992        0.116      131.962       13.155        0.010      342.659       18.224      859.621
09/10/2013  00:08:00     -123.145      -64.690       -7.081       38.663       30.888       24.639     1494.793      954.049      607.095        1.123        0.153      139.102       19.502        0.020      342.602       18.126      859.616
09/10/2013  00:09:00     -124.991      -85.774        0.296       48.819       28.240       19.679     2383.342      797.507      387.271        1.327        0.178      151.592       17.341        0.013      342.553       18.042      859.623
09/10/2013  00:10:00     -104.540      -48.369       -0.488       43.625       38.421       21.337     1903.119     1476.162      455.258        0.855        0.192      115.188       22.773        0.039      342.554       18.046      859.632
09/10/2013  00:11:00      -95.291      -19.488        0.807       53.471       36.269       24.369     2859.118     1315.458      593.850        0.711        0.238       97.263       26.998        0.077      342.587       18.101      859.635
09/10/2013  00:12:00      -68.124      -19.179        9.437       40.413       36.086       25.793     1633.230     1302.193      665.268        0.435        0.180       70.772       26.121        0.136      342.561       18.058      859.653
09/10/2013  00:13:00      -99.672      -16.828        2.522       36.130       27.097       19.922     1305.375      734.274      396.899        0.633        0.122      101.083       16.848        0.028      342.584       18.096      859.660
09/10/2013  00:14:00      -76.690      -46.991        2.982       35.234       23.836       16.773     1241.428      568.147      281.317        0.509        0.105       89.941       18.946        0.044      342.711       18.311      859.675
09/10/2013  00:15:00      -52.613      -50.961        0.011       42.977       31.519       19.516     1846.990      993.475      380.875        0.429        0.161       73.247       22.193        0.092      342.792       18.452      859.675
09/10/2013  00:16:00      -34.186      -29.299        7.389       37.220       21.733       19.668     1385.297      472.329      386.811        0.216        0.112       45.024       14.039        0.097      342.806       18.473      859.675
09/10/2013  00:17:00     -123.928      -38.878       -2.451       45.112       32.389       23.746     2035.110     1049.058      563.888        1.026        0.182      129.883       25.773        0.039      342.721       18.329      859.682
09/10/2013  00:18:00     -119.579      -22.376       -1.031       36.328       29.667       19.140     1319.729      880.120      366.345        0.868        0.128      121.655       20.304        0.028      342.663       18.230      859.676
09/10/2013  00:19:00     -118.221      -32.866       -2.721       49.241       26.666       20.600     2424.724      711.102      424.368        0.931        0.178      122.704       24.182        0.039      342.681       18.261      859.668
09/10/2013  00:20:00     -141.590      -56.132       -6.609       28.442       26.757       16.351      808.948      715.932      267.342        1.252        0.090      152.311       12.447        0.007      342.650       18.209      859.670
09/10/2013  00:21:00     -152.661      -55.646       -4.668       27.395       35.081       17.050      750.479     1230.665      290.713        1.435        0.114      162.486       14.773        0.008      342.673       18.248      859.666
09/10/2013  00:22:00     -126.754      -39.452       -1.581       31.601       21.031       16.944      998.602      442.297      287.104        0.968        0.086      132.752        8.383        0.004      342.695       18.284      859.666
09/10/2013  00:23:00      -51.845      -27.379        3.844       24.903       22.961       18.779      620.145      527.215      352.644        0.248        0.075       58.631       12.350        0.044      342.721       18.327      859.669
09/10/2013  00:24:00      -72.933      -52.821        0.708       26.415       33.435       17.463      697.776     1117.907      304.946        0.511        0.106       90.052       11.291        0.016      342.733       18.350      859.674
09/10/2013  00:25:00      -66.083      -62.406        6.579       38.644       31.279       23.546     1493.344      978.354      554.418        0.566        0.151       90.892       24.821        0.075      342.600       18.123      859.666
09/10/2013  00:26:00      -47.507      -41.594       16.669       44.326       29.080       23.877     1964.837      845.643      570.105        0.382        0.169       63.143       21.987        0.121      342.582       18.093      859.656
09/10/2013  00:27:00      -29.010      -43.332       10.522       45.046       38.768       29.814     2029.118     1502.924      888.862        0.362        0.221       52.146       28.051        0.289      342.644       18.197      859.656
09/10/2013  00:28:00      -23.295      -33.437       12.196       45.293       37.285       25.645     2051.476     1390.165      657.688        0.295        0.205       40.752       29.415        0.521      342.643       18.196      859.652
09/10/2013  00:29:00      -50.731      -68.608        5.468       54.765       32.986       29.114     2999.256     1088.079      847.604        0.612        0.247       85.326       29.101        0.116      342.658       18.221      859.655
09/10/2013  00:30:00      -85.564      -80.910        4.483       57.507       35.219       33.096     3307.024     1240.347     1095.367        0.976        0.282      117.761       31.962        0.074      342.627       18.169      859.657
09/10/2013  00:31:00     -110.156      -76.145       -3.192       50.241       46.798       24.835     2524.147     2190.023      616.777        1.164        0.267      133.912       22.518        0.028      342.656       18.217      859.659
09/10/2013  00:32:00     -126.771      -85.720       -1.501       44.389       47.749       28.801     1970.399     2279.976      829.501        1.425        0.254      153.032       23.920        0.024      342.667       18.237      859.650
09/10/2013  00:33:00      -92.702      -68.787       -2.471       54.383       28.196       21.308     2957.533      794.995      454.044        0.877        0.210      115.435       19.717        0.029      342.566       18.066      859.644
09/10/2013  00:34:00      -79.935      -65.447        0.312       54.190       36.486       20.747     2936.589     1331.250      430.436        0.768        0.235      103.310       21.015        0.041      342.532       18.007      859.660
09/10/2013  00:35:00      -45.672      -40.525        5.116       59.891       42.717       29.002     3586.882     1824.720      841.118        0.500        0.313       61.059       27.034        0.196      342.506       17.965      859.670
09/10/2013  00:36:00      -90.298      -54.131        4.209       61.837       39.943       30.987     3823.757     1595.430      960.216        0.874        0.319      105.281       33.017        0.098      342.411       17.802      859.679
09/10/2013  00:37:00      -75.574      -66.949        1.604       58.759       48.293       30.036     3452.660     2332.217      902.151        0.844        0.334      100.963       32.658        0.105      342.363       17.721      859.708
09/10/2013  00:38:00     -124.899      -79.856        0.611       45.253       34.131       23.562     2047.873     1164.958      555.168        1.287        0.188      148.245       23.055        0.024      342.463       17.891      859.720
09/10/2013  00:39:00     -100.156      -74.245        3.648       47.997       39.947       26.903     2303.669     1595.774      723.769        1.009        0.231      124.673       22.978        0.034      342.425       17.826      859.723
09/10/2013  00:40:00     -106.746      -73.094       -2.302       36.016       30.504       28.600     1297.166      930.497      817.970        0.989        0.152      129.373       23.724        0.034      342.345       17.691      859.737
09/10/2013  00:41:00     -120.216      -80.997       -4.093       41.177       31.671       20.172     1695.559     1003.057      406.900        1.207        0.155      144.957       12.035        0.007      342.383       17.755      859.756
09/10/2013  00:42:00      -96.857      -62.710       -1.300       47.158       36.308       28.098     2223.846     1318.276      789.524        0.882        0.217      115.386       29.842        0.067      342.380       17.750      859.762
09/10/2013  00:43:00      -40.036      -52.548        7.828       44.382       31.286       24.070     1969.771      978.807      579.365        0.398        0.176       66.062       19.513        0.087      342.311       17.633      859.770
09/10/2013  00:44:00      -52.857      -59.079        9.218       46.205       25.599       22.530     2134.892      655.295      507.602        0.483        0.165       79.272       22.637        0.082      342.311       17.631      859.781
09/10/2013  00:45:00      -83.149      -59.116       -1.309       35.322       26.489       22.493     1247.617      701.676      505.939        0.643        0.123      102.022       17.768        0.030      342.425       17.826      859.791
09/10/2013  00:46:00      -66.063      -50.720        4.134       37.272       31.723       20.944     1389.196     1006.353      438.664        0.489        0.142       83.287       22.266        0.071      342.422       17.821      859.793
09/10/2013  00:47:00      -83.848      -56.646        6.106       44.133       28.006       23.573     1947.697      784.324      555.689        0.678        0.164      101.189       21.923        0.047      342.511       17.973      859.793
09/10/2013  00:48:00      -66.313      -67.980        6.730       42.887       35.662       23.214     1839.325     1271.773      538.882        0.636        0.182       94.967       22.723        0.057      342.465       17.894      859.797
09/10/2013  00:49:00      -55.512      -63.398        8.715       46.543       40.159       29.877     2166.248     1612.731      892.646        0.592        0.234       84.267       27.385        0.106      342.420       17.818      859.783
09/10/2013  00:50:00      -42.102      -52.149        9.992       46.574       28.247       27.974     2169.152      797.879      782.532        0.417        0.187       67.024       22.996        0.118      342.452       17.872      859.781
09/10/2013  00:51:00      -95.644      -81.120      -12.119       35.874       28.395       16.808     1286.918      806.285      282.507        0.912        0.119      125.412       15.749        0.016      342.429       17.831      859.792
09/10/2013  00:52:00      -38.162      -45.792       16.798       59.645       46.765       33.364     3557.502     2186.950     1113.171        0.535        0.343       59.609       34.886        0.343      342.274       17.568      859.794
09/10/2013  00:53:00      -94.444     -108.847      -10.609       41.820       41.576       27.358     1748.911     1728.531      748.450        1.255        0.211      144.109       19.124        0.018      342.272       17.565      859.789
09/10/2013  00:54:00      -93.394      -76.164       -1.706       45.612       40.701       27.942     2080.416     1656.579      780.749        0.952        0.226      120.513       23.582        0.038      342.124       17.314      859.797
09/10/2013  00:55:00     -102.625     -112.984       -5.079       52.723       55.502       30.171     2779.671     3080.455      910.283        1.505        0.339      152.634       26.319        0.030      342.014       17.126      859.803
09/10/2013  00:56:00      -93.241     -120.775       -1.313       52.441       55.566       36.974     2750.096     3087.566     1367.067        1.524        0.360      152.579       31.250        0.042      341.976       17.062      859.806
09/10/2013  00:57:00      -61.697     -105.551        2.394       45.600       46.238       31.590     2079.357     2137.994      997.927        1.008        0.261      122.260       23.892        0.038      341.969       17.051      859.816
09/10/2013  00:58:00      -41.159      -50.576        7.857       59.849       37.679       27.779     3581.914     1419.741      771.658        0.504        0.289       65.207       17.359        0.071      341.942       17.004      859.837
09/10/2013  00:59:00        2.373      -64.050       10.893       31.860       35.125       24.898     1015.068     1233.754      619.905        0.355        0.143       64.094       19.977        0.097      342.000       17.105      859.842
09/10/2013  01:00:00       17.550      -50.954       17.084       32.524       49.131       28.444     1057.834     2413.822      809.038        0.374        0.214       53.892       25.504        0.224      341.962       17.037      859.837
09/10/2013  01:01:00      -86.220      -35.329       12.080       83.150       41.033       33.422     6913.997     1683.701     1117.000        0.927        0.486       93.177       38.807        0.173      341.867       16.876      859.839
09/10/2013  01:02:00     -135.641      -95.387       -0.949       70.449       62.779       40.316     4963.006     3941.209     1625.412        1.901        0.526      165.823       40.541        0.060      341.752       16.682      859.838
09/10/2013  01:03:00     -171.746      -83.291       -3.548       57.695       49.786       34.681     3328.756     2478.690     1202.758        2.173        0.351      190.877       35.766        0.035      341.655       16.516      859.832
09/10/2013  01:04:00     -121.967     -119.738       -3.161       61.508       52.633       35.079     3783.291     2770.257     1230.552        1.850        0.389      170.918       35.892        0.044      341.737       16.656      859.847
09/10/2013  01:05:00     -105.470      -99.109       -5.080       57.066       38.360       30.820     3256.530     1471.460      949.846        1.332        0.284      144.729       32.979        0.052      341.802       16.767      859.848
09/10/2013  01:06:00      -71.407      -53.180        4.929       42.803       39.404       25.722     1832.088     1552.685      661.597        0.600        0.202       89.034       25.745        0.084      341.816       16.791      859.839
09/10/2013  01:07:00      -98.172      -81.145       -5.257       31.850       30.021       19.651     1014.422      901.262      386.164        0.928        0.115      127.367       15.942        0.016      341.793       16.754      859.853
09/10/2013  01:08:00     -127.780      -78.409       -1.844       22.045       20.091       17.590      485.994      403.656      309.409        1.184        0.060      149.919       14.425        0.009      341.822       16.803      859.851
09/10/2013  01:09:00     -114.000      -66.832       -3.763       22.029       24.919       14.062      485.293      620.945      197.737        0.939        0.065      132.146        6.993        0.003      341.890       16.916      859.847
09/10/2013  01:10:00      -84.973      -48.254       -7.483       34.256       29.054       16.165     1173.473      844.114      261.313        0.594        0.114       97.719       16.085        0.027      341.928       16.982      859.867
09/10/2013  01:11:00      -79.080      -33.915       -5.038       28.498       23.374       16.095      812.161      546.353      259.049        0.452        0.081       86.046       15.419        0.032      341.887       16.911      859.873
09/10/2013  01:12:00     -109.039      -39.181      -13.867       12.523       12.494        8.349      156.828      156.092       69.710        0.700        0.019      115.865        4.127        0.001      341.817       16.794      859.871
09/10/2013  01:13:00     -127.405      -23.946      -14.982       15.122       13.466        9.485      228.687      181.328       89.974        0.876        0.025      129.636        4.108        0.001      341.793       16.752      859.881
09/10/2013  01:14:00     -118.108      -27.073      -15.099       15.244       21.670       13.920      232.386      469.587      193.767        0.790        0.045      121.172        8.176        0.005      341.843       16.835      859.891
09/10/2013  01:15:00     -128.758      -29.745      -13.714       15.347       16.765       10.712      235.542      281.062      114.737        0.914        0.032      132.150        6.669        0.003      341.836       16.824      859.886
09/10/2013  01:16:00     -113.926      -29.510      -13.375       12.663       17.117       10.368      160.354      292.983      107.492        0.729        0.028      117.686        2.699        0.001      341.832       16.819      859.891
09/10/2013  01:17:00     -111.454      -18.157      -13.478       16.307       15.527       11.150      265.921      241.081      124.333        0.678        0.032      112.923        5.828        0.003      341.881       16.902      859.910
09/10/2013  01:18:00     -107.511      -26.661      -12.379       16.821       15.515       11.679      282.939      240.720      136.391        0.654        0.033      110.768        8.228        0.006      341.918       16.963      859.909
09/10/2013  01:19:00      -97.671      -41.924      -12.509       15.943       14.428       10.762      254.177      208.174      115.813        0.602        0.029      106.289        4.563        0.002      341.933       16.989      859.901
09/10/2013  01:20:00     -118.574      -37.124      -14.261       13.089       16.423       11.687      171.309      269.721      136.594        0.811        0.029      124.249        7.587        0.004      341.911       16.954      859.902
09/10/2013  01:21:00     -138.458      -45.472      -19.859        8.210       10.913        9.092       67.404      119.103       82.663        1.095        0.013      145.734        3.684        0.001      341.850       16.850      859.898
09/10/2013  01:22:00     -132.462      -48.607      -19.424       11.887       10.320        9.181      141.304      106.499       84.287        1.031        0.017      141.099        5.190        0.001      341.889       16.915      859.887
09/10/2013  01:23:00     -103.311      -57.783       -8.134       19.229       18.374       15.189      369.768      337.596      230.698        0.751        0.047      118.372       11.370        0.009      341.891       16.919      859.883
09/10/2013  01:24:00      -93.703      -46.423       -3.910       14.530       16.143       12.282      211.111      260.583      150.839        0.579        0.031      104.572        6.309        0.004      341.867       16.877      859.883
09/10/2013  01:25:00     -114.615      -38.239      -14.172       15.428       18.894       12.699      238.038      356.984      161.271        0.778        0.038      120.826        5.420        0.002      341.884       16.908      859.889
09/10/2013  01:26:00     -131.910      -27.809      -13.973       19.086       19.140       14.440      364.266      366.358      208.519        0.965        0.047      134.809        7.771        0.003      341.798       16.761      859.888
09/10/2013  01:27:00     -134.581      -47.132      -10.418       12.479       13.000        7.600      155.731      169.006       57.757        1.041        0.019      142.595        2.725        0.000      341.806       16.776      859.899
09/10/2013  01:28:00     -114.003      -53.572       -7.845       20.367       14.426       13.905      414.807      208.108      193.352        0.837        0.041      125.963       10.315        0.007      341.847       16.842      859.906
09/10/2013  01:29:00     -111.670      -52.568       -9.084       16.877       15.399        9.935      284.847      237.132       98.712        0.797        0.031      123.425        4.195        0.001      341.850       16.849      859.907
09/10/2013  01:30:00      -79.024      -44.246       -0.893       26.748       22.332       14.796      715.445      498.717      218.909        0.482        0.072       90.567        9.653        0.011      341.777       16.725      859.921
09/10/2013  01:31:00      -79.856      -57.017       -4.402       29.980       25.704       21.536      898.804      660.677      463.813        0.583        0.101       98.122       14.454        0.022      341.766       16.707      859.947
09/10/2013  01:32:00      -56.978      -56.257        2.323       40.655       32.804       23.050     1652.801     1076.081      531.283        0.484        0.163       80.071       23.727        0.088      341.649       16.508      859.956
09/10/2013  01:33:00      -79.562      -60.947       -1.258       49.246       31.936       26.057     2425.167     1019.881      678.947        0.708        0.206      100.223       25.139        0.063      341.625       16.467      859.956
09/10/2013  01:34:00      -51.335      -51.827       10.061       54.493       50.176       30.058     2969.461     2517.681      903.474        0.591        0.320       72.948       21.830        0.090      341.649       16.509      859.954
09/10/2013  01:35:00     -106.913     -103.111       -5.895       41.931       39.436       29.043     1758.246     1555.218      843.502        1.313        0.208      148.534       28.575        0.037      341.631       16.476      859.960
09/10/2013  01:36:00      -92.724      -72.655       -0.857       51.253       36.281       26.169     2626.819     1316.306      684.826        0.925        0.231      117.798       24.249        0.042      341.633       16.482      859.943
09/10/2013  01:37:00     -100.598      -71.207       -3.029       47.933       25.243       22.609     2297.542      637.186      511.163        0.932        0.172      123.250       25.217        0.042      341.620       16.460      859.936
09/10/2013  01:38:00     -121.096      -66.770       -4.118       28.787       22.159       17.933      828.716      491.032      321.580        1.039        0.082      138.284       12.472        0.008      341.653       16.515      859.928
09/10/2013  01:39:00      -98.128      -67.848       -0.447       26.437       29.992       18.158      698.903      899.496      329.727        0.808        0.096      119.300       15.116        0.016      341.659       16.527      859.934
09/10/2013  01:40:00      -97.210      -72.749       -1.254       28.854       20.307       19.092      832.532      412.391      364.500        0.818        0.080      121.418        5.011        0.002      341.696       16.588      859.937
09/10/2013  01:41:00      -52.968      -46.586        7.827       39.911       24.270       20.502     1592.879      589.014      420.352        0.382        0.130       70.540       17.837        0.064      341.635       16.484      859.938
09/10/2013  01:42:00      -70.568      -47.219        3.104       39.400       29.205       22.380     1552.381      852.953      500.865        0.506        0.145       84.908       23.113        0.074      341.586       16.400      859.948
09/10/2013  01:43:00     -115.875      -53.867       -1.674       27.482       24.538       16.063      755.283      602.119      258.034        0.897        0.081      127.783        7.437        0.003      341.614       16.449      859.950
09/10/2013  01:44:00     -114.768      -53.002      -19.675       19.123       13.577       11.510      365.673      184.322      132.472        0.853        0.034      126.415       10.070        0.006      341.534       16.312      859.955
09/10/2013  01:45:00      -97.548      -67.499      -13.982       23.097       21.881       15.196      533.478      478.797      230.914        0.775        0.062      118.624        8.172        0.005      341.576       16.384      859.963
09/10/2013  01:46:00      -92.535      -57.110       -2.059       24.768       23.484       21.432      613.476      551.487      459.318        0.673        0.081      108.739       15.759        0.021      341.493       16.243      859.958
09/10/2013  01:47:00      -73.596      -49.536        9.441       42.693       26.434       23.343     1822.653      698.760      544.875        0.551        0.153       88.714       23.306        0.069      341.475       16.214      859.944
09/10/2013  01:48:00      -95.764      -74.068        3.631       38.338       35.413       26.307     1469.772     1254.098      692.080        0.904        0.171      121.065       22.572        0.035      341.541       16.324      859.941
09/10/2013  01:49:00     -117.989      -95.604       -1.465       43.801       48.443       32.401     1918.535     2346.696     1049.818        1.419        0.266      151.860       31.969        0.044      341.536       16.316      859.953
09/10/2013  01:50:00     -109.566      -62.096        1.755       51.026       29.118       22.885     2603.663      847.840      523.723        0.992        0.199      125.940       24.242        0.037      341.585       16.399      859.963
09/10/2013  01:51:00      -70.887      -83.190       -4.394       36.494       35.863       16.235     1331.781     1286.170      263.582        0.742        0.144      109.296       16.192        0.022      341.591       16.411      859.981
09/10/2013  01:52:00      -71.178      -62.300        7.419       48.525       37.328       20.662     2354.674     1393.350      426.913        0.659        0.209       94.592       23.371        0.061      341.585       16.401      859.995
09/10/2013  01:53:00      -96.008      -59.164       -7.046       39.212       22.595       18.303     1537.577      510.516      334.988        0.757        0.119      112.774       13.062        0.013      341.635       16.485      860.019
09/10/2013  01:54:00      -90.925      -54.640       -8.388       19.508       18.876       12.565      380.559      356.321      157.882        0.611        0.045      106.079        4.470        0.002      341.648       16.507      860.027
09/10/2013  01:55:00      -76.354      -33.132       -2.975       32.552       19.466       16.616     1059.602      378.937      276.106        0.433        0.086       83.232        9.004        0.012      341.633       16.481      860.028
09/10/2013  01:56:00     -115.562      -49.124       -9.816       11.689       13.179       10.614      136.626      173.678      112.655        0.814        0.021      125.569        6.170        0.002      341.602       16.428      860.030
09/10/2013  01:57:00     -116.600      -42.404      -15.200       10.647       12.322        8.450      113.355      151.842       71.410        0.798        0.017      124.071        3.403        0.001      341.540       16.322      860.029
09/10/2013  01:58:00     -115.522      -48.914      -11.518       13.789        9.594        7.758      190.124       92.047       60.183        0.811        0.017      125.451        4.471        0.001      341.540       16.324      860.028
09/10/2013  01:59:00      -83.432      -42.973      -14.327       22.863       14.627       10.538      522.733      213.948      111.051        0.493        0.042       93.849        6.458        0.005      341.569       16.372      860.027
09/10/2013  02:00:00      -94.380      -42.004       -7.476       17.667       19.086       11.881      312.117      364.270      141.164        0.577        0.041      103.305        6.893        0.004      341.517       16.284      860.039
09/10/2013  02:01:00      -90.989      -41.284       -7.360       21.966       14.244       10.755      482.510      202.903      115.665        0.542        0.040       99.917        9.913        0.010      341.555       16.348      860.042
09/10/2013  02:02:00      -65.177      -42.738       -5.972       36.889       20.939       18.134     1360.766      438.458      328.826        0.412        0.106       77.939       18.462        0.056      341.492       16.241      860.037
09/10/2013  02:03:00      -80.077      -57.578        2.410       34.392       26.618       16.029     1182.821      708.509      256.919        0.594        0.107       98.628       17.139        0.030      341.436       16.148      860.038
09/10/2013  02:04:00      -61.374      -46.477        0.122       24.274       21.109       17.144      589.215      445.576      293.900        0.363        0.066       76.986       11.676        0.023      341.502       16.259      860.048
09/10/2013  02:05:00      -49.116      -30.483        5.131       33.422       21.235       17.963     1117.048      450.929      322.653        0.263        0.095       57.806       15.297        0.070      341.416       16.113      860.047
09/10/2013  02:06:00       -6.589      -19.596       15.956       29.464       19.187       19.129      868.138      368.135      365.919        0.114        0.080       20.674       15.524        0.564      341.383       16.057      860.047
09/10/2013  02:07:00      -66.701      -74.882       -5.335       53.994       36.430       24.667     2915.318     1327.117      608.465        0.747        0.243      100.281       19.492        0.038      341.438       16.151      860.051
09/10/2013  02:08:00      -60.018      -39.877        2.446       51.060       40.521       30.790     2607.118     1641.981      948.053        0.520        0.260       72.058       34.483        0.229      341.481       16.223      860.057
09/10/2013  02:09:00      -26.855      -37.053       10.720       44.437       36.428       22.244     1974.640     1327.032      494.800        0.300        0.190       45.762       19.165        0.175      341.457       16.184      860.054
09/10/2013  02:10:00      -30.508      -37.473        8.116       52.446       38.554       30.253     2750.627     1486.401      915.266        0.378        0.258       48.321       30.101        0.388      341.377       16.047      860.056
09/10/2013  02:11:00      -25.231      -36.628       11.446       62.334       36.060       26.540     3885.517     1300.358      704.380        0.400        0.295       44.477       24.379        0.300      341.364       16.026      860.068
09/10/2013  02:12:00      -20.164      -17.327        6.726       36.105       26.498       18.657     1303.598      702.129      348.101        0.155        0.118       26.586       14.583        0.301      341.291       15.903      860.079
09/10/2013  02:13:00      -40.367      -38.940        0.209       49.507       33.867       24.704     2450.977     1146.977      610.301        0.368        0.210       56.088       22.281        0.158      341.304       15.924      860.095
09/10/2013  02:14:00      -46.580      -47.938        9.791       49.974       44.317       24.261     2497.422     1964.031      588.584        0.481        0.253       66.841       16.895        0.064      341.272       15.869      860.098
09/10/2013  02:15:00      -31.153      -71.617       -3.265       59.911       51.344       34.984     3589.384     2636.248     1223.879        0.678        0.372       78.100       26.418        0.114      341.273       15.871      860.116
09/10/2013  02:16:00      -70.952      -58.419        2.285       67.541       43.316       31.744     4561.791     1876.291     1007.650        0.795        0.372       91.907       34.141        0.138      341.237       15.810      860.118
09/10/2013  02:17:00     -120.078      -80.919       -6.835       54.615       44.849       29.751     2982.797     2011.477      885.141        1.345        0.294      144.799       18.683        0.017      341.225       15.790      860.119
09/10/2013  02:18:00     -112.919      -88.147        2.665       52.492       38.330       30.192     2755.381     1469.162      911.578        1.283        0.257      143.250       28.454        0.039      341.143       15.651      860.118
09/10/2013  02:19:00     -139.797     -100.140       -7.115       45.647       54.578       26.738     2083.685     2978.740      714.907        1.770        0.289      171.963       19.845        0.013      341.130       15.629      860.122
09/10/2013  02:20:00     -136.752      -70.614      -14.123       38.508       44.268       23.489     1482.880     1959.657      551.726        1.394        0.200      153.907       17.788        0.013      341.204       15.754      860.132
09/10/2013  02:21:00     -133.842      -48.813        2.377       38.215       36.235       20.415     1460.349     1312.989      416.775        1.175        0.160      142.465       14.322        0.010      341.195       15.740      860.136
09/10/2013  02:22:00     -116.742      -42.843       -5.829       33.768       25.693       16.624     1140.274      660.145      276.360        0.879        0.104      124.355       16.432        0.017      341.181       15.716      860.138
09/10/2013  02:23:00      -77.767      -16.802       10.233       36.763       28.132       21.734     1351.512      791.411      472.377        0.452        0.131       79.561       20.666        0.067      341.069       15.528      860.143
09/10/2013  02:24:00     -128.407      -14.104        3.213       44.449       24.059       24.780     1975.676      578.853      614.061        0.993        0.158      129.179       25.121        0.038      341.049       15.492      860.142
09/10/2013  02:25:00     -154.539      -35.192       -4.396       44.670       29.858       20.227     1995.396      891.476      409.128        1.422        0.165      158.496       17.407        0.012      341.004       15.415      860.137
09/10/2013  02:26:00     -119.569      -37.117        1.190       56.111       36.036       22.743     3148.406     1298.596      517.252        1.032        0.248      125.197       22.250        0.032      340.895       15.231      860.133
09/10/2013  02:27:00     -154.682      -30.495       -2.367       40.896       37.252       27.163     1672.487     1387.717      737.827        1.433        0.190      157.660       27.169        0.030      340.905       15.249      860.119
09/10/2013  02:28:00     -141.192      -60.096        2.960       40.829       35.791       28.335     1667.022     1281.006      802.856        1.365        0.188      153.449       25.708        0.028      340.901       15.242      860.110
09/10/2013  02:29:00     -153.541      -36.080        0.737       39.665       38.960       26.186     1573.275     1517.906      685.705        1.433        0.189      157.723       24.595        0.024      340.882       15.209      860.108
09/10/2013  02:30:00     -138.612      -48.577       -3.254       31.781       37.122       19.980     1010.002     1378.017      399.203        1.218        0.139      146.878       17.034        0.013      340.873       15.196      860.106
09/10/2013  02:31:00     -145.519      -37.914       -9.144       33.188       33.437       23.980     1101.438     1118.011      575.023        1.275        0.140      150.377       21.479        0.020      340.833       15.126      860.105
09/10/2013  02:32:00     -145.465      -53.430      -19.621       26.970       18.464       13.078      727.368      340.934      171.036        1.282        0.062      154.967        7.467        0.002      340.833       15.129      860.095
09/10/2013  02:33:00      -62.419      -56.462       -0.017       39.017       27.714       25.728     1522.336      768.082      661.904        0.502        0.148       84.167       16.188        0.037      340.900       15.241      860.080
09/10/2013  02:34:00      -62.361      -39.902        2.854       43.646       31.535       24.987     1905.012      994.458      624.327        0.451        0.176       74.035       22.821        0.095      340.873       15.193      860.074
09/10/2013  02:35:00      -25.356      -13.465       11.394       51.191       23.827       27.876     2620.552      567.741      777.084        0.246        0.198       28.710       31.974        1.240      340.761       15.004      860.058
09/10/2013  02:36:00        0.068      -22.024        2.649       40.504       20.289       27.622     1640.568      411.660      762.973        0.165        0.141       22.024       21.116        0.919      340.821       15.107      860.045
09/10/2013  02:37:00        6.162        1.001        2.982       16.437       14.243       15.158      270.183      202.870      229.777        0.038        0.035        6.243        4.829        0.598      340.747       14.981      860.052
09/10/2013  02:38:00      -37.323      -24.713       -2.697       42.071       29.693       23.759     1770.006      881.651      564.474        0.261        0.161       44.763       21.212        0.225      340.789       15.052      860.044
09/10/2013  02:39:00      -52.403      -29.909      -10.083       52.637       26.426       27.034     2770.693      698.356      730.820        0.397        0.210       60.337       30.309        0.252      340.767       15.016      860.046
09/10/2013  02:40:00      -62.590      -26.848       -3.701       44.214       24.171       24.646     1954.837      584.236      607.430        0.390        0.157       68.105       24.135        0.126      340.827       15.119      860.053
09/10/2013  02:41:00      -75.336      -30.474      -17.329       36.905       29.768       17.733     1361.961      886.111      314.455        0.473        0.128       81.266       18.909        0.054      340.897       15.234      860.053
09/10/2013  02:42:00      -78.742      -34.509      -10.831       24.169       29.276       19.519      584.131      857.057      380.973        0.466        0.091       85.972       10.417        0.015      340.869       15.186      860.047
09/10/2013  02:43:00     -100.816      -16.741      -18.421       20.850       19.691       17.278      434.721      387.716      298.513        0.595        0.056      102.197       12.178        0.014      340.935       15.297      860.051
09/10/2013  02:44:00     -130.976      -39.121      -16.267       18.136       17.919       17.660      328.928      321.102      311.880        0.996        0.048      136.693       12.941        0.009      340.925       15.282      860.045
09/10/2013  02:45:00     -121.904      -51.855      -21.060       18.368       20.206       14.427      337.391      408.266      208.131        0.947        0.048      132.475        9.660        0.005      340.868       15.186      860.031
09/10/2013  02:46:00     -126.904      -40.809      -14.650       22.608       22.934       14.626      511.129      525.955      213.927        0.962        0.063      133.305        8.579        0.004      340.845       15.146      860.030
09/10/2013  02:47:00     -136.924      -28.848      -21.411       23.145       26.429       17.841      535.708      698.488      318.293        1.080        0.078      139.930       17.148        0.015      340.840       15.139      860.029
09/10/2013  02:48:00     -113.819      -12.328      -14.649       16.614       20.090       15.176      276.021      403.603      230.307        0.712        0.045      114.484       11.203        0.010      340.861       15.174      860.026
09/10/2013  02:49:00     -113.160      -28.881      -16.917       22.489       24.683       13.690      505.744      609.228      187.426        0.761        0.065      116.788        8.728        0.006      340.916       15.267      860.026
09/10/2013  02:50:00     -115.102      -37.343      -18.320       16.736       23.569       13.706      280.101      555.502      187.864        0.800        0.051      121.008        7.426        0.004      340.922       15.277      860.031
09/10/2013  02:51:00     -121.381      -30.440      -20.018       24.004       26.313       13.376      576.174      692.354      178.906        0.875        0.072      125.140       14.159        0.013      340.933       15.294      860.023
09/10/2013  02:52:00      -76.696      -25.804      -18.120       25.874       23.716       15.902      669.446      562.450      252.873        0.418        0.074       80.921       14.041        0.030      340.944       15.315      860.028
09/10/2013  02:53:00      -81.783      -38.097      -14.195       17.727       18.481       21.015      314.231      341.530      441.618        0.472        0.055       90.221        8.892        0.010      340.952       15.328      860.033
09/10/2013  02:54:00     -115.689      -30.298      -22.613       23.148       28.617       16.589      535.817      818.912      275.208        0.822        0.081      119.591       10.583        0.008      340.997       15.403      860.032
09/10/2013  02:55:00      -77.604      -57.977      -21.459       34.206       27.370       25.364     1170.026      749.131      643.349        0.620        0.128       96.869       15.866        0.027      340.910       15.258      860.033
09/10/2013  02:56:00     -137.851      -51.830      -14.608       21.955       22.529       18.498      482.016      507.538      342.174        1.162        0.067      147.272        8.847        0.004      340.784       15.043      860.041
09/10/2013  02:57:00      -77.865      -46.023        2.999       36.841       32.455       17.576     1357.248     1053.338      308.931        0.545        0.136       90.450       17.880        0.039      340.797       15.064      860.054
09/10/2013  02:58:00      -88.462      -33.386       -6.948       18.096       23.553       12.008      327.457      554.746      144.182        0.501        0.051       94.552        7.997        0.007      340.868       15.185      860.062
09/10/2013  02:59:00      -44.098      -30.018        3.445       33.536       19.735       19.574     1124.659      389.471      383.126        0.238        0.095       53.345       17.484        0.107      340.971       15.361      860.085
09/10/2013  03:00:00      -43.754      -39.196        8.044       41.075       19.599       15.635     1687.115      384.130      244.463        0.292        0.116       58.743       16.898        0.083      340.992       15.395      860.107
09/10/2013  03:01:00      -17.586      -29.506       13.030       40.881       22.768       22.383     1671.236      518.402      500.994        0.202        0.135       34.349       24.709        0.517      340.907       15.251      860.113
09/10/2013  03:02:00      -47.889      -54.691        5.766       25.807       24.975       14.938      666.016      623.736      223.156        0.342        0.076       72.695       13.802        0.036      340.945       15.316      860.116
09/10/2013  03:03:00      -84.940      -53.017       -1.704       41.632       24.325       21.743     1733.247      591.724      472.739        0.641        0.140      100.128       21.349        0.045      340.947       15.319      860.120
09/10/2013  03:04:00     -126.794      -90.152       -0.203       39.364       41.106       26.768     1549.552     1689.742      716.526        1.408        0.198      155.577       19.486        0.016      340.798       15.067      860.107
09/10/2013  03:05:00     -129.394      -76.963       -1.691       54.819       52.949       31.404     3005.142     2803.586      986.191        1.473        0.340      150.552       28.606        0.036      340.765       15.011      860.098
09/10/2013  03:06:00     -116.611      -64.849       -6.364       42.862       32.991       20.762     1837.149     1088.381      431.076        1.060        0.168      133.429       20.008        0.022      340.749       14.984      860.095
09/10/2013  03:07:00     -118.925      -41.750       -6.531       16.699       14.930       14.789      278.843      222.919      218.704        0.832        0.036      126.041        9.201        0.005      340.767       15.014      860.089
09/10/2013  03:08:00     -123.950      -50.085       -9.845       20.211       18.951       14.479      408.488      359.129      209.643        0.947        0.049      133.687        8.591        0.004      340.837       15.133      860.077
09/10/2013  03:09:00     -148.570      -31.172      -14.933       20.718       19.457       13.909      429.236      378.578      193.448        1.213        0.050      151.805        8.780        0.003      340.816       15.097      860.059
09/10/2013  03:10:00     -119.275      -30.682       -3.328       36.672       29.671       19.069     1344.865      880.375      363.631        0.888        0.129      123.158       20.323        0.027      340.786       15.046      860.051
09/10/2013  03:11:00     -135.185      -46.482       -7.911       25.498       23.938       15.469      650.134      573.047      239.275        1.098        0.073      142.953       10.925        0.006      340.766       15.012      860.051
09/10/2013  03:12:00      -95.905      -22.515        0.548       34.880       27.261       17.889     1216.608      743.167      320.024        0.599        0.114       98.513       17.662        0.032      340.763       15.006      860.043
09/10/2013  03:13:00     -113.430      -30.662       -4.250       22.577       24.389       17.916      509.722      594.810      320.995        0.762        0.071      117.502       14.985        0.016      340.749       14.985      860.029
09/10/2013  03:14:00      -97.127      -50.677       -4.967       48.283       24.094       19.047     2331.284      580.544      362.789        0.765        0.164      109.552       24.533        0.050      340.708       14.915      860.021
09/10/2013  03:15:00     -112.245      -66.313       -4.577       31.903       25.894       21.059     1017.790      670.524      443.471        0.957        0.107      130.370       17.319        0.018      340.618       14.762      860.018
09/10/2013  03:16:00     -116.390      -65.897        2.621       44.546       29.389       25.805     1984.310      863.720      665.875        1.070        0.176      133.750       21.575        0.026      340.730       14.954      860.014
09/10/2013  03:17:00     -106.351      -80.734        5.240       37.923       28.181       21.410     1438.163      794.184      458.397        1.027        0.135      133.523       14.179        0.011      340.791       15.055      859.979
09/10/2013  03:18:00      -97.885      -75.008        0.668       46.804       38.540       24.201     2190.621     1485.348      585.704        0.973        0.213      123.319       22.189        0.032      340.741       14.970      859.973
09/10/2013  03:19:00      -69.982      -54.095        3.481       47.677       31.608       28.107     2273.111      999.095      789.981        0.595        0.203       88.452       19.658        0.049      340.703       14.905      859.974
09/10/2013  03:20:00      -43.624      -39.143       10.321       48.727       46.115       19.294     2374.321     2126.597      372.250        0.421        0.244       58.610       21.263        0.132      340.695       14.894      859.970
09/10/2013  03:21:00      -27.539      -46.196       14.117       53.532       36.264       27.845     2865.633     1315.080      775.328        0.402        0.248       53.781       28.728        0.285      340.758       15.000      859.977
09/10/2013  03:22:00      -69.566      -72.759        1.686       42.349       33.810       25.141     1793.400     1143.145      632.094        0.685        0.178      100.665       24.191        0.058      340.739       14.968      859.988
09/10/2013  03:23:00      -43.568      -68.142        8.408       36.074       25.665       23.727     1301.325      658.697      562.975        0.457        0.126       80.880       21.415        0.070      340.811       15.090      859.998
09/10/2013  03:24:00      -32.649      -62.092       -2.505       23.994       33.391       20.067      575.708     1114.939      402.694        0.351        0.105       70.153       15.360        0.048      340.866       15.182      860.001
09/10/2013  03:25:00      -34.865      -44.354        3.993       32.539       30.061       18.622     1058.773      903.655      346.785        0.275        0.115       56.416       16.972        0.091      340.946       15.316      860.005
09/10/2013  03:26:00      -33.373      -65.442        7.408       33.406       28.765       23.360     1115.929      827.451      545.682        0.397        0.124       73.461       22.414        0.093      340.961       15.343      860.000
09/10/2013  03:27:00      -30.344      -28.136        9.026       37.054       21.315       17.820     1373.016      454.329      317.559        0.197        0.107       41.381       11.276        0.074      340.861       15.174      859.995
09/10/2013  03:28:00      -68.265      -58.017       -2.780       34.979       25.399       19.015     1223.546      645.090      361.586        0.513        0.112       89.588       16.057        0.032      340.862       15.176      859.988
09/10/2013  03:29:00      -70.379      -44.574        4.272       43.149       38.096       18.962     1861.878     1451.294      359.546        0.531        0.184       83.306       23.248        0.078      340.798       15.068      859.971
09/10/2013  03:30:00      -88.799      -66.458        3.463       31.164       24.092       20.577      971.224      580.432      423.409        0.714        0.099      110.914       16.374        0.022      340.775       15.028      859.979
09/10/2013  03:31:00      -37.011      -45.839        6.698       39.024       29.265       26.295     1522.855      856.432      691.412        0.329        0.154       58.916       24.814        0.177      340.770       15.019      859.971
09/10/2013  03:32:00      -85.923      -60.050        1.095       36.372       23.634       21.835     1322.897      558.573      476.785        0.667        0.118      104.827       17.026        0.026      340.778       15.034      859.962
09/10/2013  03:33:00      -95.099      -47.816        4.865       36.602       24.505       20.132     1339.691      600.474      405.290        0.685        0.117      106.443       22.209        0.044      340.752       14.990      859.960
09/10/2013  03:34:00     -140.945      -43.647      -12.069       17.382       21.852       13.819      302.119      477.519      190.977        1.144        0.049      147.549       10.071        0.005      340.807       15.082      859.953
09/10/2013  03:35:00     -125.609      -32.700      -10.468       15.892       16.270       11.724      252.564      264.705      137.455        0.881        0.033      129.796        9.058        0.005      340.795       15.061      859.964
09/10/2013  03:36:00     -113.316      -19.518       -9.576       21.598       15.471       16.393      466.483      239.350      268.739        0.714        0.049      114.984       15.040        0.017      340.814       15.094      859.970
09/10/2013  03:37:00     -112.419      -20.728       -4.709       32.197       18.121       13.162     1036.661      328.370      173.237        0.731        0.077      114.314       14.261        0.016      340.770       15.018      859.975
09/10/2013  03:38:00     -130.367      -48.167       -6.726       21.238       24.331       16.803      451.041      591.980      282.340        1.034        0.066      138.981       13.610        0.010      340.801       15.073      859.983
09/10/2013  03:39:00      -98.483      -57.548        3.182       44.736       30.241       25.827     2001.333      914.498      667.051        0.830        0.179      114.064       26.337        0.053      340.772       15.022      859.999
09/10/2013  03:40:00     -105.912      -61.606        0.898       31.654       20.238       20.016     1001.981      409.592      400.655        0.841        0.091      122.526       18.601        0.023      340.716       14.929      860.018
09/10/2013  03:41:00     -107.191      -37.222      -11.146       21.572       16.914       12.164      465.339      286.069      147.958        0.695        0.045      113.470        9.425        0.007      340.715       14.927      860.022
09/10/2013  03:42:00      -95.002      -25.626      -10.122       15.278       10.362        6.903      233.422      107.367       47.653        0.509        0.019       98.398        3.853        0.002      340.659       14.831      860.029
09/10/2013  03:43:00      -83.910      -28.820       -5.358        8.821       14.226        8.270       77.803      202.391       68.388        0.412        0.017       88.721        3.790        0.002      340.705       14.911      860.034
09/10/2013  03:44:00      -48.753      -18.038        4.455       39.375       14.929       10.695     1550.362      222.866      114.384        0.230        0.094       51.983       13.690        0.069      340.612       14.752      860.042
09/10/2013  03:45:00      -57.672      -47.037       -5.603       28.525       20.780       17.196      813.691      431.815      295.711        0.356        0.077       74.421       15.012        0.041      340.707       14.913      860.043
09/10/2013  03:46:00      -56.311      -50.753       -3.738       33.345       22.135       13.138     1111.885      489.950      172.610        0.377        0.089       75.808       12.016        0.025      340.670       14.852      860.034
09/10/2013  03:47:00      -42.898      -33.705        0.271       24.223       19.122       15.660      586.752      365.652      245.249        0.209        0.060       54.555       11.773        0.047      340.686       14.876      860.022
09/10/2013  03:48:00      -57.968      -48.802       -4.311       33.021       21.321       15.637     1090.381      454.599      244.518        0.377        0.089       75.775       11.449        0.023      340.728       14.949      860.013
09/10/2013  03:49:00      -50.230      -39.985       -4.921       23.667       19.311       13.470      560.106      372.901      181.439        0.263        0.056       64.202       11.434        0.032      340.740       14.971      860.002
09/10/2013  03:50:00      -63.268      -40.889      -11.242       20.006       16.805       12.800      400.236      282.415      163.850        0.332        0.042       75.331        4.181        0.003      340.769       15.018      860.005
09/10/2013  03:51:00      -54.708      -36.158       -0.019       29.414       17.836       18.395      865.201      318.113      338.374        0.291        0.076       65.577       16.943        0.067      340.648       14.813      860.001
09/10/2013  03:52:00      -96.891      -60.848       -9.297       18.655       15.480       13.937      347.998      239.634      194.234        0.698        0.039      114.413       11.354        0.010      340.710       14.917      859.993
09/10/2013  03:53:00      -58.480      -40.080       -0.892       30.449       20.141       15.339      927.117      405.662      235.287        0.330        0.078       70.897        4.222        0.004      340.679       14.865      859.993
09/10/2013  03:54:00      -23.748      -21.581        7.797       30.733       18.145       12.844      944.533      329.254      164.974        0.126        0.072       32.089       13.009        0.164      340.696       14.896      860.000
09/10/2013  03:55:00      -10.533      -10.357        9.811       17.004       10.262        7.999      289.132      105.312       63.976        0.039        0.023       14.772        5.710        0.149      340.675       14.860      860.007
09/10/2013  03:56:00      -28.526      -18.683        6.376       26.785       16.790       15.147      717.432      281.906      229.418        0.122        0.061       34.100       16.364        0.230      340.751       14.987      860.011
09/10/2013  03:57:00      -40.416      -28.236       -3.867       20.525       18.505       11.162      421.270      342.427      124.596        0.167        0.044       49.303        7.799        0.025      340.719       14.934      860.017
09/10/2013  03:58:00      -72.936      -18.514       -6.671       10.656       12.540        7.974      113.541      157.239       63.586        0.302        0.017       75.249        3.065        0.002      340.701       14.903      860.022
09/10/2013  03:59:00      -82.251      -27.808      -12.391       12.532       11.981        9.133      157.051      143.550       83.420        0.404        0.019       86.824        7.084        0.007      340.722       14.940      860.030
09/10/2013  04:00:00      -77.575      -32.276       -8.947       10.998       13.662       10.013      120.963      186.650      100.254        0.377        0.020       84.022        4.039        0.002      340.705       14.911      860.044
09/10/2013  04:01:00      -29.462      -16.505        2.765       26.300       15.493       12.395      691.669      240.031      153.644        0.112        0.054       33.770       12.585        0.139      340.687       14.879      860.055
09/10/2013  04:02:00      -54.402      -14.588       -1.907       15.213       12.713       11.880      231.430      161.610      141.124        0.185        0.027       56.324       10.624        0.036      340.660       14.835      860.073
09/10/2013  04:03:00      -28.157      -17.372        5.093       25.964        8.539       10.964      674.131       72.910      120.203        0.099        0.043       33.085       15.354        0.215      340.614       14.756      860.085
09/10/2013  04:04:00      -22.428      -11.933        8.621       32.335       13.441       10.269     1045.582      180.652      105.458        0.103        0.067       25.405       13.052        0.264      340.506       14.574      860.092
09/10/2013  04:05:00      -81.289      -23.108       -9.530       10.212        9.617        6.813      104.290       92.483       46.422        0.374        0.012       84.509        3.625        0.002      340.629       14.780      860.103
09/10/2013  04:06:00      -92.491      -17.920       -8.409       10.650       12.222        7.713      113.424      149.383       59.491        0.463        0.016       94.211        3.948        0.002      340.535       14.622      860.107
09/10/2013  04:07:00      -91.369       -7.644       -9.329       22.233       16.124       12.728      494.318      259.980      161.994        0.470        0.046       91.688       11.289        0.015      340.513       14.583      860.103
09/10/2013  04:08:00     -107.263      -34.474      -20.147       11.844       14.859        8.847      140.278      220.776       78.273        0.677        0.022      112.666        5.572        0.002      340.511       14.581      860.097
09/10/2013  04:09:00     -105.639      -40.375      -12.566       19.552       14.678       12.000      382.290      215.450      144.006        0.684        0.037      113.091        5.818        0.003      340.483       14.535      860.100
09/10/2013  04:10:00      -90.610      -41.446       -3.085       37.103       15.762       14.666     1376.644      248.455      215.102        0.589        0.092       99.639       15.010        0.023      340.438       14.456      860.112
09/10/2013  04:11:00      -62.621      -47.987        4.109       34.411       21.414       17.995     1184.128      458.557      323.831        0.410        0.098       78.893       19.985        0.064      340.426       14.438      860.132
09/10/2013  04:12:00      -47.105      -37.664        3.117       37.324       23.932       17.549     1393.105      572.738      307.973        0.296        0.114       60.312       16.378        0.074      340.401       14.397      860.144
09/10/2013  04:13:00     -113.404      -83.349       -6.727       40.147       39.737       22.629     1611.799     1579.058      512.050        1.178        0.185      140.739       27.090        0.037      340.522       14.601      860.141
09/10/2013  04:14:00     -110.728      -85.367       -6.244       55.110       36.744       21.933     3037.093     1350.086      481.055        1.223        0.243      139.815       23.394        0.028      340.529       14.611      860.145
09/10/2013  04:15:00      -75.050      -59.403        0.265       52.877       34.504       26.364     2795.976     1190.541      695.066        0.692        0.234       95.714       22.643        0.056      340.491       14.548      860.145
09/10/2013  04:16:00     -102.524      -85.792       -2.474       50.336       52.598       29.856     2533.720     2766.583      891.382        1.203        0.310      133.684       26.569        0.040      340.437       14.455      860.143
09/10/2013  04:17:00      -87.017      -87.524       -2.671       63.209       46.276       31.509     3995.363     2141.466      992.815        1.118        0.356      123.419       35.077        0.081      340.419       14.426      860.140
09/10/2013  04:18:00     -107.663      -95.665       -7.736       36.937       28.599       21.400     1364.378      817.919      457.941        1.172        0.132      144.025       14.589        0.010      340.453       14.483      860.129
09/10/2013  04:19:00     -115.411     -101.473       -6.118       40.618       42.496       22.982     1649.796     1805.898      528.174        1.382        0.199      153.676       22.254        0.021      340.378       14.357      860.109
09/10/2013  04:20:00     -125.034      -56.213       -4.357       25.558       25.246       17.375      653.218      637.367      301.874        1.020        0.080      137.089       11.110        0.007      340.416       14.421      860.098
09/10/2013  04:21:00     -116.677      -38.475       -6.121       32.285       26.652       18.765     1042.295      710.306      352.136        0.862        0.105      122.857       17.290        0.020      340.407       14.406      860.088
09/10/2013  04:22:00     -116.254      -10.202       -7.068       28.790       29.130       19.039      828.854      848.584      362.466        0.785        0.102      116.701       18.025        0.024      340.302       14.229      860.088
09/10/2013  04:23:00      -93.028      -17.773        6.975       39.350       29.724       23.447     1548.429      883.539      549.739        0.600        0.149       94.711       24.048        0.064      340.206       14.065      860.092
09/10/2013  04:24:00      -99.348      -37.393        4.980       32.266       29.873       20.470     1041.064      892.395      419.024        0.682        0.118      106.152       16.786        0.025      340.206       14.065      860.081
09/10/2013  04:25:00     -139.555      -35.190       -1.641       33.943       28.346       15.958     1152.099      803.506      254.660        1.146        0.111      143.923       13.868        0.009      340.214       14.081      860.069
09/10/2013  04:26:00     -129.545      -35.999        4.508       39.387       32.917       23.158     1551.313     1083.514      536.312        1.063        0.159      134.454       23.162        0.030      340.126       13.932      860.055
09/10/2013  04:27:00     -137.436      -40.130        0.159       34.615       29.154       22.128     1198.195      849.973      489.657        1.152        0.127      143.175       21.703        0.023      340.153       13.977      860.049
09/10/2013  04:28:00     -115.605      -42.055        1.991       46.249       35.174       23.570     2138.976     1237.188      555.526        0.953        0.197      123.017       25.321        0.042      340.180       14.023      860.042
09/10/2013  04:29:00     -112.367      -54.950       -6.164       37.693       33.910       22.572     1420.742     1149.904      509.487        0.938        0.154      125.084       20.245        0.026      340.213       14.078      860.027
09/10/2013  04:30:00     -114.969      -34.485       -2.688       39.986       36.479       23.248     1598.902     1330.736      540.449        0.894        0.174      120.030       19.587        0.027      340.156       13.982      860.017
09/10/2013  04:31:00     -134.507      -52.324        3.837       49.735       39.996       25.938     2473.615     1599.660      672.777        1.279        0.237      144.326       27.299        0.036      340.135       13.946      860.019
09/10/2013  04:32:00     -116.440      -44.943        4.640       35.047       52.476       26.538     1228.295     2753.733      704.253        1.014        0.234      124.812       22.061        0.031      340.054       13.811      860.016
09/10/2013  04:33:00     -134.232      -34.972        0.505       46.025       34.101       26.627     2118.257     1162.857      709.006        1.162        0.200      138.713       27.565        0.039      339.972       13.670      860.020
09/10/2013  04:34:00     -140.045      -57.990       -4.030       38.875       26.606       17.356     1511.229      707.887      301.226        1.276        0.126      151.577       10.460        0.005      339.983       13.692      860.029
09/10/2013  04:35:00     -129.830      -37.528      -11.440       24.630       26.533       17.392      606.614      704.003      302.496        1.000        0.081      135.145       10.927        0.007      340.077       13.848      860.034
09/10/2013  04:36:00     -141.968      -12.425      -28.995       19.593       18.210       13.798      383.899      331.599      190.396        1.103        0.045      142.511        8.906        0.004      340.103       13.891      860.030
09/10/2013  04:37:00     -108.334      -40.929       -9.834       39.185       21.097       20.817     1535.444      445.088      433.368        0.796        0.121      115.808       23.465        0.041      339.996       13.712      860.034
09/10/2013  04:38:00     -114.066      -11.651       -2.720       29.224       20.889       17.154      854.032      436.360      294.270        0.737        0.079      114.659       13.608        0.014      340.157       13.984      860.052
09/10/2013  04:39:00      -78.272      -14.972       -3.515       31.193       25.234       14.670      973.006      636.774      215.209        0.409        0.091       79.691       12.113        0.023      340.119       13.920      860.056
09/10/2013  04:40:00     -123.044       -0.288       -7.256       30.310       21.935       17.750      918.694      481.163      315.068        0.845        0.086      123.044       14.205        0.013      340.279       14.190      860.051
09/10/2013  04:41:00     -108.838      -17.376       -7.318       23.261       20.476       17.144      541.056      419.277      293.933        0.673        0.063      110.217       14.423        0.017      340.166       13.998      860.043
09/10/2013  04:42:00     -128.491      -18.625       -9.849       32.839       25.867       15.278     1078.422      669.111      233.405        0.947        0.099      129.834       11.134        0.007      340.435       14.454      860.035
09/10/2013  04:43:00      -90.585      -24.865       -5.446       23.302       23.236       12.412      542.981      539.897      154.070        0.505        0.062       93.936        7.209        0.006      340.349       14.308      860.033
09/10/2013  04:44:00     -108.954      -39.965       -6.583       22.386       20.942       10.785      501.125      438.586      116.324        0.728        0.053      116.052        9.070        0.006      340.298       14.221      860.036
09/10/2013  04:45:00      -83.832      -41.867       -2.019       28.196       18.791       14.325      794.994      353.095      205.202        0.507        0.068       93.705       16.556        0.031      340.225       14.098      860.055
09/10/2013  04:46:00     -104.856      -48.544       -4.912       12.981       16.995       11.321      168.505      288.845      128.158        0.698        0.029      115.548        9.576        0.007      340.335       14.284      860.061
09/10/2013  04:47:00      -89.908      -44.566       -3.150       25.315       18.367       12.223      640.825      337.337      149.404        0.560        0.056      100.348        6.631        0.004      340.355       14.319      860.066
09/10/2013  04:48:00      -85.649      -36.412       -4.958       24.951       16.591       11.050      622.563      275.257      122.111        0.485        0.051       93.067       12.263        0.017      340.351       14.313      860.069
09/10/2013  04:49:00      -68.136      -47.131       -0.782       22.447       16.088       14.547      503.875      258.810      211.607        0.392        0.049       82.849       12.738        0.024      340.400       14.395      860.077
09/10/2013  04:50:00      -70.170      -27.793       -6.739       22.091       20.573       13.942      488.019      423.250      194.375        0.342        0.055       75.474       14.596        0.037      340.404       14.401      860.085
09/10/2013  04:51:00      -87.846      -25.453       -5.080       12.587       18.177       12.135      158.435      330.395      147.261        0.451        0.032       91.459       11.564        0.016      340.458       14.493      860.089
09/10/2013  04:52:00      -83.927      -23.092       -5.234       10.203       15.118        8.139      104.092      228.567       66.236        0.400        0.020       87.046        4.073        0.002      340.457       14.490      860.088
09/10/2013  04:53:00      -67.276      -39.424       -2.023       21.097       12.303       10.505      445.070      151.362      110.355        0.340        0.035       77.976       10.773        0.019      340.356       14.319      860.088
09/10/2013  04:54:00      -49.622      -22.732        4.034       19.510       16.137       13.238      380.632      260.408      175.255        0.191        0.041       54.581       10.788        0.039      340.331       14.278      860.097
09/10/2013  04:55:00        2.065      -25.364       12.481       10.786       10.015        9.090      116.347      100.299       82.636        0.055        0.015       25.448        8.164        0.103      340.447       14.472      860.096
09/10/2013  04:56:00       -8.019       -7.498        3.024        5.922        5.638        5.212       35.071       31.783       27.166        0.011        0.005       10.978        2.765        0.063      340.350       14.308      860.088
09/10/2013  04:57:00      -46.161      -20.141        1.053       24.628       12.205       15.219      606.557      148.964      231.617        0.176        0.049       50.363       15.311        0.092      340.306       14.234      860.072
09/10/2013  04:58:00      -45.780      -26.830        5.541       27.507       15.077       12.629      756.608      227.330      159.491        0.199        0.057       53.063       10.723        0.041      340.190       14.039      860.059
09/10/2013  04:59:00      -17.766      -25.024       -3.166       20.387       11.976       12.949      415.616      143.435      167.672        0.084        0.036       30.689        7.665        0.062      340.181       14.025      860.060
09/10/2013  05:00:00      -55.570      -32.873       -0.892       42.114       23.290       12.900     1773.558      542.417      166.403        0.333        0.124       64.565       16.398        0.065      340.264       14.163      860.058
09/10/2013  05:01:00     -111.307      -66.070       -2.123       43.187       25.094       18.385     1865.111      629.721      337.995        0.980        0.142      129.439       18.868        0.021      340.198       14.052      860.051
09/10/2013  05:02:00      -61.184      -36.276        7.302       47.405       31.802       18.491     2247.254     1011.387      341.935        0.436        0.180       71.130       17.859        0.063      340.123       13.927      860.045
09/10/2013  05:03:00      -93.023      -18.440       -4.423       19.489       18.318       14.574      379.804      335.554      212.390        0.497        0.046       94.833       11.371        0.014      340.064       13.828      860.037
09/10/2013  05:04:00      -74.130        0.708       -2.623       32.928       16.065       16.510     1084.263      258.092      272.586        0.356        0.081       74.133       16.595        0.050      340.050       13.804      860.033
09/10/2013  05:05:00     -107.492       -2.837       -8.265       30.746       41.050       15.193      945.296     1685.095      230.832        0.725        0.143      107.529       13.507        0.016      340.016       13.745      860.026
09/10/2013  05:06:00      -98.942      -19.578       -5.358       34.122       34.705       22.429     1164.310     1204.429      503.045        0.654        0.144      100.861       16.046        0.025      339.903       13.554      860.029
09/10/2013  05:07:00     -108.194      -28.935       -2.819       43.116       37.510       18.188     1858.994     1406.994      330.806        0.807        0.180      111.996       18.673        0.028      339.901       13.551      860.025
09/10/2013  05:08:00     -119.939      -34.661       -5.661       28.447       26.862       19.396      809.242      721.551      376.220        0.876        0.095      124.847       18.711        0.022      339.928       13.598      860.023
09/10/2013  05:09:00     -101.445      -53.334        0.072       38.113       27.089       18.418     1452.582      733.816      339.218        0.783        0.126      114.610       17.511        0.023      339.993       13.707      860.024
09/10/2013  05:10:00     -110.795      -46.453       -3.440       21.354       25.511       14.793      456.014      650.790      218.843        0.789        0.066      120.139        9.174        0.006      339.989       13.700      860.029
09/10/2013  05:11:00      -95.948      -55.118        1.727       36.470       36.291       22.213     1330.082     1317.004      493.398        0.769        0.157      110.652       22.395        0.041      340.036       13.780      860.033
09/10/2013  05:12:00      -65.273      -56.865        2.482       43.445       40.233       21.490     1887.442     1618.654      461.826        0.573        0.198       86.569       20.275        0.055      340.067       13.832      860.038
09/10/2013  05:13:00      -95.935      -65.317        4.351       42.537       39.888       23.343     1809.417     1591.016      544.914        0.872        0.197      116.060       23.867        0.042      340.045       13.795      860.050
09/10/2013  05:14:00      -90.453      -47.753        5.157       56.564       34.829       22.410     3199.449     1213.037      502.219        0.770        0.246      102.284       25.289        0.061      340.068       13.834      860.060
09/10/2013  05:15:00     -133.106      -50.319       -7.617       44.713       27.618       18.827     1999.286      762.734      354.457        1.171        0.156      142.300       17.367        0.015      340.136       13.947      860.078
09/10/2013  05:16:00     -108.865      -12.076       -7.972       30.557       23.133       19.311      933.709      535.136      372.898        0.695        0.092      109.533       18.838        0.030      340.210       14.072      860.095
09/10/2013  05:17:00     -107.065      -17.148       -2.007       36.572       27.393       20.872     1337.503      750.354      435.634        0.714        0.126      108.429       20.024        0.034      340.128       13.934      860.102
09/10/2013  05:18:00     -114.209      -13.513       -7.175       32.598       20.796       15.802     1062.653      432.461      249.695        0.751        0.087      115.005       14.358        0.016      340.047       13.798      860.102
09/10/2013  05:19:00      -84.527      -10.561       -0.229       34.373       29.526       16.921     1181.531      871.769      286.328        0.480        0.117       85.184       17.421        0.042      340.007       13.730      860.103
09/10/2013  05:20:00     -107.607       -5.419       -5.835       39.527       22.706       18.497     1562.385      515.560      342.132        0.703        0.121      107.744       18.082        0.028      339.966       13.661      860.108
09/10/2013  05:21:00     -117.799      -26.316       -8.652       20.876       22.007       15.296      435.823      484.314      233.969        0.790        0.058      120.703       13.366        0.012      340.048       13.799      860.100
09/10/2013  05:22:00     -112.217      -43.459       -8.440       17.341       17.735       14.939      300.706      314.543      223.188        0.770        0.042      120.339       10.183        0.007      340.033       13.776      860.090
09/10/2013  05:23:00     -108.924      -39.042       -8.793       21.132       19.435       11.235      446.550      377.718      126.232        0.721        0.048      115.709        9.273        0.006      339.934       13.608      860.080
09/10/2013  05:24:00      -98.065      -34.573      -12.400       14.904       13.890       13.594      222.138      192.919      184.789        0.578        0.030      103.981        6.345        0.004      339.991       13.702      860.081
09/10/2013  05:25:00      -68.255      -48.158       -3.131       20.885       15.929       10.468      436.202      253.728      109.585        0.389        0.040       83.534        6.471        0.006      340.060       13.819      860.089
09/10/2013  05:26:00      -46.595      -37.234       -0.184       23.500       16.711       13.382      552.272      279.247      179.078        0.228        0.051       59.645       13.129        0.048      340.128       13.934      860.086
09/10/2013  05:27:00      -22.589      -29.151       -3.132       22.000       16.311       11.991      483.992      266.034      143.787        0.113        0.045       36.879        8.767        0.057      340.213       14.079      860.091
09/10/2013  05:28:00       -8.049      -20.375        5.900       22.960       30.256       11.372      527.143      915.429      129.313        0.104        0.079       21.907       12.948        0.349      340.180       14.023      860.090
09/10/2013  05:29:00      -44.263      -32.097       -4.356       18.202       22.552       15.878      331.326      508.576      252.112        0.205        0.055       54.676        9.067        0.028      340.315       14.251      860.107
09/10/2013  05:30:00       -2.151      -13.040        2.812       12.505       10.908        8.635      156.369      118.984       74.561        0.027        0.017       13.216        3.145        0.057      340.305       14.235      860.121
09/10/2013  05:31:00       -7.827      -11.465        7.465       16.852        7.934        7.683      283.999       62.941       59.030        0.033        0.020       13.881        8.297        0.357      340.228       14.104      860.123
09/10/2013  05:32:00      -55.917      -20.109       -4.229       15.080       11.812        6.467      227.408      139.535       41.823        0.198        0.020       59.422        3.320        0.003      340.258       14.154      860.121
09/10/2013  05:33:00      -63.075      -16.458       -4.291       21.203       16.670       10.337      449.551      277.884      106.856        0.255        0.042       65.187        8.773        0.018      340.185       14.033      860.125
09/10/2013  05:34:00      -89.378      -42.580       -6.648       15.187       19.280       10.847      230.647      371.714      117.661        0.528        0.036       99.002        6.196        0.004      340.114       13.911      860.135
09/10/2013  05:35:00      -93.887      -36.506       -4.039       14.032       15.924       15.430      196.899      253.560      238.092        0.543        0.034      100.734       10.945        0.012      340.048       13.801      860.126
09/10/2013  05:36:00      -93.217      -38.711       -9.031       12.520       15.409       15.260      156.756      237.432      232.866        0.545        0.031      100.935        7.315        0.005      339.960       13.651      860.121
09/10/2013  05:37:00     -100.722      -46.037       -8.554       22.889       15.036       10.674      523.908      226.079      113.940        0.660        0.043      110.745       11.680        0.011      339.929       13.600      860.115
09/10/2013  05:38:00     -119.743      -41.048      -10.546       15.910       19.789       13.522      253.113      391.595      182.836        0.848        0.041      126.583        8.964        0.005      339.900       13.550      860.105
09/10/2013  05:39:00     -108.407      -50.522       -8.108       16.808       18.965       15.533      282.518      359.688      241.261        0.763        0.044      119.602        7.896        0.004      339.873       13.506      860.103
09/10/2013  05:40:00      -97.906      -40.893      -14.826       18.590       17.419       13.607      345.598      303.432      185.159        0.616        0.042      106.103        9.956        0.009      339.959       13.650      860.101
09/10/2013  05:41:00      -89.351      -37.101      -11.579       14.337       10.856        9.399      205.560      117.854       88.347        0.495        0.021       96.748        5.969        0.004      339.867       13.496      860.107
09/10/2013  05:42:00      -69.981      -25.728       -7.308       37.453       16.308       12.040     1402.701      265.958      144.969        0.371        0.091       74.561       16.239        0.047      339.877       13.511      860.110
09/10/2013  05:43:00       -7.443      -12.681        6.483       14.423       12.325       12.880      208.035      151.916      165.895        0.039        0.026       14.704       11.085        0.568      339.887       13.530      860.114
09/10/2013  05:44:00      -35.860      -30.746        2.835       27.779       17.843       15.445      771.665      318.389      238.559        0.178        0.066       47.237       17.440        0.136      339.896       13.544      860.121
09/10/2013  05:45:00      -69.037      -47.332       -3.812       33.752       22.538       16.789     1139.202      507.960      281.885        0.447        0.096       83.704       18.019        0.046      339.911       13.569      860.127
09/10/2013  05:46:00      -83.479      -58.550       -6.778       25.533       31.050       13.529      651.934      964.100      183.041        0.612        0.090      101.965       11.900        0.014      339.836       13.443      860.132
09/10/2013  05:47:00      -70.847      -50.152       -4.308       40.009       28.873       18.377     1600.753      833.635      337.702        0.516        0.139       86.801       15.759        0.033      339.824       13.422      860.124
09/10/2013  05:48:00      -95.740      -54.287       -3.594       28.822       25.728       15.825      830.735      661.947      250.442        0.693        0.087      110.060       13.899        0.016      339.784       13.357      860.121
09/10/2013  05:49:00      -84.560      -68.996        1.741       35.509       32.168       25.021     1260.874     1034.804      626.072        0.742        0.146      109.137       20.317        0.035      339.766       13.324      860.114
09/10/2013  05:50:00      -84.649      -71.394        2.288       43.011       32.635       24.625     1849.918     1065.057      606.391        0.789        0.176      110.737       18.012        0.026      339.776       13.341      860.109
09/10/2013  05:51:00     -100.916      -59.417       -4.918       27.243       25.811       19.092      742.196      666.194      364.511        0.776        0.089      117.108        5.517        0.002      339.827       13.429      860.105
09/10/2013  05:52:00      -94.580      -65.450       -3.478       40.111       24.933       23.027     1608.927      621.655      530.255        0.800        0.138      115.018       10.210        0.008      339.853       13.471      860.108
09/10/2013  05:53:00     -102.476      -65.878        2.137       60.086       34.398       27.870     3610.291     1183.190      776.736        1.021        0.279      121.825       32.947        0.073      339.842       13.452      860.120
09/10/2013  05:54:00     -115.007      -83.302       -5.558       30.039       26.586       18.363      902.371      706.812      337.184        1.107        0.097      142.007       14.236        0.010      339.896       13.543      860.129
09/10/2013  05:55:00     -117.405      -36.796       -0.457       21.308       21.522       15.109      454.045      463.199      228.284        0.814        0.057      123.036       10.280        0.007      339.832       13.435      860.142
09/10/2013  05:56:00      -99.485      -51.915        2.091       29.609       26.278       22.671      876.674      690.551      513.996        0.734        0.104      112.215       15.591        0.019      339.834       13.439      860.154
09/10/2013  05:57:00     -104.051      -67.242       -0.201       46.086       25.711       20.710     2123.962      661.061      428.901        0.928        0.161      123.887       19.857        0.026      339.886       13.526      860.166
09/10/2013  05:58:00      -91.427      -74.322        2.334       34.026       27.107       18.554     1157.777      734.793      344.254        0.806        0.112      117.825       16.308        0.019      339.849       13.463      860.184
09/10/2013  05:59:00      -50.449      -38.284        3.879       43.909       29.735       20.835     1927.959      884.148      434.083        0.364        0.162       63.330       22.607        0.127      339.803       13.388      860.197
09/10/2013  06:00:00      -77.836      -66.759       -5.377       57.372       35.000       25.878     3291.598     1224.981      669.662        0.786        0.259      102.544       26.641        0.067      339.836       13.443      860.204
09/10/2013  06:01:00     -126.056      -87.965       -1.086       44.557       36.792       27.701     1985.349     1353.681      767.331        1.387        0.205      153.714       21.707        0.020      339.777       13.343      860.224
09/10/2013  06:02:00     -126.134     -101.200       -8.385       63.464       38.792       33.216     4027.643     1504.817     1103.302        1.643        0.332      161.714       27.693        0.029      339.773       13.337      860.246
09/10/2013  06:03:00     -118.122      -99.871        0.563       54.582       49.940       29.748     2979.188     2494.007      884.959        1.514        0.318      154.683       27.518        0.032      339.675       13.172      860.261
09/10/2013  06:04:00     -113.990      -81.792       -5.509       32.591       21.811       22.134     1062.167      475.705      489.931        1.087        0.101      140.298       20.674        0.022      339.680       13.181      860.270
09/10/2013  06:05:00     -136.380      -20.538       -5.673       49.207       28.586       27.440     2421.318      817.163      752.932        1.152        0.200      137.918       29.577        0.046      339.774       13.339      860.279
09/10/2013  06:06:00     -129.916      -25.346       -6.278       39.746       29.967       20.759     1579.766      898.036      430.943        1.023        0.145      132.365       18.094        0.019      339.809       13.397      860.294
09/10/2013  06:07:00     -119.353      -35.013       -3.718       32.293       31.461       20.248     1042.865      989.801      409.963        0.896        0.122      124.383       19.144        0.024      339.828       13.429      860.312
09/10/2013  06:08:00      -91.198      -13.085       -1.230       49.463       33.599       24.389     2446.549     1128.896      594.824        0.633        0.209       92.132       27.426        0.089      339.843       13.454      860.340
09/10/2013  06:09:00      -86.045      -11.540       -5.125       41.205       30.118       22.431     1697.831      907.115      503.167        0.534        0.155       86.816       20.489        0.056      339.918       13.581      860.354
09/10/2013  06:10:00      -66.232      -16.509       -7.980       33.804       29.165       19.257     1142.707      850.607      370.851        0.354        0.118       68.259       14.942        0.048      340.063       13.824      860.343
09/10/2013  06:11:00      -80.800      -33.534        0.410       40.149       23.930       22.422     1611.956      572.639      502.733        0.517        0.134       87.482       21.147        0.058      339.949       13.633      860.328
09/10/2013  06:12:00     -121.951      -34.520       -4.804       38.108       31.562       22.064     1452.256      996.152      486.820        0.951        0.147      126.743       18.309        0.021      339.914       13.574      860.326
09/10/2013  06:13:00     -102.381      -52.858       -6.300       38.625       26.109       18.725     1491.912      681.698      350.623        0.792        0.126      115.221        7.351        0.004      339.805       13.390      860.321
09/10/2013  06:14:00     -120.324      -20.532       -2.014       35.732       39.394       24.389     1276.809     1551.860      594.831        0.916        0.171      122.064       22.682        0.035      339.689       13.194      860.325
09/10/2013  06:15:00      -94.059      -23.315       -2.147       45.496       38.038       22.936     2069.895     1446.880      526.066        0.672        0.202       96.905       19.868        0.042      339.655       13.138      860.333
09/10/2013  06:16:00      -92.930      -20.978       -5.302       36.240       30.114       18.624     1313.344      906.851      346.854        0.584        0.128       95.269       18.248        0.037      339.809       13.397      860.335
09/10/2013  06:17:00     -117.332      -17.304      -12.676       28.058       29.115       19.734      787.274      847.696      389.421        0.813        0.101      118.601       17.533        0.022      339.844       13.457      860.342
09/10/2013  06:18:00     -144.165      -25.122      -18.208       32.855       28.671       19.984     1079.442      822.028      399.373        1.202        0.115      146.338       17.260        0.014      339.753       13.303      860.340
09/10/2013  06:19:00     -176.478       -7.675      -20.502       31.389       31.859       21.294      985.282     1015.013      453.434        1.704        0.123      176.644       15.740        0.008      339.784       13.353      860.331
09/10/2013  06:20:00     -180.532       12.452      -14.793       25.912       29.358       20.098      671.429      861.889      403.920        1.745        0.097      180.961       10.206        0.003      339.762       13.317      860.314
09/10/2013  06:21:00     -163.648       16.788      -15.590       32.626       27.041       17.647     1064.488      731.236      311.411        1.471        0.105      164.507       17.088        0.011      339.780       13.349      860.309
09/10/2013  06:22:00     -126.257       -8.687      -10.413       37.743       32.932       23.496     1424.552     1084.486      552.073        0.959        0.153      126.555       17.531        0.019      339.715       13.238      860.320
09/10/2013  06:23:00     -122.624       -0.911      -14.986       36.206       36.299       23.781     1310.866     1317.637      565.546        0.923        0.160      122.627       16.915        0.019      339.809       13.398      860.325
09/10/2013  06:24:00     -171.259       23.924      -15.704       38.665       31.028       25.829     1494.973      962.745      667.152        1.664        0.156      172.922       21.826        0.016      339.804       13.389      860.329
09/10/2013  06:25:00     -191.574       29.785      -21.247       25.059       38.768       23.597      627.935     1502.965      556.828        2.036        0.134      193.876       19.250        0.010      339.733       13.268      860.332
09/10/2013  06:26:00     -168.840       37.511      -21.728       38.625       36.202       23.509     1491.878     1310.565      552.663        1.687        0.168      172.956       14.575        0.007      339.723       13.251      860.335
09/10/2013  06:27:00     -158.811       21.808      -16.351       30.783       33.479       21.563      947.564     1120.839      464.952        1.425        0.127      160.301       14.474        0.008      339.780       13.349      860.359
09/10/2013  06:28:00     -105.677       10.117       -7.319       48.380       31.381       17.097     2340.596      984.759      292.296        0.747        0.181      106.160       18.728        0.031      339.730       13.263      860.375
09/10/2013  06:29:00      -23.492        4.704       15.078       38.718       41.222       21.042     1499.101     1699.233      442.770        0.222        0.182       23.958       24.030        1.006      339.640       13.113      860.385
09/10/2013  06:30:00      -89.200       -9.311       -2.421       28.203       27.078       13.339      795.411      733.220      177.926        0.488        0.085       89.684        7.916        0.008      339.656       13.139      860.399
09/10/2013  06:31:00      -91.702      -20.366       -0.636       20.081       25.156       14.405      403.240      632.811      207.515        0.503        0.062       93.936        9.614        0.010      339.626       13.090      860.412
09/10/2013  06:32:00      -74.470      -14.382       -3.981       14.571       15.816       11.456      212.311      250.161      131.242        0.318        0.030       75.846        5.547        0.005      339.654       13.137      860.418
09/10/2013  06:33:00      -78.348      -36.874       -7.115       21.709       14.627        9.179      471.293      213.951       84.246        0.416        0.038       86.592        5.532        0.004      339.784       13.356      860.420
09/10/2013  06:34:00      -45.124      -36.544        2.399       32.079       12.179       11.989     1029.071      148.331      143.728        0.235        0.066       58.066        2.598        0.002      339.763       13.321      860.426
09/10/2013  06:35:00      -25.078      -30.283       -0.081       26.132       20.151       17.111      682.882      406.064      292.770        0.146        0.069       39.319       14.684        0.139      339.802       13.386      860.441
09/10/2013  06:36:00      -45.716      -51.949       -0.597       21.511       28.376       19.055      462.703      805.224      363.088        0.321        0.082       69.200       14.214        0.042      339.791       13.366      860.446
09/10/2013  06:37:00      -74.008      -42.321       -1.479       32.676       25.620       18.471     1067.735      656.365      341.170        0.467        0.103       85.254        6.038        0.005      339.741       13.282      860.449
09/10/2013  06:38:00      -68.438      -46.397        2.280       44.826       27.641       18.858     2009.373      764.034      355.613        0.498        0.156       82.682       19.445        0.055      339.684       13.185      860.453
09/10/2013  06:39:00      -87.508      -47.143        0.695       45.610       20.169       18.540     2080.287      406.784      343.728        0.636        0.142       99.399       18.523        0.035      339.650       13.129      860.466
09/10/2013  06:40:00      -87.450      -51.902        4.771       37.726       28.811       16.602     1423.259      830.069      275.642        0.645        0.126      101.692       17.897        0.031      339.593       13.033      860.487
09/10/2013  06:41:00      -71.974      -52.986       -0.165       41.949       24.748       23.728     1759.739      612.486      563.003        0.546        0.147       89.374       23.383        0.068      339.537       12.940      860.504
09/10/2013  06:42:00      -90.181      -62.847       -5.957       26.684       26.578       19.688      712.045      706.396      387.618        0.696        0.090      109.920       16.293        0.022      339.586       13.021      860.522
09/10/2013  06:43:00      -50.845      -55.246        1.458       37.861       40.907       17.324     1433.458     1673.366      300.119        0.452        0.170       75.083       24.244        0.104      339.613       13.067      860.538
09/10/2013  06:44:00      -87.133      -81.907       -5.367       24.188       19.385       16.746      585.069      375.765      280.416        0.779        0.062      119.587       10.973        0.008      339.668       13.160      860.552
09/10/2013  06:45:00      -38.005      -59.151        3.774       36.534       33.158       20.625     1334.755     1099.485      425.375        0.391        0.143       70.308       19.269        0.075      339.636       13.107      860.576
09/10/2013  06:46:00      -70.598      -85.577        3.267       32.006       29.819       22.376     1024.414      889.182      500.683        0.737        0.121      110.939       16.733        0.023      339.686       13.191      860.599
09/10/2013  06:47:00      -92.525      -97.295       -4.657       30.009       30.950       20.319      900.526      957.905      412.855        1.016        0.114      134.265       16.797        0.016      339.749       13.297      860.615
09/10/2013  06:48:00      -39.496      -59.551        2.833       31.502       31.633       20.767      992.360     1000.650      431.261        0.377        0.121       71.458       10.421        0.021      339.797       13.377      860.639
09/10/2013  06:49:00       -0.618      -36.490        5.928       35.435       39.027       22.511     1255.664     1523.102      506.723        0.233        0.164       36.495       13.302        0.133      339.769       13.329      860.650
09/10/2013  06:50:00        2.994      -24.522       15.757       18.846       32.515       22.811      355.190     1057.210      520.346        0.140        0.097       24.704       21.897        0.786      339.816       13.409      860.666
09/10/2013  06:51:00        4.146      -63.162       -0.389       35.748       49.163       28.814     1277.918     2416.977      830.261        0.427        0.226       63.298       29.818        0.222      339.903       13.556      860.689
09/10/2013  06:52:00      -22.349      -71.126        5.987       21.103       36.340       16.526      445.330     1320.623      273.107        0.382        0.102       74.554       10.823        0.021      339.872       13.502      860.709
09/10/2013  06:53:00      -21.035      -33.188       -3.481       28.873       33.482       19.749      833.648     1121.032      390.014        0.195        0.117       39.293       13.552        0.119      339.910       13.567      860.720
09/10/2013  06:54:00      -27.649      -10.948       12.641       38.492       21.999       17.782     1481.614      483.969      316.204        0.166        0.114       29.738       17.292        0.338      339.773       13.336      860.729
09/10/2013  06:55:00      -43.878      -41.689        1.756       44.823       39.554       21.687     2009.107     1564.526      470.311        0.385        0.202       60.525       11.845        0.038      339.762       13.319      860.744
09/10/2013  06:56:00       -7.430      -28.633       18.249       37.887       26.322       21.044     1435.421      692.822      442.835        0.189        0.129       29.582       20.119        0.463      339.774       13.337      860.761
09/10/2013  06:57:00      -21.815      -34.727       10.446       31.541       43.002       23.374      994.841     1849.204      546.323        0.259        0.170       41.010       27.700        0.456      339.817       13.411      860.786
09/10/2013  06:58:00      -30.319      -33.096        9.366       41.652       39.957       19.395     1734.897     1596.586      376.167        0.290        0.185       44.884       12.915        0.083      339.790       13.366      860.809
09/10/2013  06:59:00      -13.244      -11.628       10.160       26.211       18.189       14.286      686.996      330.854      204.085        0.082        0.061       17.624       13.260        0.566      339.824       13.423      860.835
09/10/2013  07:00:00       -5.150        7.216       11.107       18.398       13.524       16.046      338.478      182.902      257.469        0.049        0.039        8.866       14.734        2.762      339.782       13.352      860.858
09/10/2013  07:01:00       -8.654        9.409        0.489       16.529       20.303       13.387      273.206      412.208      179.211        0.051        0.043       12.784       11.496        0.809      339.756       13.307      860.883
09/10/2013  07:02:00      -16.290      -20.637       -0.165       16.831       17.205       12.779      283.285      296.017      163.313        0.072        0.037       26.292        5.869        0.050      339.875       13.510      860.912
09/10/2013  07:03:00      -28.475       -6.213       -5.175       38.728       14.194        8.505     1499.890      201.470       72.328        0.132        0.089       29.145        8.797        0.091      339.872       13.504      860.927
09/10/2013  07:04:00      -54.890       -6.121        4.196       24.801       13.460       12.918      615.070      181.174      166.884        0.202        0.048       55.230       13.333        0.058      339.816       13.408      860.920
09/10/2013  07:05:00      -70.459      -20.638        9.199       17.241       17.561       12.764      297.265      308.372      162.910        0.312        0.038       73.419        8.721        0.014      339.794       13.372      860.920
09/10/2013  07:06:00      -29.828      -18.748        5.663       29.097       24.101       15.780      846.607      580.845      249.007        0.147        0.084       35.230       12.507        0.126      339.845       13.458      860.929
09/10/2013  07:07:00      -55.726      -30.204       -2.211       26.074       20.635       12.085      679.863      425.786      146.050        0.264        0.063       63.385       11.418        0.032      339.866       13.494      860.914
09/10/2013  07:08:00      -65.706      -25.923        3.495       46.079       24.800       16.661     2123.242      615.024      277.582        0.401        0.151       70.635       19.468        0.076      339.910       13.568      860.909
09/10/2013  07:09:00      -91.254      -51.652        0.155       41.035       33.985       22.414     1683.858     1154.960      502.375        0.717        0.167      104.859       21.639        0.043      339.835       13.440      860.905
09/10/2013  07:10:00      -72.574      -50.033       -2.403       37.009       33.133       19.590     1369.647     1097.821      383.752        0.531        0.143       88.149       18.635        0.045      339.834       13.440      860.894
09/10/2013  07:11:00     -127.406      -18.655       -8.134       17.181       13.942       15.690      295.201      194.374      246.173        0.869        0.037      128.764        7.428        0.003      339.768       13.329      860.897
09/10/2013  07:12:00     -132.357      -21.925      -11.855       19.184       18.172       13.211      368.015      330.223      174.521        0.951        0.044      134.161        7.245        0.003      339.765       13.323      860.890
09/10/2013  07:13:00     -131.343      -39.771       -9.339       36.217       31.003       18.219     1311.637      961.186      331.939        1.076        0.130      137.232       18.188        0.018      339.790       13.364      860.886
09/10/2013  07:14:00     -175.196      -30.436       -9.049       32.248       36.009       21.717     1039.964     1296.677      471.636        1.725        0.140      177.820       17.000        0.009      339.784       13.354      860.881
09/10/2013  07:15:00     -154.153      -34.100       -3.424       41.336       29.749       20.631     1708.701      884.979      425.639        1.398        0.151      157.880       15.339        0.009      339.848       13.464      860.886
09/10/2013  07:16:00     -144.883      -23.077      -13.956       32.420       23.294       24.465     1051.033      542.597      598.514        1.195        0.110      146.709       15.542        0.011      339.884       13.524      860.900
09/10/2013  07:17:00     -104.576      -39.572       -6.544       37.048       29.910       22.803     1372.588      894.610      519.991        0.767        0.139      111.812       20.110        0.032      339.830       13.432      860.906
09/10/2013  07:18:00     -115.182      -38.959      -10.810       19.825       34.360       17.915      393.041     1180.605      320.955        0.840        0.095      121.593        6.286        0.003      339.823       13.421      860.924
09/10/2013  07:19:00      -96.610      -73.322       -7.110       38.280       36.338       17.844     1465.331     1320.482      318.416        0.893        0.155      121.284       15.211        0.016      339.851       13.468      860.937
09/10/2013  07:20:00      -71.279      -63.508       -7.636       39.124       33.156       21.664     1530.660     1099.310      469.322        0.614        0.155       95.467       19.342        0.041      339.871       13.501      860.943
09/10/2013  07:21:00      -61.431      -77.896       -0.232       50.121       37.146       31.403     2512.129     1379.833      986.141        0.736        0.244       99.205       31.137        0.099      339.868       13.497      860.949
09/10/2013  07:22:00      -76.032      -50.622        0.810       59.738       31.481       27.579     3568.661      991.035      760.581        0.683        0.266       91.343       32.278        0.125      339.806       13.391      860.966
09/10/2013  07:23:00     -102.988     -103.998       -6.866       32.167       40.523       26.780     1034.689     1642.129      717.175        1.243        0.170      146.363       16.357        0.012      339.766       13.325      860.968
09/10/2013  07:24:00      -74.763      -96.532       -9.830       61.354       40.591       34.058     3764.273     1647.647     1159.969        1.079        0.329      122.098       27.099        0.049      339.768       13.328      860.982
09/10/2013  07:25:00      -89.335      -71.652       -1.978       45.481       49.180       25.931     2068.534     2418.624      672.420        0.914        0.258      114.520       22.943        0.040      339.723       13.251      860.997
09/10/2013  07:26:00     -101.667      -56.403      -14.797       34.670       37.169       16.591     1202.013     1381.559      275.253        0.830        0.143      116.264       12.811        0.012      339.770       13.332      861.016
09/10/2013  07:27:00      -67.858      -63.722       -9.831       27.169       19.768       11.097      738.131      390.755      123.145        0.501        0.063       93.087        7.649        0.007      339.824       13.421      861.034
09/10/2013  07:28:00      -73.753      -50.665       -6.707       25.027       26.782       16.738      626.339      717.285      280.155        0.484        0.081       89.479       14.105        0.025      339.869       13.497      861.035
09/10/2013  07:29:00      -46.900      -50.645       -3.814       21.992       19.667       14.951      483.666      386.772      223.531        0.294        0.055       69.025       10.615        0.024      339.883       13.522      861.041
09/10/2013  07:30:00      -16.632      -34.325       -0.709       18.490       16.898        9.504      341.877      285.554       90.328        0.109        0.036       38.142       10.678        0.078      340.013       13.740      861.039
09/10/2013  07:31:00      -13.801      -29.348       -5.481       12.374       18.890       11.844      153.124      356.832      140.279        0.087        0.033       32.431        8.377        0.067      340.100       13.888      861.054
09/10/2013  07:32:00      -21.641       -5.632      -13.032        9.316        7.773        9.957       86.791       60.425       99.149        0.046        0.012       22.361        7.429        0.110      340.160       13.989      861.059
09/10/2013  07:33:00      -46.036      -19.318       -6.493       13.197       16.341        8.094      174.160      267.040       65.505        0.152        0.025       49.925        5.298        0.011      340.129       13.936      861.066
09/10/2013  07:34:00      -19.737      -36.860       -3.996       14.337       12.269        8.270      205.541      150.523       68.399        0.109        0.021       41.812        5.436        0.017      340.155       13.979      861.078
09/10/2013  07:35:00      -12.895      -30.777        1.601       19.578       11.952       12.913      383.305      142.845      166.755        0.090        0.035       33.369       10.337        0.096      340.227       14.103      861.069
09/10/2013  07:36:00       -9.123      -10.066        5.078       15.247       14.099       13.100      232.459      198.790      171.609        0.041        0.030       13.585        5.634        0.172      340.377       14.356      861.067
09/10/2013  07:37:00      -52.595      -25.128       -0.026       14.382       14.377        9.758      206.844      206.685       95.214        0.195        0.025       58.289        5.159        0.008      340.223       14.096      861.065
09/10/2013  07:38:00      -36.678      -43.747       -4.587       19.789       17.327       18.610      391.612      300.217      346.335        0.216        0.052       57.088        9.291        0.026      340.269       14.171      861.065
09/10/2013  07:39:00      -23.412      -45.962      -16.477       16.588       23.833       13.207      275.157      567.990      174.416        0.197        0.051       51.581        4.178        0.007      340.261       14.159      861.072
09/10/2013  07:40:00      -23.146      -63.948       -9.919       22.270       18.277       13.284      495.954      334.032      176.468        0.286        0.050       68.008       11.636        0.029      340.268       14.172      861.067
09/10/2013  07:41:00      -30.528      -39.582        3.483       14.848       22.880       12.666      220.475      523.498      160.438        0.171        0.045       49.987        5.623        0.013      340.423       14.434      861.061
09/10/2013  07:42:00      -31.327      -54.322        1.933       16.480       19.696       12.121      271.574      387.935      146.919        0.237        0.040       62.708        7.261        0.013      340.447       14.473      861.065
09/10/2013  07:43:00      -51.141      -48.942       -4.257       20.664       18.288       11.647      427.014      334.449      135.646        0.296        0.045       70.787       11.271        0.025      340.469       14.510      861.064
09/10/2013  07:44:00      -26.269      -41.970        0.542       11.418        8.437        6.001      130.375       71.187       36.015        0.134        0.012       49.513        4.307        0.008      340.463       14.500      861.074
09/10/2013  07:45:00      -10.395      -49.207       -0.420       26.691       11.782       16.171      712.399      138.805      261.514        0.182        0.056       50.293       12.133        0.058      340.476       14.522      861.079
09/10/2013  07:46:00        4.594      -11.090       11.017       21.176       22.767       18.284      448.424      518.344      334.316        0.078        0.065       12.004       12.433        1.073      340.783       15.043      861.073
09/10/2013  07:47:00      -40.925      -30.874       -2.192       11.258       13.596       10.513      126.733      184.843      110.513        0.153        0.021       51.264        4.947        0.009      340.630       14.784      861.072
09/10/2013  07:48:00      -34.761      -42.205       -7.695       19.557       13.882       10.963      382.492      192.699      120.197        0.187        0.035       54.678        8.369        0.023      340.584       14.705      861.058
09/10/2013  07:49:00      -25.389      -27.090       -8.145       21.504       21.742        9.406      462.401      472.703       88.463        0.123        0.051       37.127        9.499        0.065      340.664       14.841      861.045
09/10/2013  07:50:00       -5.580      -20.156        5.225       23.420       17.994       15.804      548.518      323.788      249.782        0.079        0.056       20.914       19.123        0.836      340.794       15.060      861.033
09/10/2013  07:51:00        4.494      -18.735        1.924       15.330       13.380        9.319      235.008      179.024       86.844        0.044        0.025       19.267        6.170        0.103      340.867       15.182      861.034
09/10/2013  07:52:00      -18.150      -17.389        0.429       19.833       20.431       14.298      393.333      417.442      204.440        0.082        0.051       25.135       11.938        0.226      340.942       15.310      861.034
09/10/2013  07:53:00      -27.182      -45.208        3.365       18.621       20.892       12.242      346.749      436.472      149.869        0.186        0.047       52.751        9.711        0.034      340.942       15.311      861.036
09/10/2013  07:54:00      -38.843      -36.542       -3.378       14.744       25.806       11.453      217.372      665.958      131.165        0.193        0.051       53.330        9.094        0.029      340.959       15.340      861.047
09/10/2013  07:55:00        1.306       -3.580       12.755        8.956       18.264       15.071       80.218      333.569      227.128        0.041        0.032        3.810        4.118        1.168      341.600       16.424      861.059
09/10/2013  07:56:00       43.146      -46.151       -5.390       33.340       24.572       21.918     1111.574      603.784      480.407        0.311        0.110       63.179       13.242        0.044      340.567       14.677      861.076
09/10/2013  07:57:00       69.501      -40.448       -4.280       34.791       36.064       29.340     1210.403     1300.617      860.806        0.493        0.169       80.414       12.114        0.023      340.516       14.592      861.089
09/10/2013  07:58:00      -15.431       -1.412       15.434       17.426       27.533       24.546      303.649      758.075      602.510        0.107        0.083       15.496       18.777        1.468      341.062       15.514      861.086
09/10/2013  07:59:00      -22.421      -11.528        8.753       20.938       21.140       16.277      438.409      446.892      264.946        0.093        0.058       25.211       13.866        0.302      341.139       15.644      861.091
09/10/2013  08:00:00      -31.921        5.749       -0.579       28.449       22.985       16.254      809.327      528.318      264.197        0.133        0.080       32.434       12.329        0.144      341.175       15.704      861.108
09/10/2013  08:01:00       -2.084       27.340       47.698       33.938       27.874       27.976     1151.817      776.977      782.669        0.287        0.136       27.419       20.774        0.574      341.373       16.041      861.105
09/10/2013  08:02:00      -19.029       11.211       25.085       16.076       19.953       18.540      258.433      398.106      343.735        0.106        0.050       22.086       10.378        0.221      341.451       16.173      861.109
09/10/2013  08:03:00      -17.352       16.535       29.695       15.655       23.750       23.022      245.074      564.058      530.023        0.140        0.067       23.968       16.263        0.460      341.441       16.155      861.111
09/10/2013  08:04:00      -14.133       19.189       46.316       13.336       23.935       13.657      177.860      572.861      186.509        0.182        0.047       23.833        6.561        0.076      341.778       16.728      861.114
09/10/2013  08:05:00       -4.152      -14.923       23.875       16.160       21.191       13.717      261.153      449.071      188.164        0.085        0.045       15.490       10.742        0.481      341.439       16.153      861.114
09/10/2013  08:06:00      -33.750       -0.262       -3.908       20.733       16.485       15.052      429.854      271.758      226.559        0.104        0.046       33.751        7.339        0.047      341.025       15.453      861.117
09/10/2013  08:07:00      -17.725      -10.890        3.066       31.506       17.704       27.707      992.651      313.417      767.698        0.126        0.104       20.802       23.963        1.327      341.350       16.003      861.115
09/10/2013  08:08:00      -14.991      -10.546        6.594       13.265       14.299       14.775      175.956      204.466      218.308        0.049        0.030       18.328       10.711        0.341      341.378       16.050      861.111
09/10/2013  08:09:00       45.993      -22.119       10.477       36.494       26.199       22.307     1331.839      686.379      497.593        0.261        0.126       51.035       12.333        0.058      340.960       15.341      861.114
09/10/2013  08:10:00       41.438      -19.649       -7.532       28.522       26.161       26.210      813.515      684.409      686.962        0.217        0.109       45.861        8.294        0.033      340.923       15.279      861.127
09/10/2013  08:11:00        6.952      -26.420        0.432       33.100       24.493       26.762     1095.591      599.908      716.202        0.158        0.121       27.319       13.900        0.259      341.054       15.502      861.140
09/10/2013  08:12:00        4.602      -10.712        5.708       19.818       16.600       18.103      392.765      275.561      327.725        0.058        0.050       11.659       13.764        1.394      341.362       16.022      861.142
09/10/2013  08:13:00        2.829      -16.952       -3.194       25.787       16.045       14.118      664.966      257.435      199.332        0.071        0.056       17.187       13.802        0.645      341.180       15.713      861.148
09/10/2013  08:14:00        3.456      -21.922      -16.629       28.839       19.604       22.003      831.692      384.314      484.149        0.123        0.085       22.193        9.655        0.189      341.158       15.677      861.162
09/10/2013  08:15:00       22.652       -8.776        4.408       33.297       16.881       28.778     1108.678      284.978      828.164        0.142        0.111       24.293       18.741        0.595      341.333       15.974      861.170
09/10/2013  08:16:00       18.257      -18.302       -1.920       23.340       32.762       23.183      544.759     1073.316      537.465        0.141        0.108       25.851       18.312        0.502      341.207       15.760      861.187
09/10/2013  08:17:00       13.158      -32.667       12.655       29.993       35.643       33.504      899.604     1270.448     1122.499        0.235        0.165       35.217       21.277        0.365      341.415       16.112      861.203
09/10/2013  08:18:00       -3.083       -9.487       39.275       19.408       30.992       14.391      376.664      960.483      207.107        0.159        0.077        9.975        9.911        0.987      342.147       17.354      861.212
09/10/2013  08:19:00       44.502      -18.246       20.937       48.949       28.671       34.226     2396.005      822.032     1171.406        0.357        0.219       48.097       30.462        0.401      341.759       16.695      861.212
09/10/2013  08:20:00       -1.507       18.239       39.516       23.721       21.066       18.893      562.703      443.796      356.934        0.163        0.068       18.301       14.733        0.648      342.178       17.407      861.215
09/10/2013  08:21:00       16.729      -13.562        8.500       19.997       26.724       28.313      399.878      714.152      801.606        0.123        0.096       21.535       16.125        0.561      341.701       16.598      861.219
09/10/2013  08:22:00       45.675       -6.141       15.497       33.183       19.224       26.035     1101.123      369.561      677.800        0.226        0.107       46.086       13.854        0.090      341.536       16.317      861.224
09/10/2013  08:23:00       22.486      -16.879        5.791       24.808       32.026       21.841      615.441     1025.679      477.027        0.147        0.106       28.116       19.224        0.468      341.523       16.294      861.221
09/10/2013  08:24:00       23.041       -9.287        5.442       16.628       24.492       15.811      276.498      599.863      249.994        0.089        0.056       24.842        9.854        0.157      341.547       16.335      861.226
09/10/2013  08:25:00       54.759        6.581       11.458       19.038       26.904       17.124      362.429      723.825      293.246        0.228        0.069       55.153       10.688        0.038      341.709       16.610      861.236
09/10/2013  08:26:00       52.528       15.916       12.154       25.572       19.232       20.336      653.926      369.854      413.539        0.230        0.072       54.886        7.131        0.017      341.921       16.971      861.239
09/10/2013  08:27:00       70.284       47.384        7.594       24.166       25.051       30.333      584.013      627.574      920.104        0.469        0.107       84.765       20.272        0.057      341.902       16.937      861.239
09/10/2013  08:28:00       50.238       47.490       29.129       35.961       23.639       28.927     1293.202      558.781      836.767        0.416        0.134       69.131       18.515        0.072      342.097       17.268      861.241
09/10/2013  08:29:00       27.540       24.189       34.173       33.408       18.998       26.106     1116.063      360.926      681.518        0.233        0.108       36.655       18.374        0.251      342.120       17.308      861.247
09/10/2013  08:30:00       31.524       47.348       62.852       34.677       26.005       20.108     1202.465      676.277      404.328        0.473        0.114       56.882        5.662        0.010      341.974       17.059      861.253
09/10/2013  08:31:00       41.373       30.303       27.840       15.937       15.379       24.640      253.984      236.503      607.122        0.225        0.055       51.284       12.618        0.061      341.776       16.724      861.260
09/10/2013  08:32:00       41.918       18.481        5.077       38.222       38.189       22.627     1460.954     1458.366      511.973        0.278        0.172       45.812       18.416        0.162      341.944       17.008      861.262
09/10/2013  08:33:00       54.840       46.809        4.145       25.300       29.853       26.547      640.091      891.203      704.731        0.373        0.112       72.101       17.761        0.061      341.961       17.038      861.252
09/10/2013  08:34:00       36.394       31.659        7.554       26.875       20.126       22.159      722.275      405.044      491.027        0.200        0.081       48.237       13.339        0.076      342.050       17.189      861.255
09/10/2013  08:35:00       23.902       39.667        3.661       23.717       21.557       23.875      562.513      464.700      570.002        0.188        0.080       46.312       17.499        0.143      342.167       17.388      861.244
09/10/2013  08:36:00        4.110       49.659       -2.279       19.375       23.453       21.080      375.401      550.031      444.381        0.193        0.068       49.829       13.293        0.071      342.156       17.369      861.242
09/10/2013  08:37:00       42.154       47.564        6.775       30.930       23.656       21.816      956.683      559.628      475.957        0.304        0.100       63.556       13.234        0.043      342.135       17.334      861.232
09/10/2013  08:38:00       37.247       48.396        5.115       20.138       26.226       20.100      405.558      687.828      404.005        0.263        0.075       61.070       13.876        0.052      342.268       17.558      861.233
09/10/2013  08:39:00       18.371       25.426        7.465       25.925       15.889       15.457      672.106      252.449      238.930        0.110        0.058       31.369       12.630        0.162      342.469       17.901      861.235
09/10/2013  08:40:00        7.354       11.658       21.625       15.631       15.706       12.960      244.315      246.687      167.951        0.066        0.033       13.784        6.565        0.227      342.850       18.549      861.223
09/10/2013  08:41:00       -1.704       26.695       -4.391       31.431       19.244       18.489      987.882      370.327      341.847        0.122        0.085       26.750       17.911        0.448      342.156       17.369      861.222
09/10/2013  08:42:00       28.261       13.354       10.066       19.444       18.801       17.236      378.075      353.496      297.080        0.105        0.051       31.257       10.788        0.119      342.345       17.690      861.218
09/10/2013  08:43:00        4.951       18.669       28.563       22.017       20.076       28.545      484.742      403.060      814.802        0.145        0.085       19.315       16.830        0.759      342.475       17.912      861.202
09/10/2013  08:44:00        0.275       27.342       11.377       29.742       26.301       21.660      884.593      691.755      469.167        0.146        0.102       27.344       18.015        0.434      342.471       17.905      861.202
09/10/2013  08:45:00       24.604       17.397       -3.761       17.677       22.642       14.709      312.470      512.658      216.366        0.098        0.052       30.133       13.046        0.187      342.320       17.648      861.210
09/10/2013  08:46:00       20.144       39.204        9.915       24.110       17.171       18.182      581.315      294.849      330.582        0.162        0.060       44.076       10.805        0.060      342.440       17.852      861.219
09/10/2013  08:47:00        6.973       31.794        7.338       22.298       22.135       20.646      497.205      489.975      426.271        0.126        0.071       32.549        8.391        0.066      342.572       18.076      861.241
09/10/2013  08:48:00       43.763       15.237       -1.810       21.512       35.947       21.102      462.782     1292.207      445.314        0.218        0.110       46.340        7.625        0.027      342.274       17.568      861.262
09/10/2013  08:49:00        7.100       -2.446       33.860       18.282       26.279       19.371      334.217      690.593      375.229        0.130        0.070        7.510       15.322        4.163      342.733       18.349      861.272
09/10/2013  08:50:00       46.828       36.029       -3.244       30.221       40.424       28.874      913.326     1634.105      833.697        0.344        0.169       59.084       21.493        0.132      342.245       17.520      861.277
09/10/2013  08:51:00       40.883       26.580       -6.326       32.229       31.347       24.698     1038.718      982.609      609.984        0.252        0.132       48.764       16.235        0.111      342.568       18.069      861.281
09/10/2013  08:52:00        6.639        6.258       22.089       18.415       25.711       19.739      339.127      661.032      389.637        0.098        0.069        9.124       12.711        1.941      342.966       18.746      861.285
09/10/2013  08:53:00       -0.623       -7.779       22.173       25.241       23.450       17.995      637.118      549.885      323.822        0.103        0.076        7.803       13.517        3.000      343.192       19.130      861.277
09/10/2013  08:54:00       10.772       -5.193       28.603       26.093       33.604       29.164      680.862     1129.250      850.538        0.181        0.133       11.958       23.056        3.717      342.805       18.472      861.277
09/10/2013  08:55:00       22.428        8.610       33.594       30.188       30.242       28.200      911.304      914.584      795.266        0.216        0.131       24.024       26.284        1.197      342.662       18.229      861.278
09/10/2013  08:56:00       -3.138       12.541       44.330       22.519       22.320       16.432      507.107      498.162      270.022        0.170        0.064       12.928       14.960        1.339      343.456       19.582      861.278
09/10/2013  08:57:00       18.152        6.616       35.377       30.892       34.677       26.776      954.311     1202.529      716.957        0.225        0.144       19.320       23.712        1.506      342.808       18.477      861.284
09/10/2013  08:58:00       29.930        9.629       29.884       28.208       25.924       26.345      795.712      672.035      694.061        0.202        0.108       31.441       22.495        0.512      342.675       18.250      861.291
09/10/2013  08:59:00        6.585       -3.447       22.865       27.454       21.682       19.190      753.736      470.118      368.258        0.108        0.080        7.433       13.314        3.209      342.960       18.737      861.286
09/10/2013  09:00:00       19.096      -23.128       12.307       26.099       33.793       24.674      681.144     1141.952      608.820        0.174        0.122       29.992       24.627        0.674      342.744       18.367      861.285
09/10/2013  09:01:00        8.753       23.926       31.771       19.753       28.056       20.877      390.184      787.144      435.854        0.164        0.081       25.477       12.942        0.258      343.387       19.464      861.273
09/10/2013  09:02:00       31.894       16.423       22.112       34.436       25.861       19.333     1185.816      668.797      373.776        0.200        0.111       35.874       12.771        0.127      343.169       19.092      861.264
09/10/2013  09:03:00       22.846       32.964       10.999       28.308       25.856       28.324      801.357      668.527      802.241        0.200        0.114       40.107       19.248        0.230      343.138       19.040      861.260
09/10/2013  09:04:00       14.732        7.650       36.951       24.340       22.039       16.105      592.424      485.724      259.371        0.149        0.067       16.600        7.355        0.196      343.586       19.802      861.260
09/10/2013  09:05:00        3.547       22.236       19.406       29.063       31.296       16.120      844.660      979.413      259.850        0.148        0.104       22.517        8.688        0.149      343.006       18.814      861.264
09/10/2013  09:06:00        2.371      -10.051       -1.587       24.719       22.009       23.861      611.021      484.416      569.363        0.089        0.083       10.327       10.914        1.117      342.692       18.281      861.257
09/10/2013  09:07:00       13.411        2.380       20.114       25.870       26.047       23.275      669.269      678.453      541.719        0.124        0.094       13.621       11.085        0.662      343.044       18.880      861.258
09/10/2013  09:08:00        1.109       -5.274       16.750       11.043       15.219       15.148      121.950      231.604      229.468        0.045        0.029        5.390       13.372        6.156      343.553       19.747      861.257
09/10/2013  09:09:00       13.676       12.304       17.756       18.313       17.670       13.620      335.381      312.237      185.513        0.074        0.042       18.396       10.671        0.336      343.574       19.782      861.258
09/10/2013  09:10:00       31.921       34.573       22.889       62.665       31.310       30.811     3926.911      980.332      949.324        0.430        0.293       47.056       25.995        0.305      343.444       19.559      861.259
09/10/2013  09:11:00      106.546       49.792       12.259       45.701       38.120       26.858     2088.586     1453.108      721.352        0.912        0.213      117.606       24.644        0.044      343.127       19.020      861.253
09/10/2013  09:12:00       73.748       64.542       18.935       26.817       27.411       25.282      719.168      751.354      639.166        0.604        0.105       98.002       10.223        0.011      343.052       18.893      861.252
09/10/2013  09:13:00       62.104       32.937        5.369       26.788       23.828       23.511      717.603      567.785      552.752        0.340        0.092       70.297       13.014        0.034      343.070       18.923      861.244
09/10/2013  09:14:00       73.707       66.712        4.538       24.247       24.357       20.276      587.935      593.242      411.099        0.575        0.080       99.414        8.510        0.007      343.182       19.113      861.244
09/10/2013  09:15:00       64.296       53.603       17.109       25.277       22.032       31.343      638.948      485.427      982.356        0.470        0.105       83.709       15.791        0.036      343.360       19.417      861.238
09/10/2013  09:16:00       48.668       45.101        5.189       22.559       19.115       22.382      508.901      365.369      500.936        0.290        0.069       66.353       13.316        0.040      343.292       19.300      861.238
09/10/2013  09:17:00       11.225       12.920       12.572       25.574       18.032       20.747      654.028      325.155      430.420        0.093        0.070       17.115       11.809        0.476      343.655       19.921      861.229
09/10/2013  09:18:00       32.514       34.388       19.538       35.901       34.756       20.600     1288.864     1207.982      424.376        0.277        0.146       47.325       17.656        0.139      343.762       20.104      861.211
09/10/2013  09:19:00       79.343       58.442        6.111       38.263       30.677       22.955     1464.023      941.089      526.928        0.634        0.147       98.543        6.468        0.004      343.254       19.236      861.201
09/10/2013  09:20:00       77.059       81.571        6.520       28.446       23.380       26.610      809.151      546.635      708.108        0.735        0.103      112.214       13.321        0.014      343.385       19.459      861.198
09/10/2013  09:21:00       38.019       38.940       24.650       32.176       36.558       28.400     1035.267     1336.453      806.566        0.337        0.159       54.422       16.206        0.089      343.795       20.158      861.195
09/10/2013  09:22:00       29.371       16.711        2.625       26.085       20.162       21.678      680.412      406.516      469.922        0.135        0.078       33.792       14.351        0.180      343.475       19.613      861.206
09/10/2013  09:23:00        6.237        1.508       20.367       12.579       22.755       17.025      158.233      517.779      289.841        0.071        0.048        6.416       14.374        5.019      343.966       20.452      861.213
09/10/2013  09:24:00       22.351      -34.530       -1.206       27.364       34.756       26.606      748.784     1207.961      707.882        0.218        0.133       41.133       24.338        0.350      343.247       19.227      861.208
09/10/2013  09:25:00       35.697        2.667       16.949       23.613       16.529       21.274      557.567      273.192      452.586        0.143        0.064       35.796       15.938        0.198      343.376       19.445      861.211
09/10/2013  09:26:00       19.323      -17.104        9.245       18.124       18.635       23.640      328.481      347.271      558.855        0.099        0.062       25.806        8.355        0.105      343.406       19.495      861.214
09/10/2013  09:27:00        8.210       -9.747       -8.335       19.467       22.767       15.619      378.945      518.331      243.961        0.069        0.057       12.744        8.514        0.446      343.556       19.750      861.209
09/10/2013  09:28:00       29.791      -11.613       14.167       23.892       20.025       21.368      570.823      401.019      456.607        0.133        0.071       31.974       14.177        0.197      343.867       20.282      861.210
09/10/2013  09:29:00        7.985       12.639       20.739       24.871       28.881       16.414      618.556      834.109      269.428        0.119        0.086       14.950        9.965        0.444      343.896       20.331      861.206
09/10/2013  09:30:00        5.675        0.978       15.046       36.028       32.315       28.857     1298.002     1044.288      832.740        0.172        0.159        5.759       15.444        7.193      343.676       19.957      861.194
09/10/2013  09:31:00        4.901      -12.860       17.322       37.236       33.452       25.640     1386.555     1119.043      657.399        0.183        0.158       13.762       24.533        3.178      343.829       20.217      861.195
09/10/2013  09:32:00      -11.495      -43.035        6.837       40.332       35.764       25.323     1626.634     1279.084      641.235        0.279        0.177       44.544       19.760        0.197      343.804       20.176      861.195
09/10/2013  09:33:00      -54.557      -37.488        6.694       47.559       37.251       23.608     2261.853     1387.623      557.330        0.432        0.210       66.195       19.455        0.086      343.679       19.960      861.188
09/10/2013  09:34:00      -15.971      -11.072        9.556       31.267       19.380       17.838      977.628      375.587      318.193        0.107        0.084       19.434       12.842        0.437      343.761       20.101      861.186
09/10/2013  09:35:00      -14.067       -8.830       11.877       30.053       19.145       14.623      903.208      366.518      213.834        0.095        0.074       16.609       10.323        0.386      343.967       20.453      861.186
09/10/2013  09:36:00       14.199        9.592       16.818       30.922       29.174       21.569      956.161      851.136      465.238        0.142        0.114       17.135       16.057        0.878      344.095       20.670      861.200
09/10/2013  09:37:00        1.986        5.896        7.052       18.777       12.003       21.550      352.574      144.066      464.391        0.052        0.048        6.221       11.510        3.423      344.400       21.194      861.203
09/10/2013  09:38:00       13.675       -2.756       20.838       28.491       35.605       21.515      811.747     1267.689      462.894        0.159        0.127       13.950       14.694        1.110      344.246       20.930      861.214
09/10/2013  09:39:00       -3.243      -28.622      -10.352       30.176       32.598       19.823      910.617     1062.607      392.969        0.165        0.118       28.805       11.194        0.151      343.665       19.937      861.217
09/10/2013  09:40:00       23.575      -17.976       15.702       33.316       26.268       23.899     1109.938      689.983      571.161        0.175        0.119       29.646       25.521        0.741      344.082       20.652      861.217
09/10/2013  09:41:00       21.537        7.474       32.806       24.303       31.480       23.251      590.639      990.986      540.617        0.186        0.106       22.797       19.423        0.726      344.105       20.688      861.224
09/10/2013  09:42:00       25.466       19.381       27.257       27.922       19.725       23.970      779.646      389.056      574.566        0.175        0.087       32.002        6.829        0.046      343.765       20.107      861.222
09/10/2013  09:43:00       21.630        9.708        6.120       18.263       17.106       16.205      333.533      292.617      262.597        0.074        0.044       23.708       11.558        0.238      344.067       20.624      861.215
09/10/2013  09:44:00       15.996       19.826       17.822       26.160       23.690       19.969      684.320      561.199      398.745        0.131        0.082       25.474       14.531        0.325      344.528       21.411      861.204
09/10/2013  09:45:00       -6.549       73.262       -0.111       23.896       49.440       27.804      571.001     2444.294      773.087        0.460        0.189       73.554       27.346        0.138      344.601       21.536      861.190
09/10/2013  09:46:00       28.605       45.856        9.246       37.934       33.009       27.403     1439.010     1089.598      750.911        0.314        0.164       54.046       21.857        0.164      344.788       21.857      861.192
09/10/2013  09:47:00       28.635        3.316       11.091       43.344       41.994       31.036     1878.664     1763.537      963.245        0.278        0.230       28.827       21.064        0.534      344.532       21.417      861.180
09/10/2013  09:48:00       48.029        3.779       30.495       46.954       47.761       37.433     2204.645     2281.144     1401.243        0.457        0.294       48.177       34.332        0.508      344.380       21.159      861.179
09/10/2013  09:49:00       65.028       65.951       -0.045       26.560       38.945       33.994      705.409     1516.717     1155.602        0.598        0.169       92.618       18.125        0.038      344.175       20.807      861.180
09/10/2013  09:50:00       68.982       41.375       16.957       33.417       23.505       26.158     1116.681      552.502      684.229        0.456        0.118       80.438       15.415        0.037      344.474       21.319      861.180
09/10/2013  09:51:00       34.176       33.780       14.719       47.103       31.117       21.981     2218.678      968.290      483.183        0.310        0.184       48.053       16.605        0.119      344.695       21.697      861.187
09/10/2013  09:52:00        9.152       40.518       20.852       40.273       36.868       26.823     1621.951     1359.253      719.469        0.293        0.185       41.539       23.894        0.331      344.785       21.852      861.191
09/10/2013  09:53:00       61.509       16.226        6.431       33.976       47.121       21.328     1154.365     2220.344      454.903        0.396        0.191       63.613       15.814        0.062      344.624       21.576      861.185
09/10/2013  09:54:00       53.809       49.505       18.818       26.755       30.432       30.818      715.827      926.079      949.734        0.415        0.130       73.118       20.098        0.076      344.845       21.954      861.188
09/10/2013  09:55:00       12.835       27.778        7.486       39.763       40.643       25.931     1581.133     1651.860      672.411        0.245        0.195       30.600       22.099        0.522      344.990       22.203      861.185
09/10/2013  09:56:00       50.949       61.393        4.763       40.044       33.369       33.986     1603.515     1113.474     1155.030        0.513        0.194       79.781       25.133        0.099      344.805       21.885      861.176
09/10/2013  09:57:00       51.629       50.465        4.551       25.261       28.737       26.111      638.096      825.823      681.771        0.369        0.107       72.196       17.085        0.056      344.661       21.638      861.185
09/10/2013  09:58:00       57.706      -12.054       -0.695       31.054       37.439       27.968      964.351     1401.673      782.234        0.331        0.157       58.952       16.434        0.078      344.069       20.626      861.186
09/10/2013  09:59:00       56.359       32.902       14.707       34.773       21.777       30.193     1209.173      474.224      911.593        0.353        0.130       65.260       25.373        0.151      344.568       21.480      861.179
09/10/2013  10:00:00       46.081       38.342        6.812       21.571       30.306       24.424      465.317      918.484      596.515        0.281        0.099       59.947       15.271        0.065      344.563       21.471      861.176
09/10/2013  10:01:00       30.007       49.653       -5.751       30.171       37.657       22.897      910.279     1418.024      524.263        0.313        0.143       58.016       17.200        0.088      344.716       21.732      861.172
09/10/2013  10:02:00       54.609       27.284       19.552       32.728       26.398       26.887     1071.136      696.830      722.922        0.330        0.125       61.046       19.070        0.098      344.664       21.644      861.162
09/10/2013  10:03:00        8.522       11.073       36.086       30.946       23.994       21.081      957.680      575.720      444.419        0.174        0.099       13.972       21.335        2.332      345.357       22.831      861.166
09/10/2013  10:04:00       39.410      -37.018       10.141       27.563       32.269       26.435      759.708     1041.289      698.798        0.276        0.125       54.069       14.647        0.073      344.293       21.009      861.159
09/10/2013  10:05:00       46.246      -21.920       16.675       48.749       55.185       32.641     2376.428     3045.377     1065.458        0.469        0.324       51.178       25.967        0.257      344.582       21.504      861.152
09/10/2013  10:06:00       29.472       20.537        7.251       43.594       36.372       27.585     1900.441     1322.946      760.934        0.266        0.199       35.922       19.301        0.289      344.956       22.142      861.145
09/10/2013  10:07:00       21.379       30.970       29.344       26.254       32.939       16.127      689.299     1084.947      260.083        0.216        0.102       37.632       10.161        0.073      345.110       22.408      861.137
09/10/2013  10:08:00       88.407       43.448       12.063       45.783       35.547       40.445     2096.044     1263.603     1635.825        0.742        0.250       98.507       17.957        0.033      344.852       21.965      861.126
09/10/2013  10:09:00       49.636       44.281       20.629       28.834       28.078       29.455      831.421      788.384      867.587        0.367        0.124       66.517       18.718        0.079      344.874       22.003      861.109
09/10/2013  10:10:00       83.657       61.012        4.538       35.614       37.213       30.138     1268.345     1384.811      908.270        0.715        0.178      103.542       15.188        0.022      344.966       22.160      861.097
09/10/2013  10:11:00       56.143        1.428        9.075       43.810       54.364       30.321     1919.340     2955.497      919.352        0.451        0.290       56.161       17.197        0.094      344.636       21.596      861.085
09/10/2013  10:12:00       17.636        0.428       13.983       15.606       16.286       21.520      243.551      265.220      463.129        0.074        0.049       17.641        8.898        0.254      345.270       22.682      861.071
09/10/2013  10:13:00      119.810       72.720       10.243       62.065       40.320       36.754     3852.076     1625.715     1350.867        1.329        0.341      140.152       23.268        0.028      344.888       22.025      861.063
09/10/2013  10:14:00       99.865       68.530        6.232       53.746       35.943       31.773     2888.686     1291.888     1009.543        0.995        0.260      121.117       26.309        0.047      344.991       22.204      861.047
09/10/2013  10:15:00       35.955       71.371        3.126       41.451       44.661       31.724     1718.222     1994.584     1006.426        0.556        0.236       79.916       26.813        0.113      345.323       22.771      861.042
09/10/2013  10:16:00       44.450       60.233       -0.742       30.186       33.468       31.850      911.189     1120.114     1014.398        0.432        0.152       74.859       21.817        0.085      345.362       22.838      861.038
09/10/2013  10:17:00        9.176      -34.897        2.015       44.165       35.343       26.750     1950.567     1249.136      715.583        0.261        0.196       36.083       13.228        0.134      344.814       21.902      861.031
09/10/2013  10:18:00       46.962      -32.874        5.182       31.173       36.535       32.442      971.776     1334.787     1052.468        0.334        0.168       57.325       26.707        0.217      344.479       21.327      861.027
09/10/2013  10:19:00       73.597       21.884       29.791       29.556       35.695       33.977      873.531     1274.138     1154.421        0.504        0.165       76.782       20.719        0.073      345.132       22.444      861.019
09/10/2013  10:20:00       51.846       -7.083        6.532       49.523       57.827       32.918     2452.563     3343.905     1083.622        0.483        0.344       52.328       24.701        0.223      344.995       22.210      861.014
09/10/2013  10:21:00       27.613      -24.273        9.168       32.276       45.192       33.293     1041.769     2042.304     1108.400        0.281        0.210       36.765       31.180        0.719      344.894       22.037      860.998
09/10/2013  10:22:00       84.332       47.554       21.796       46.414       33.441       35.626     2154.252     1118.316     1269.211        0.719        0.227       96.816       27.861        0.083      345.176       22.521      860.983
09/10/2013  10:23:00       30.189       45.857       23.840       47.428       33.607       38.369     2249.451     1129.454     1472.182        0.422        0.243       54.902       28.328        0.266      345.413       22.927      860.971
09/10/2013  10:24:00       39.158       23.456       23.791       49.013       29.235       23.601     2402.256      854.694      557.000        0.323        0.191       45.646       27.441        0.361      345.613       23.270      860.962
09/10/2013  10:25:00       17.544       24.950       37.181       40.076       37.001       34.932     1606.122     1369.109     1220.218        0.325        0.210       30.500       33.771        1.226      345.472       23.026      860.948
09/10/2013  10:26:00       33.194       25.743       47.271       43.219       42.403       30.748     1867.901     1798.026      945.437        0.430        0.231       42.006       31.070        0.547      345.331       22.786      860.938
09/10/2013  10:27:00       92.665       69.729       32.640       45.894       30.562       42.326     2106.233      934.041     1791.518        0.967        0.242      115.970       22.854        0.039      345.224       22.604      860.921
09/10/2013  10:28:00       89.817       64.658       -6.430       46.939       26.345       20.764     2203.271      694.057      431.141        0.781        0.166      110.669       14.974        0.018      345.029       22.270      860.923
09/10/2013  10:29:00       43.279      -30.548      -14.254       27.420       29.206       20.277      751.841      853.016      411.147        0.251        0.101       52.974       13.738        0.067      345.006       22.228      860.910
09/10/2013  10:30:00      -23.344      -20.471       -9.218       17.454       21.277       21.033      304.634      452.718      442.367        0.112        0.060       31.048       19.271        0.385      345.265       22.671      860.882
09/10/2013  10:31:00      -21.632       17.344       30.228       22.618       26.163       31.785      511.582      684.511     1010.263        0.194        0.110       27.726       22.290        0.646      345.882       23.731      860.867
09/10/2013  10:32:00       46.260       62.685       47.263       43.067       35.644       32.450     1854.773     1270.511     1053.016        0.624        0.209       77.906       13.166        0.029      345.861       23.695      860.857
09/10/2013  10:33:00       28.619       40.818       10.927       39.685       48.776       37.771     1574.870     2379.104     1426.625        0.399        0.269       49.852       34.305        0.474      346.169       24.223      860.838
09/10/2013  10:34:00       -1.402       28.143       -4.715       23.733       37.368       35.484      563.247     1396.352     1259.091        0.202        0.161       28.178       30.754        1.191      346.043       24.007      860.822
09/10/2013  10:35:00        6.235        0.857        9.544       38.253       52.746       26.992     1463.262     2782.110      728.578        0.255        0.249        6.294       23.164       13.547      346.054       24.026      860.814
09/10/2013  10:36:00       29.168      138.674      -11.190       40.993       51.899       37.189     1680.397     2693.512     1383.058        1.298        0.288      141.709       30.794        0.047      345.804       23.597      860.821
09/10/2013  10:37:00       18.754       28.064       21.827       34.156       41.421       24.173     1166.621     1715.673      584.356        0.254        0.173       33.754       23.818        0.498      346.164       24.214      860.817
09/10/2013  10:38:00      -20.896       22.515       17.736       25.235       19.485       16.212      636.830      379.659      262.836        0.127        0.064       30.718        8.889        0.084      345.967       23.876      860.804
09/10/2013  10:39:00       -7.258       31.006       20.560       24.766       26.872       24.224      613.356      722.083      586.788        0.168        0.096       31.844       17.734        0.310      346.300       24.449      860.800
09/10/2013  10:40:00      -16.786       28.332      -15.860       20.359       19.914       21.427      414.505      396.565      459.138        0.130        0.064       32.931       13.990        0.180      345.836       23.653      860.800
09/10/2013  10:41:00       33.969       22.743       31.579       42.481       26.220       20.644     1804.600      687.503      426.182        0.279        0.146       40.879       18.556        0.206      346.692       25.124      860.808
09/10/2013  10:42:00      -10.470        5.902       46.454       14.876       28.966       26.387      221.286      839.016      696.296        0.203        0.088       12.019       21.648        3.244      346.766       25.250      860.805
09/10/2013  10:43:00      -11.161      -69.997       37.202       49.692       43.761       45.095     2469.291     1915.036     2033.539        0.641        0.321       70.881       15.546        0.048      346.171       24.226      860.806
09/10/2013  10:44:00       38.980     -101.374        1.793       38.912       51.783       31.823     1514.113     2681.475     1012.710        0.850        0.260      108.610       23.400        0.046      345.999       23.931      860.801
09/10/2013  10:45:00       17.322       23.093       29.273       27.306       34.498       27.204      745.617     1190.139      740.072        0.218        0.134       28.868       19.398        0.452      347.049       25.738      860.809
09/10/2013  10:46:00       96.848       66.575       18.749       92.171       63.066       44.657     8495.459     3977.285     1994.279        1.431        0.723      117.523       30.744        0.068      346.282       24.415      860.798
09/10/2013  10:47:00      147.757      126.694       31.313      105.070       59.713       53.134    11039.601     3565.636     2823.248        2.814        0.871      194.636       37.922        0.038      346.014       23.956      860.797
09/10/2013  10:48:00       93.209       80.921        5.551       64.998       44.843       35.052     4224.796     2010.907     1228.648        1.136        0.373      123.435       22.721        0.034      345.948       23.845      860.798
09/10/2013  10:49:00       71.588      107.684        0.520       78.370       79.329       66.097     6141.904     6293.070     4368.770        1.676        0.840      129.308       49.811        0.148      346.195       24.266      860.794
09/10/2013  10:50:00       77.566       77.439       19.586       77.023       55.721       51.543     5932.564     3104.830     2656.712        1.204        0.585      109.605       27.483        0.063      346.010       23.948      860.805
09/10/2013  10:51:00      151.806      117.302        9.907       70.231       58.301       47.349     4932.450     3398.959     2241.886        2.374        0.529      191.846       25.165        0.017      345.820       23.623      860.802
09/10/2013  10:52:00      122.901      102.584       10.725       57.858       39.728       42.584     3347.544     1578.294     1813.393        1.624        0.337      160.088       32.231        0.041      345.809       23.605      860.803
09/10/2013  10:53:00       38.579       56.637       21.947       57.700       56.740       49.816     3329.247     3219.379     2481.632        0.710        0.452       68.529       34.260        0.250      346.302       24.452      860.787
09/10/2013  10:54:00      117.520       52.375       13.171       72.355       62.870       36.700     5235.205     3952.662     1346.921        1.363        0.527      128.662       24.817        0.037      346.177       24.236      860.789
09/10/2013  10:55:00       55.836       58.379       11.906       66.454       45.331       40.156     4416.184     2054.915     1612.544        0.737        0.404       80.782       32.295        0.160      346.271       24.399      860.778
09/10/2013  10:56:00       65.420       48.243       11.075       41.543       33.590       32.433     1725.813     1128.256     1051.913        0.532        0.195       81.285       19.650        0.058      346.252       24.365      860.785
09/10/2013  10:57:00       98.502      115.501       12.072       54.820       51.745       46.045     3005.180     2677.550     2120.136        1.549        0.390      151.799       37.239        0.060      346.003       23.938      860.784
09/10/2013  10:58:00       17.414       73.421       -4.956       35.455       57.657       33.864     1257.025     3324.377     1146.797        0.572        0.286       75.458       36.509        0.234      346.393       24.608      860.770
09/10/2013  10:59:00      131.779       64.621       13.627       47.127       44.061       28.998     2220.967     1941.414      840.912        1.336        0.250      146.771       11.229        0.006      345.955       23.857      860.771
09/10/2013  11:00:00       59.154       38.516       22.541       30.374       33.791       30.604      922.593     1141.849      936.598        0.425        0.150       70.588       14.557        0.043      346.084       24.078      860.756
09/10/2013  11:01:00       66.984       86.762        5.030       60.465       74.685       42.015     3656.018     5577.846     1765.298        1.152        0.550      109.611       38.196        0.121      346.421       24.656      860.743
09/10/2013  11:02:00       48.057       74.026        4.962       56.885       50.944       53.271     3235.918     2595.268     2837.828        0.824        0.433       88.257       36.744        0.173      346.495       24.783      860.731
09/10/2013  11:03:00       98.297      136.825        5.838       66.162       72.809       49.222     4377.348     5301.089     2422.850        2.026        0.605      168.473       46.481        0.076      346.251       24.363      860.728
09/10/2013  11:04:00       51.903      149.506       -6.332       58.088       79.219       58.886     3374.257     6275.605     3467.564        1.910        0.656      158.259       58.532        0.137      346.319       24.479      860.730
09/10/2013  11:05:00       51.027       64.577       12.166       67.208       48.901       42.951     4516.966     2391.292     1844.763        0.784        0.438       82.304       24.628        0.090      346.459       24.721      860.717
09/10/2013  11:06:00       26.964       63.737        9.025       28.457       28.729       30.211      809.773      825.346      912.722        0.371        0.127       69.206       18.540        0.072      346.478       24.755      860.714
09/10/2013  11:07:00       57.798       88.587        3.426       67.519       50.523       44.771     4558.766     2552.575     2004.412        1.016        0.456      105.774       34.879        0.109      346.503       24.797      860.696
09/10/2013  11:08:00       99.130       73.862       15.095       50.482       32.572       36.720     2548.459     1060.913     1348.342        1.023        0.248      123.622       24.595        0.040      346.523       24.831      860.691
09/10/2013  11:09:00       58.568      156.153       -8.865       52.206      100.402       54.258     2725.426    10080.639     2943.935        2.182        0.787      166.775       62.091        0.139      346.538       24.855      860.669
09/10/2013  11:10:00       87.385      119.100        2.180       62.890       66.382       58.253     3955.108     4406.613     3393.393        1.679        0.588      147.719       45.664        0.096      346.444       24.696      860.669
09/10/2013  11:11:00       49.999       56.635        6.440       54.221       56.322       31.543     2939.873     3172.156      994.988        0.643        0.355       75.548       34.907        0.213      346.843       25.382      860.646
09/10/2013  11:12:00       40.801      105.770       -6.239       57.516       52.743       39.699     3308.082     2781.808     1576.023        1.028        0.383      113.366       30.870        0.074      346.892       25.468      860.638
09/10/2013  11:13:00      108.777       78.964       15.008       63.420       46.243       39.166     4022.079     2138.395     1533.978        1.299        0.385      134.416       31.205        0.054      346.576       24.922      860.627
09/10/2013  11:14:00       98.255       66.197       28.847       63.058       44.679       48.102     3976.318     1996.223     2313.836        1.158        0.414      118.474       27.094        0.052      346.771       25.258      860.614
09/10/2013  11:15:00       55.179       54.519       37.562       53.149       40.785       38.431     2824.763     1663.401     1476.971        0.670        0.298       77.570       10.458        0.018      346.939       25.547      860.611
09/10/2013  11:16:00       40.843       -0.709       37.068       48.316       64.373       37.421     2334.468     4143.831     1400.327        0.546        0.394       40.849       42.490        1.082      347.209       26.012      860.590
09/10/2013  11:17:00       41.396       47.543       68.747       58.687       95.978       75.037     3444.169     9211.832     5630.527        1.349        0.914       63.040       76.862        1.487      346.604       24.971      860.579
09/10/2013  11:18:00       80.341       65.629       78.722       61.749       63.098       52.413     3812.917     3981.309     2747.131        1.375        0.527      103.740       47.474        0.209      346.354       24.541      860.567
09/10/2013  11:19:00       73.761       94.860       63.304       60.281       60.643       62.195     3633.823     3677.608     3868.174        1.481        0.559      120.163       42.095        0.123      346.663       25.073      860.554
09/10/2013  11:20:00       98.368       24.684       18.230       65.582       81.417       41.817     4301.019     6628.672     1748.661        1.165        0.634      101.418       39.337        0.150      346.285       24.421      860.552
09/10/2013  11:21:00       15.075       31.865       64.559       38.069       68.144       39.118     1449.287     4643.573     1530.224        0.652        0.381       35.251       44.117        1.566      346.574       24.919      860.549
09/10/2013  11:22:00       63.756      -76.728        2.757       64.643       68.152       40.477     4178.668     4644.729     1638.411        1.021        0.523       99.760       46.409        0.216      346.213       24.298      860.522
09/10/2013  11:23:00       41.830       40.475       27.310       54.501       47.855       31.076     2970.371     2290.077      965.706        0.518        0.311       58.206        9.310        0.026      346.696       25.130      860.508
09/10/2013  11:24:00      155.229       81.011       55.864       92.059       63.154       56.533     8474.838     3988.404     3195.940        2.472        0.783      175.097       50.929        0.085      346.667       25.078      860.499
09/10/2013  11:25:00      193.112      100.286       14.822       72.585       60.122       49.830     5268.540     3614.649     2483.070        2.947        0.568      217.600       16.556        0.006      346.320       24.479      860.511
09/10/2013  11:26:00       77.806       64.903       11.631       67.584       61.401       44.475     4567.613     3770.083     1978.053        1.036        0.516      101.322       30.761        0.092      346.727       25.182      860.509
09/10/2013  11:27:00       26.962       21.654       39.059       29.129       40.881       34.793      848.487     1671.251     1210.531        0.323        0.187       34.581       14.158        0.168      346.893       25.468      860.510
09/10/2013  11:28:00      101.035       -7.839       56.047       64.950       85.563       52.744     4218.528     7321.074     2781.921        1.386        0.716      101.339       47.803        0.223      346.780       25.272      860.506
09/10/2013  11:29:00       28.503       26.878       46.361       57.376       78.323       40.546     3291.998     6134.432     1643.986        0.738        0.554       39.178       39.566        1.020      346.667       25.079      860.495
09/10/2013  11:30:00       44.354      -97.413        7.301       47.249       69.482       46.146     2232.479     4827.712     2129.464        1.035        0.459      107.036       36.512        0.116      346.917       25.510      860.498
09/10/2013  11:31:00       55.220       13.803       74.687       68.860      124.626       71.977     4741.638    15531.529     5180.669        1.713        1.273       56.919       92.148        2.621      346.875       25.436      860.480
09/10/2013  11:32:00       87.012      114.118      109.420       77.760       57.340       46.509     6046.575     3287.923     2163.081        2.203        0.575      143.506       49.246        0.118      346.567       24.906      860.484
09/10/2013  11:33:00       58.922       54.418       34.207       40.647       36.242       44.926     1652.144     1313.492     2018.311        0.629        0.249       80.207       22.978        0.082      346.812       25.329      860.482
09/10/2013  11:34:00        5.844       81.948       -2.499       57.488       69.804       34.077     3304.832     4872.619     1161.274        0.805        0.467       82.156       26.426        0.103      346.882       25.447      860.463
09/10/2013  11:35:00      151.303       94.745       33.492       99.510       78.454       56.479     9902.302     6155.101     3189.928        2.612        0.962      178.520       30.961        0.030      346.994       25.641      860.468
09/10/2013  11:36:00      254.316      135.579       41.394       99.161       82.850       60.477     9832.818     6864.103     3657.479        5.256        1.018      288.198       36.329        0.016      346.637       25.022      860.439
09/10/2013  11:37:00       89.155       81.966       33.978       78.620       47.631       47.884     6181.137     2268.708     2292.849        1.328        0.537      121.108       19.452        0.026      346.815       25.333      860.428
09/10/2013  11:38:00      169.129       77.980      113.105      113.202      137.142       91.159    12814.771    18807.792     8309.979        4.370        1.997      186.240       88.071        0.224      346.791       25.290      860.394
09/10/2013  11:39:00      115.678      186.700      197.658       94.660      103.401       66.668     8960.497    10691.857     4444.638        5.570        1.205      219.632       71.703        0.107      346.460       24.719      860.397
09/10/2013  11:40:00      110.209       78.145       58.357       92.720       66.380       50.313     8597.017     4406.333     2531.403        1.859        0.777      135.102       32.621        0.058      346.849       25.391      860.389
09/10/2013  11:41:00       -3.025        5.536       31.499       51.070       34.328       26.038     2608.096     1178.411      677.971        0.275        0.223        6.308       15.269        5.859      347.524       26.555      860.379
09/10/2013  11:42:00       58.772       66.170       -1.245       51.891       38.764       32.303     2692.692     1502.672     1043.486        0.654        0.262       88.502       27.342        0.095      346.988       25.632      860.365
09/10/2013  11:43:00       45.685      115.970      -17.887       51.318       76.571       32.254     2633.514     5863.142     1040.314        1.269        0.477      124.644       29.945        0.058      346.897       25.474      860.349
09/10/2013  11:44:00       57.278       58.934       16.065       59.695       46.917       35.136     3563.536     2201.218     1234.534        0.700        0.350       82.183       28.997        0.124      347.211       26.017      860.341
09/10/2013  11:45:00      167.589       84.640       43.186       97.815       69.580       51.678     9567.720     4841.429     2670.657        2.709        0.854      187.750       48.875        0.068      347.150       25.909      860.354
09/10/2013  11:46:00      112.758       62.245        9.359       96.616       70.809       48.739     9334.744     5013.972     2375.441        1.670        0.836      128.798       39.938        0.096      347.036       25.713      860.341
09/10/2013  11:47:00      128.616       86.738       79.303       97.930       71.554       66.737     9590.303     5119.938     4453.829        2.476        0.958      155.131       45.519        0.086      347.015       25.677      860.339
09/10/2013  11:48:00       58.710       54.967       27.606       46.123       27.442       33.966     2127.340      753.075     1153.659        0.563        0.202       80.425       15.492        0.037      347.060       25.755      860.344
09/10/2013  11:49:00       14.030      -40.661       24.226       51.586       92.485       39.259     2661.102     8553.402     1541.276        0.759        0.638       43.013       26.595        0.382      347.105       25.834      860.318
09/10/2013  11:50:00       48.112      -21.826        0.958       57.904       61.766       37.694     3352.870     3815.080     1420.836        0.569        0.429       52.832       20.499        0.151      346.998       25.650      860.305
09/10/2013  11:51:00       82.070       24.992       60.685       81.867       59.302       52.399     6702.177     3516.762     2745.664        1.200        0.648       85.791       37.268        0.189      347.094       25.816      860.305
09/10/2013  11:52:00       37.055       44.392       71.961       47.637       41.551       31.416     2269.245     1726.512      986.960        0.675        0.249       57.825       23.422        0.164      347.073       25.778      860.300
09/10/2013  11:53:00       81.927       58.886       72.598       70.839       76.923       53.005     5018.094     5917.191     2809.485        1.459        0.687      100.894       52.010        0.266      347.000       25.651      860.291
09/10/2013  11:54:00       64.971       60.932       15.343       37.708       24.686       30.267     1421.903      609.411      916.105        0.556        0.147       89.073        9.014        0.010      346.669       25.082      860.293
09/10/2013  11:55:00       28.485       26.759       12.514       34.180       54.109       26.256     1168.264     2927.744      689.371        0.323        0.239       39.083       18.650        0.228      346.650       25.049      860.277
09/10/2013  11:56:00      -55.131      -41.536        4.978       37.044       38.567       25.874     1372.230     1487.407      669.453        0.416        0.176       69.026       17.293        0.063      346.640       25.034      860.244
09/10/2013  11:57:00       -0.566       27.149       40.425       22.019       29.255       14.417      484.838      855.836      207.843        0.196        0.077       27.155       11.067        0.166      347.447       26.424      860.228
09/10/2013  11:58:00       22.881       29.708       32.049       32.893       37.632       22.913     1081.923     1416.134      524.983        0.273        0.151       37.498       15.181        0.164      347.420       26.378      860.213
09/10/2013  11:59:00        9.198       24.047       21.590       25.033       21.412       16.673      626.637      458.489      278.004        0.125        0.068       25.747       12.468        0.234      347.641       26.758      860.203
09/10/2013  12:00:00       -9.268      -17.869       23.535       25.351       25.865       19.639      642.662      668.997      385.700        0.133        0.085       20.130       16.622        0.682      347.996       27.371      860.191
09/10/2013  12:01:00       12.946       -5.024        6.728       58.545       41.643       44.809     3427.564     1734.130     2007.886        0.370        0.358       13.886       27.373        3.886      347.375       26.299      860.162
09/10/2013  12:02:00       84.883       88.118       10.261       45.837       54.851       40.633     2101.020     3008.630     1651.072        1.092        0.338      122.351       34.308        0.079      347.217       26.026      860.181
09/10/2013  12:03:00       -4.446       85.612       55.308       48.403       72.324       71.997     2342.865     5230.715     5183.526        1.158        0.638       85.727       25.408        0.088      347.515       26.542      860.167
09/10/2013  12:04:00       11.305       34.183       38.820       51.768       48.360       33.870     2679.917     2338.702     1147.157        0.448        0.308       36.004       22.519        0.391      347.893       27.194      860.173
09/10/2013  12:05:00       29.166       44.829       55.567       43.594       40.347       36.782     1900.476     1627.870     1352.917        0.541        0.244       53.482       25.881        0.234      347.357       26.269      860.182
09/10/2013  12:06:00       73.630       77.285        3.687       73.791       43.287       43.460     5445.078     1873.769     1888.733        1.031        0.460      106.744       41.246        0.149      347.250       26.083      860.171
09/10/2013  12:07:00      157.741      109.356       10.382       64.214       45.139       45.845     4123.455     2037.548     2101.774        2.260        0.413      191.940       32.007        0.028      347.234       26.054      860.183
09/10/2013  12:08:00      133.793       54.029       44.563       95.627       83.475       47.709     9144.470     6968.029     2276.158        2.059        0.919      144.290       33.335        0.053      347.360       26.272      860.173
09/10/2013  12:09:00      102.302       55.879       49.256       99.121      110.373       49.202     9824.930    12182.170     2420.800        2.022        1.221      116.569       50.220        0.186      347.301       26.172      860.164
09/10/2013  12:10:00       68.977      -63.797       40.985       73.254       89.563       55.491     5366.107     8021.457     3079.220        1.348        0.823       93.957       61.669        0.431      347.522       26.552      860.169
09/10/2013  12:11:00       20.732      -15.926       26.067       34.429       55.903       40.580     1185.362     3125.190     1646.777        0.366        0.298       26.143       42.437        2.635      347.561       26.621      860.172
09/10/2013  12:12:00        8.534      -10.415       29.080       31.877       76.207       38.330     1016.113     5807.550     1469.205        0.466        0.415       13.465       47.375       12.378      347.645       26.763      860.149
09/10/2013  12:13:00       33.012     -205.430      -22.154       56.301       54.346       46.316     3169.763     2953.504     2145.170        2.602        0.413      208.065       19.605        0.009      347.041       25.720      860.139
09/10/2013  12:14:00       56.356     -181.455      -34.581       55.072       53.291       23.259     3032.951     2839.901      540.990        2.185        0.321      190.005       16.190        0.007      347.050       25.737      860.135
09/10/2013  12:15:00       15.392      -58.258       -5.022       36.611       57.072       38.911     1340.391     3257.228     1514.052        0.488        0.306       60.257       22.085        0.134      347.603       26.691      860.130
09/10/2013  12:16:00        4.373      -31.068       12.311       48.286       40.738       33.693     2331.521     1659.551     1135.249        0.313        0.256       31.374       19.753        0.396      347.666       26.801      860.104
09/10/2013  12:17:00      -28.910        3.188       27.847       39.088       30.027       25.538     1527.868      901.611      652.169        0.235        0.154       29.085       26.826        0.851      347.684       26.832      860.108
09/10/2013  12:18:00      -12.199      -13.877       12.977       31.969       15.046       19.861     1022.013      226.374      394.472        0.108        0.082       18.476       22.164        1.439      347.895       27.195      860.094
09/10/2013  12:19:00      -17.350       24.612        9.134       34.636       25.366       23.598     1199.674      643.433      556.857        0.169        0.120       30.113       18.210        0.366      347.909       27.219      860.084
09/10/2013  12:20:00       19.021       12.397       38.136       36.696       25.843       28.774     1346.614      667.861      827.917        0.241        0.142       22.704       19.323        0.724      348.177       27.682      860.077
09/10/2013  12:21:00       70.598       56.719       -0.290       23.653       27.167       27.295      559.442      738.041      745.038        0.512        0.102       90.560       17.108        0.036      347.600       26.688      860.054
09/10/2013  12:22:00       78.074       34.395       35.052      106.234      112.412       64.057    11285.634    12636.475     4103.281        1.826        1.401       85.314       10.958        0.016      347.322       26.207      860.038
09/10/2013  12:23:00      231.654      161.010       53.719       80.773       53.452       54.919     6524.204     2857.160     3016.101        4.743        0.620      282.113       44.223        0.025      347.082       25.789      860.039
09/10/2013  12:24:00      161.286       94.835       34.754       91.899       66.966       49.864     8445.408     4484.501     2486.434        2.581        0.771      187.101       42.038        0.050      347.255       26.090      860.026
09/10/2013  12:25:00       79.778      -21.089       32.066       85.422       74.708       38.794     7296.915     5581.278     1504.943        1.111        0.719       82.518       23.627        0.082      347.455       26.437      860.030
09/10/2013  12:26:00       76.624       72.521       56.397       49.527       43.832       41.797     2452.900     1921.216     1746.990        1.021        0.306      105.501       14.087        0.018      347.793       27.020      860.024
09/10/2013  12:27:00       34.963       20.627       14.719       59.593       58.375       39.664     3551.349     3407.659     1573.229        0.520        0.427       40.594       26.399        0.423      347.870       27.152      860.014
09/10/2013  12:28:00       47.050       56.159       61.981       70.053       69.033       47.255     4907.435     4765.531     2232.996        1.056        0.595       73.264       31.051        0.180      348.149       27.636      860.016
09/10/2013  12:29:00      119.636      110.673       50.681       79.803       87.264       65.018     6368.440     7614.920     4227.378        2.367        0.911      162.976       24.304        0.022      347.368       26.285      859.997
09/10/2013  12:30:00      283.083      177.003       38.480       81.237       72.010       74.759     6599.446     5185.487     5588.965        6.516        0.869      333.865       47.548        0.020      347.400       26.337      859.976
09/10/2013  12:31:00      284.495      179.134       33.818       63.056       58.759       57.461     3976.098     3452.654     3301.718        6.245        0.537      336.194       35.840        0.011      347.176       25.951      859.977
09/10/2013  12:32:00      241.063      102.244       42.533      130.264       79.242       70.304    16968.826     6279.278     4942.707        4.928        1.410      261.850       61.415        0.055      347.264       26.103      859.947
09/10/2013  12:33:00      155.973       71.268       26.473       86.663       78.932       60.180     7510.477     6230.281     3621.657        2.373        0.868      171.483       41.736        0.059      347.149       25.908      859.954
09/10/2013  12:34:00      198.465      166.424       24.556      145.299       89.927       69.031    21111.657     8086.779     4765.315        5.082        1.698      259.008       51.389        0.039      347.418       26.370      859.930
09/10/2013  12:35:00      161.053      107.307       69.467      114.498       75.870       78.090    13109.822     5756.238     6098.017        3.362        1.248      193.528       44.556        0.053      347.391       26.323      859.928
09/10/2013  12:36:00      103.904       13.464       60.077       94.532      122.850       59.985     8936.341    15092.166     3598.177        2.110        1.381      104.773       71.736        0.469      347.586       26.661      859.938
09/10/2013  12:37:00       78.133       73.929       86.523       69.686       73.037       53.936     4856.114     5334.436     2909.105        1.608        0.655      107.565       31.723        0.087      347.615       26.712      859.938
09/10/2013  12:38:00       46.225       71.121       93.935       66.256       67.497       55.033     4389.853     4555.839     3028.664        1.399        0.599       84.823       54.504        0.413      347.221       26.033      859.937
09/10/2013  12:39:00       43.895       82.284      100.690       64.469       87.617       59.275     4156.225     7676.674     3513.515        1.709        0.767       93.260       56.862        0.372      347.133       25.879      859.929
09/10/2013  12:40:00      114.921      108.672       37.006       39.732       37.247       35.442     1578.648     1387.310     1256.135        1.530        0.211      158.166       21.097        0.018      347.058       25.753      859.922
09/10/2013  12:41:00       34.658      -26.529       18.831       50.218       65.317       40.122     2521.810     4266.289     1609.738        0.533        0.420       43.646       28.622        0.430      347.383       26.312      859.900
09/10/2013  12:42:00       37.240      -98.251       -9.875       40.550       32.989       26.613     1644.286     1088.273      708.237        0.729        0.172      105.072       16.768        0.025      347.475       26.471      859.903
09/10/2013  12:43:00       12.371       -9.347       35.107       26.591       61.137       33.720      707.074     3737.791     1137.009        0.353        0.279       15.505       42.252        7.426      347.909       27.222      859.896
09/10/2013  12:44:00       40.663      -29.274       20.403       37.666       61.899       30.919     1418.693     3831.467      955.963        0.457        0.310       50.105       38.764        0.599      347.507       26.528      859.876
09/10/2013  12:45:00       38.040     -132.201        7.238       73.789       62.502       49.121     5444.834     3906.445     2412.897        1.537        0.588      137.566       33.020        0.058      347.532       26.569      859.848
09/10/2013  12:46:00       50.426     -127.868      -33.528       55.147       60.978       43.357     3041.186     3718.304     1879.853        1.433        0.432      137.451       31.511        0.053      347.587       26.664      859.815
09/10/2013  12:47:00      -66.101      -34.978      -16.511       45.114       32.319       22.510     2035.265     1044.527      506.723        0.473        0.179       74.785       22.753        0.093      347.681       26.826      859.804
09/10/2013  12:48:00      -23.682      -76.161      -31.129       35.061       61.385       34.574     1229.271     3768.062     1195.350        0.676        0.310       79.758       13.126        0.027      347.375       26.298      859.813
09/10/2013  12:49:00       36.623      -26.825        4.147       56.812       37.832       34.436     3227.611     1431.298     1185.847        0.396        0.292       45.396       27.282        0.361      347.370       26.290      859.807
09/10/2013  12:50:00      138.636       63.864       79.140      116.445       80.114       69.428    13559.376     6418.200     4820.299        2.717        1.240      152.638       42.387        0.077      347.610       26.702      859.780
09/10/2013  12:51:00       74.290       62.614       79.565       87.204       73.480       48.714     7604.494     5399.311     2373.070        1.557        0.769       97.157       47.941        0.243      347.695       26.851      859.763
09/10/2013  12:52:00       99.086       69.749      100.228      107.611      108.829       63.875    11580.111    11843.757     4080.019        2.611        1.375      121.173       72.744        0.360      347.567       26.627      859.754
09/10/2013  12:53:00      128.012       57.411       44.989       77.634       70.028       49.783     6027.093     4903.976     2478.368        1.756        0.670      140.296       34.618        0.061      347.576       26.645      859.753
09/10/2013  12:54:00       18.594      -43.645       55.935       46.335       71.507       63.959     2146.965     5113.242     4090.727        0.836        0.568       47.441       48.433        1.042      348.097       27.545      859.749
09/10/2013  12:55:00      181.787      126.664       68.877       90.709       65.062       62.649     8228.146     4233.061     3924.909        3.511        0.819      221.563       52.661        0.056      347.636       26.745      859.793
09/10/2013  12:56:00      123.668       54.855       33.272       98.212       80.984       61.289     9645.538     6558.329     3756.328        1.968        0.998      135.288       55.555        0.169      347.570       26.632      859.795
09/10/2013  12:57:00       69.770       46.202       30.494       74.223       75.217       58.469     5508.991     5657.662     3418.592        1.126        0.729       83.680       51.156        0.374      347.943       27.278      859.792
09/10/2013  12:58:00       18.360       45.519       23.081       79.781       90.724       34.211     6365.045     8230.847     1170.365        0.935        0.788       49.082       37.962        0.598      347.888       27.183      859.781
09/10/2013  12:59:00      -53.893      126.127       -8.802       32.709       52.686       28.477     1069.881     2775.827      810.917        1.177        0.233      137.158       26.445        0.037      347.784       27.005      859.766
09/10/2013  13:00:00      -50.932       70.262        1.350       30.368       41.438       31.911      922.215     1717.115     1018.308        0.559        0.183       86.780       23.953        0.076      347.916       27.233      859.757
09/10/2013  13:01:00      -90.542      114.103       -9.592       51.643       47.984       35.395     2667.019     2302.469     1252.820        1.376        0.311      145.661       36.744        0.064      347.692       26.846      859.747
09/10/2013  13:02:00      -85.681      186.565      -37.123       47.867       82.931       32.713     2291.290     6877.551     1070.121        2.688        0.512      205.299       18.425        0.008      347.379       26.303      859.741
09/10/2013  13:03:00      -65.267      102.152       -7.311       42.356       47.765       34.786     1794.059     2281.454     1210.057        1.002        0.264      121.222       28.398        0.055      347.857       27.130      859.722
09/10/2013  13:04:00       76.645      163.726        9.540       97.790       84.362       69.566     9562.853     7116.913     4839.408        2.714        1.076      180.778       57.814        0.102      347.944       27.278      859.712
09/10/2013  13:05:00      165.021      134.275       19.413      101.204       63.143       60.547    10242.242     3987.068     3665.912        3.176        0.895      212.748       44.071        0.043      347.818       27.061      859.716
09/10/2013  13:06:00      140.461      118.298       16.403       97.551       66.452       50.705     9516.129     4415.817     2571.035        2.524        0.825      183.640       28.707        0.024      347.807       27.041      859.721
09/10/2013  13:07:00      197.140      135.443       20.764       63.967       59.069       49.265     4091.803     3489.182     2427.011        3.382        0.500      239.184       31.363        0.017      347.584       26.656      859.713
09/10/2013  13:08:00       35.800      184.191      -17.342      120.522       70.143       53.349    14525.510     4920.080     2846.109        2.890        1.115      187.638       39.622        0.045      347.687       26.834      859.710
09/10/2013  13:09:00      -55.950       79.796       -4.682       61.803       59.538       32.633     3819.575     3544.761     1064.887        0.897        0.421       97.457       33.610        0.119      348.105       27.559      859.700
09/10/2013  13:10:00      -43.400      119.565      -15.848       57.467       61.049       35.518     3302.404     3726.926     1261.524        1.236        0.415      127.198       34.473        0.073      347.871       27.153      859.674
09/10/2013  13:11:00       58.781      108.288        2.987       58.604       57.987       45.972     3434.450     3362.438     2113.459        1.205        0.446      123.213       37.403        0.092      347.807       27.043      859.681
09/10/2013  13:12:00      145.719      113.560       69.367       99.988       64.616       70.974     9997.613     4175.284     5037.259        2.907        0.961      184.743       58.551        0.100      347.744       26.931      859.676
09/10/2013  13:13:00      173.752      127.277       37.541       86.814       63.730       58.393     7536.727     4061.501     3409.799        3.140        0.750      215.382       47.613        0.049      347.623       26.723      859.652
09/10/2013  13:14:00      130.541       80.273       30.728       85.734       53.905       46.528     7350.385     2905.752     2164.830        1.842        0.621      153.247       30.022        0.038      347.816       27.059      859.632
09/10/2013  13:15:00      190.498      138.848        7.763       98.306       92.589       54.815     9664.029     8572.696     3004.651        3.843        1.062      235.729       14.074        0.004      348.024       27.415      859.623
09/10/2013  13:16:00      117.688      132.781       16.226      101.477      110.415       71.541    10297.597    12191.525     5118.158        2.967        1.380      177.430       64.157        0.131      348.248       27.804      859.622
09/10/2013  13:17:00       91.611      179.133       -7.540      105.858      127.146       86.800    11205.959    16166.179     7534.217        3.772        1.745      201.199       81.629        0.165      347.891       27.188      859.621
09/10/2013  13:18:00       49.792      264.443      -18.612       80.568      117.330       60.754     6491.242    13766.244     3691.017        4.835        1.197      269.089       69.074        0.066      347.839       27.096      859.616
09/10/2013  13:19:00       24.722      142.760      -11.738       79.267       92.860       39.838     6283.210     8622.999     1587.041        1.881        0.825      144.885       45.344        0.098      348.146       27.627      859.626
09/10/2013  13:20:00       17.064      130.468       -3.734       40.585       99.872       50.705     1647.169     9974.349     2570.947        1.576        0.710      131.579       64.706        0.242      347.994       27.368      859.624
09/10/2013  13:21:00      -32.950      213.895      -20.030       53.434       65.754       38.339     2855.228     4323.534     1469.851        2.794        0.432      216.418       37.891        0.031      347.740       26.927      859.594
09/10/2013  13:22:00      -31.629      103.183      -21.486       23.979       67.794       17.501      574.971     4596.013      306.285        0.879        0.274      107.922        9.112        0.007      347.614       26.712      859.590
09/10/2013  13:23:00        4.249       27.940       14.274       17.871       29.043       18.107      319.374      843.500      327.863        0.125        0.075       28.262       12.303        0.189      348.144       27.625      859.579
09/10/2013  13:24:00      123.305       60.814       26.793       81.494       42.837       40.438     6641.195     1835.020     1635.256        1.486        0.506      137.487       35.652        0.067      347.930       27.257      859.581
09/10/2013  13:25:00       89.248       84.444        4.630       63.180       55.362       39.353     3991.675     3064.941     1548.648        1.186        0.430      122.866       29.495        0.058      347.694       26.851      859.572
09/10/2013  13:26:00       13.959       13.442       11.038       47.940       39.669       26.878     2298.246     1573.641      722.409        0.254        0.230       19.379       17.869        0.850      348.085       27.524      859.562
09/10/2013  13:27:00       26.386       16.881       13.254       65.465       61.084       41.561     4285.683     3731.304     1727.281        0.545        0.487       31.324       35.392        1.277      348.114       27.573      859.542
09/10/2013  13:28:00      166.522      100.396        1.674       83.671       68.581       53.929     7000.803     4703.334     2908.329        2.621        0.731      194.445       31.968        0.027      347.962       27.309      859.536
09/10/2013  13:29:00      199.500      131.957       15.017       52.327       40.574       47.855     2738.144     1646.246     2290.084        3.206        0.334      239.192       18.170        0.006      347.670       26.804      859.530
09/10/2013  13:30:00      119.985      108.055       10.107       65.126       65.058       39.029     4241.453     4232.608     1523.289        1.808        0.500      161.469       35.189        0.047      347.775       26.986      859.509
09/10/2013  13:31:00        8.934      120.533      -26.814       47.144       67.739       35.913     2222.525     4588.597     1289.726        1.171        0.405      120.864       24.788        0.042      347.730       26.909      859.503
09/10/2013  13:32:00      -32.401      124.851      -13.792       27.002       49.268       26.502      729.117     2427.304      702.371        1.034        0.193      128.987       17.098        0.018      347.846       27.111      859.486
09/10/2013  13:33:00       44.876      105.524        3.239       77.654       40.900       42.251     6030.160     1672.784     1785.147        1.132        0.474      114.669       36.373        0.101      348.014       27.401      859.471
09/10/2013  13:34:00       18.372       64.135        7.605       39.487       43.302       35.844     1559.247     1875.021     1284.768        0.461        0.236       66.714       30.371        0.207      348.422       28.106      859.453
09/10/2013  13:35:00       65.470       66.082        6.912       54.677       56.873       33.453     2989.532     3234.533     1119.131        0.802        0.367       93.022       32.564        0.123      348.406       28.078      859.443
09/10/2013  13:36:00       61.441      107.356       -7.164       43.079       65.771       38.209     1855.820     4325.809     1459.938        1.150        0.382      123.695       36.244        0.086      348.352       27.985      859.435
09/10/2013  13:37:00       37.111       39.077       37.345       57.812       42.664       37.934     3342.202     1820.225     1439.021        0.545        0.330       53.891       25.671        0.227      348.793       28.750      859.419
09/10/2013  13:38:00       60.536      101.023       21.599      107.973       51.766       51.543    11658.080     2679.702     2656.667        1.566        0.850      117.772       38.319        0.106      348.658       28.515      859.399
09/10/2013  13:39:00      153.209      118.408       28.167       79.281       78.596       61.266     6285.490     6177.308     3753.554        2.725        0.811      193.632       35.797        0.034      348.396       28.059      859.390
09/10/2013  13:40:00      113.127      105.758       23.063      106.975       95.396       62.449    11443.625     9100.449     3899.857        2.447        1.222      154.863       41.989        0.074      347.973       27.329      859.385
09/10/2013  13:41:00       81.405       83.069        8.817       74.542       54.586       39.292     5556.443     2979.642     1543.827        1.184        0.504      116.307       32.606        0.079      348.018       27.407      859.368
09/10/2013  13:42:00       48.363      166.667       -3.060       68.301       89.618       52.700     4665.091     8031.408     2777.339        2.280        0.774      173.542       53.781        0.096      348.295       27.884      859.366
09/10/2013  13:43:00       86.119      118.193       14.904       76.143       75.413       55.951     5797.788     5687.172     3130.514        1.811        0.731      146.240       28.965        0.039      348.377       28.029      859.359
09/10/2013  13:44:00       48.580       93.615        4.635       48.182       63.533       42.895     2321.522     4036.379     1840.020        0.967        0.410      105.469       38.584        0.134      348.187       27.700      859.359
09/10/2013  13:45:00       47.695       51.467       11.954       33.365       31.344       19.111     1113.201      982.439      365.238        0.376        0.123       70.169       11.992        0.029      348.048       27.459      859.347
09/10/2013  13:46:00      138.049       99.350       -2.695       99.072       82.691       49.917     9815.309     6837.730     2491.684        2.404        0.957      170.082       27.607        0.026      348.139       27.615      859.345
09/10/2013  13:47:00      157.402      106.301       49.885      114.435       70.257       65.134    13095.472     4936.008     4242.420        3.041        1.114      189.935       59.492        0.098      348.211       27.739      859.321
09/10/2013  13:48:00       73.555       51.736       51.344       89.810       69.314       46.465     8065.746     4804.468     2158.990        1.287        0.751       89.927       26.707        0.088      348.252       27.811      859.322
09/10/2013  13:49:00       97.305       73.231        8.148       51.857       43.830       33.427     2689.098     1921.087     1117.337        1.031        0.286      121.783       16.318        0.018      347.973       27.330      859.331
09/10/2013  13:50:00       65.927       26.091       27.473       60.604       41.033       43.980     3672.884     1683.679     1934.253        0.653        0.365       70.902       24.533        0.120      348.299       27.894      859.309
09/10/2013  13:51:00       25.467      101.337       -7.399       52.821       61.615       43.492     2790.036     3796.415     1891.568        0.972        0.424      104.488       46.382        0.197      348.120       27.583      859.298
09/10/2013  13:52:00       30.724       85.851        1.238       40.149       55.068       40.983     1611.977     3032.432     1679.583        0.732        0.316       91.183       39.388        0.187      348.089       27.531      859.278
09/10/2013  13:53:00        0.186       79.741        2.667       35.103       51.593       29.687     1232.229     2661.811      881.314        0.557        0.239       79.741       30.607        0.147      348.476       28.199      859.257
09/10/2013  13:54:00     -116.799       57.858       -1.563       92.100       56.291       40.566     8482.350     3168.649     1645.564        1.514        0.665      130.344       49.406        0.144      348.484       28.212      859.245
09/10/2013  13:55:00     -139.725        9.391        4.145       99.804       91.923       42.471     9960.759     8449.753     1803.781        1.992        1.011      140.041       45.582        0.106      348.496       28.234      859.229
09/10/2013  13:56:00       10.514       45.232       35.115      112.748       35.574       47.722    12712.127     1265.522     2277.419        0.982        0.813       46.438       43.960        0.896      348.668       28.532      859.234
09/10/2013  13:57:00       49.922       69.263       -0.251       57.479       38.199       39.835     3303.853     1459.192     1586.862        0.682        0.317       85.379       22.390        0.069      348.471       28.191      859.236
09/10/2013  13:58:00       53.987       58.392        9.247       75.749       64.075       46.180     5737.958     4105.575     2132.638        0.919        0.599       79.525       37.001        0.216      348.588       28.394      859.232
09/10/2013  13:59:00      111.342      124.776       -4.236       96.941       96.229       67.780     9397.526     9260.059     4594.140        2.561        1.163      167.231       52.945        0.100      348.119       27.579      859.230
09/10/2013  14:00:00      251.890      151.363       21.225      104.430       71.530       60.417    10905.705     5116.586     3650.180        5.324        0.984      293.869       32.747        0.012      348.100       27.546      859.214
09/10/2013  14:01:00      175.567      121.695       34.175       78.286       59.772       53.075     6128.771     3572.725     2816.906        2.966        0.626      213.619       37.228        0.030      347.994       27.364      859.227
09/10/2013  14:02:00       38.626       23.454       34.617       51.361       86.074       40.064     2637.991     7408.748     1605.118        0.744        0.583       45.190       39.493        0.764      348.206       27.732      859.208
09/10/2013  14:03:00       28.138      -79.179       29.404       50.833       78.161       50.298     2583.978     6109.191     2529.849        0.957        0.561       84.030       16.057        0.037      347.850       27.118      859.186
09/10/2013  14:04:00       23.505       30.211       44.392       57.009       38.818       35.921     3250.071     1506.844     1290.351        0.474        0.302       38.278       27.173        0.504      348.145       27.628      859.185
09/10/2013  14:05:00       10.637      -33.643       -3.570       23.537       36.686       26.469      553.998     1345.879      700.606        0.193        0.130       35.285       19.742        0.313      348.084       27.522      859.179
09/10/2013  14:06:00       54.438       42.521       28.606       48.389       34.349       28.307     2341.462     1179.877      801.310        0.496        0.216       69.076       14.248        0.043      348.292       27.882      859.169
09/10/2013  14:07:00       15.018      100.858        8.279       41.127       75.666       46.861     1691.422     5725.408     2195.921        1.004        0.481      101.970       43.368        0.181      348.506       28.252      859.162
09/10/2013  14:08:00      105.052       93.364       22.597      118.075       80.604       70.403    13941.670     6497.002     4956.522        2.282        1.270      140.544       48.712        0.120      348.556       28.338      859.146
09/10/2013  14:09:00      113.990      130.029        6.578      145.352      110.642       56.937    21127.213    12241.629     3241.831        3.327        1.831      172.920       49.225        0.081      348.491       28.224      859.136
09/10/2013  14:10:00       37.299      142.374      -21.871       56.068       73.959       37.818     3143.642     5469.945     1430.229        1.609        0.502      147.178       34.291        0.054      348.391       28.053      859.143
09/10/2013  14:11:00       32.941      120.834       -5.544       46.541       88.961       43.510     2166.048     7914.087     1893.098        1.384        0.599      125.244       49.224        0.154      348.316       27.922      859.126
09/10/2013  14:12:00      191.208      142.330       40.806      118.587       82.351       86.818    14062.815     6781.717     7537.403        4.343        1.419      238.366       49.376        0.043      348.287       27.869      859.106
09/10/2013  14:13:00       52.563      152.677       -6.649      105.609       76.441       54.796    11153.334     5843.183     3002.557        2.305        1.000      161.472       46.030        0.081      347.983       27.346      859.120
09/10/2013  14:14:00        8.239       72.033      -14.009       33.475       50.361       23.051     1120.596     2536.259      531.362        0.482        0.209       72.503       23.479        0.105      348.160       27.655      859.109
09/10/2013  14:15:00       32.164       70.392       -1.931       67.043       41.470       31.545     4494.816     1719.769      995.095        0.660        0.360       77.392       35.658        0.212      348.146       27.629      859.094
09/10/2013  14:16:00       48.331       50.429       28.579       71.427       39.292       38.764     5101.791     1543.859     1502.631        0.692        0.407       69.850       25.895        0.137      348.546       28.321      859.074
09/10/2013  14:17:00       92.689       55.945       51.754       59.341       52.704       41.838     3521.309     2777.674     1750.449        1.122        0.402      108.264       28.749        0.071      348.244       27.798      859.071
09/10/2013  14:18:00       60.173      -12.633       10.169       70.647       44.911       34.798     4991.050     2016.965     1210.913        0.605        0.411       61.484       34.394        0.313      348.263       27.831      859.051
09/10/2013  14:19:00       61.190      -99.007       -1.439       62.134       85.755       50.592     3860.622     7353.944     2559.525        1.366        0.689      116.390       51.810        0.198      348.315       27.921      859.025
09/10/2013  14:20:00       30.893     -118.139      -14.578       28.042       27.157       26.400      786.336      737.492      696.956        0.867        0.111      122.112        9.526        0.006      348.108       27.564      859.020
09/10/2013  14:21:00       44.640       -0.767       -7.338       31.056       51.897       33.838      964.495     2693.254     1144.983        0.342        0.240       44.647       24.171        0.293      348.259       27.824      859.004
09/10/2013  14:22:00       39.597        3.604       16.801       22.858       26.513       22.500      522.467      702.957      506.235        0.180        0.087       39.761        7.368        0.034      348.248       27.806      859.004
09/10/2013  14:23:00       -6.601       26.719       29.117       26.671       16.598       17.271      711.344      275.481      298.285        0.144        0.064       27.522       10.920        0.157      348.340       27.966      858.992
09/10/2013  14:24:00       -2.194       22.422       31.572       26.436       14.761       16.484      698.847      217.885      271.710        0.135        0.059       22.529       12.618        0.314      348.126       27.596      858.989
09/10/2013  14:25:00        4.855      -31.598        8.638       17.689       36.463       20.695      312.910     1329.579      428.302        0.158        0.104       31.969       22.483        0.495      348.397       28.063      858.976
09/10/2013  14:26:00      -26.646      -26.311       14.717       43.316       47.110       34.835     1876.251     2219.370     1213.468        0.346        0.265       37.447       28.846        0.593      348.788       28.741      858.931
09/10/2013  14:27:00       35.872       18.143       18.879       54.651       35.474       30.134     2986.686     1258.402      908.032        0.356        0.258       40.199       24.904        0.384      348.834       28.819      858.930
09/10/2013  14:28:00      147.093       88.466       12.369       68.873       59.915       55.699     4743.497     3589.803     3102.326        2.052        0.572      171.646       30.845        0.032      348.624       28.453      858.933
09/10/2013  14:29:00      232.108      153.893       23.207       84.750       74.826       54.483     7182.517     5598.865     2968.426        4.692        0.787      278.491       38.603        0.019      348.206       27.730      858.918
09/10/2013  14:30:00      218.498      138.937       15.113       79.649       89.356       61.560     6344.035     7984.542     3789.663        4.269        0.906      258.930       50.338        0.038      348.505       28.247      858.913
09/10/2013  14:31:00      257.644      179.497       28.014      113.097       76.480       63.282    12791.037     5849.252     4004.639        6.101        1.132      314.005       39.468        0.016      348.260       27.824      858.925
09/10/2013  14:32:00      189.712      113.727        9.490       64.907       66.441       55.898     4212.866     4414.421     3124.565        3.038        0.588      221.189       25.983        0.014      348.111       27.566      858.941
09/10/2013  14:33:00      102.234      102.590       29.554       91.680      100.079       64.208     8405.306    10015.780     4122.629        2.219        1.127      144.832       52.828        0.133      348.130       27.599      858.920
09/10/2013  14:34:00       70.620      207.836      -29.454       54.377      114.319       51.818     2956.848    13068.744     2685.124        3.388        0.936      219.507       58.816        0.072      348.147       27.628      858.934
09/10/2013  14:35:00      -21.857      111.517       -4.675       54.196       69.943       39.007     2937.215     4892.039     1521.545        1.114        0.468      113.639       42.225        0.138      348.333       27.953      858.926
09/10/2013  14:36:00       27.727       94.996       -9.223       70.057       92.139       52.660     4908.039     8489.636     2773.031        1.302        0.809       98.959       55.853        0.319      348.413       28.090      858.913
09/10/2013  14:37:00      -28.296       81.663      -15.406       65.224       40.738       35.524     4254.230     1659.622     1261.926        0.744        0.359       86.427       26.765        0.096      348.302       27.901      858.876
09/10/2013  14:38:00        6.019      227.118      -33.357       57.934      120.480       41.048     3356.361    14515.445     1684.975        3.614        0.978      227.198       52.774        0.054      348.277       27.853      858.889
09/10/2013  14:39:00        0.859      148.061       -9.849       37.367       81.250       37.064     1396.329     6601.534     1373.747        1.569        0.469      148.063       41.562        0.079      348.409       28.083      858.887
09/10/2013  14:40:00       52.794       97.649       18.415       68.594       68.271       56.295     4705.179     4660.864     3169.145        1.260        0.627      111.007       51.172        0.213      348.523       28.281      858.885
09/10/2013  14:41:00      109.444      187.645       -4.089      121.517      139.227       63.840    14766.496    19384.209     4075.583        4.271        1.911      217.230       64.879        0.089      348.677       28.545      858.863
09/10/2013  14:42:00      143.449      184.289       -7.709      127.567      102.948       87.656    16273.221    10598.387     7683.627        4.457        1.728      233.538       76.090        0.106      348.303       27.898      858.877
09/10/2013  14:43:00       73.048      151.921       -2.508       92.691       91.896       70.059     8591.629     8444.916     4908.252        2.518        1.097      168.570       63.084        0.140      348.362       28.001      858.887
09/10/2013  14:44:00      101.765      179.434        0.573      117.414      101.894       68.933    13786.107    10382.485     4751.724        3.573        1.446      206.283       59.611        0.084      348.381       28.033      858.901
09/10/2013  14:45:00      187.645      157.690        0.678       83.041       59.536       62.756     6895.780     3544.501     3938.295        3.723        0.719      245.106       43.080        0.031      348.131       27.598      858.917
09/10/2013  14:46:00      163.547      109.810       30.424       69.454       49.032       33.689     4823.886     2404.159     1134.952        2.405        0.418      196.992       19.661        0.010      348.186       27.696      858.897
09/10/2013  14:47:00       -8.316      161.263      -22.994       42.415       64.929       29.453     1799.028     4215.710      867.485        1.674        0.344      161.477       21.088        0.017      348.228       27.770      858.887
09/10/2013  14:48:00      114.833       80.870        4.560       98.576       45.282       39.600     9717.201     2050.421     1568.147        1.654        0.667      140.452       35.868        0.065      348.418       28.099      858.890
09/10/2013  14:49:00      114.506       57.570       13.309       75.464       43.116       39.860     5694.821     1858.957     1588.798        1.287        0.457      128.164       27.051        0.045      348.111       27.568      858.889
09/10/2013  14:50:00       35.532      -23.405       22.060       31.523       29.393       27.956      993.685      863.965      781.544        0.247        0.132       42.548       23.170        0.297      348.123       27.590      858.875
09/10/2013  14:51:00       14.712        8.667       27.854       35.902       27.765       21.124     1288.980      770.894      446.226        0.179        0.125       17.075       20.405        1.428      348.187       27.702      858.863
09/10/2013  14:52:00        9.733       51.822        7.546       16.715       32.685       19.356      279.383     1068.319      374.670        0.228        0.086       52.728       10.136        0.037      348.237       27.786      858.857
09/10/2013  14:53:00      -49.167      207.632      -20.897       84.257       67.988       48.887     7099.211     4622.418     2389.983        3.004        0.706      213.374       40.296        0.036      348.531       28.292      858.857
09/10/2013  14:54:00     -119.537      151.916      -27.814       41.117       72.556       38.310     1690.591     5264.391     1467.687        2.328        0.421      193.307       36.305        0.035      348.472       28.191      858.862
09/10/2013  14:55:00     -163.574       54.778      -22.652       57.803       40.139       31.837     3341.193     1611.148     1013.571        1.812        0.298      172.502       30.929        0.032      348.662       28.519      858.846
09/10/2013  14:56:00      -74.290       27.985        5.645       47.574       50.661       34.829     2263.247     2566.510     1213.091        0.619        0.302       79.386       25.193        0.101      349.110       29.298      858.825
09/10/2013  14:57:00     -183.362      -45.561      -24.582       45.208       39.423       28.324     2043.735     1554.167      802.270        2.035        0.220      188.938       14.080        0.006      348.572       28.366      858.818
09/10/2013  14:58:00      -39.425       62.075        8.304       57.674       43.354       43.999     3326.284     1879.594     1935.871        0.631        0.357       73.537       40.598        0.305      348.621       28.450      858.815
09/10/2013  14:59:00       49.917       84.787        9.146       64.607      104.759       48.181     4174.078    10974.370     2321.389        1.361        0.873       98.390       50.504        0.263      348.955       29.027      858.825
09/10/2013  15:00:00       48.537      180.971      -11.588       75.805      112.865       58.236     5746.471    12738.561     3391.469        2.855        1.094      187.367       69.799        0.139      348.614       28.437      858.828
09/10/2013  15:01:00       87.849       80.291        8.928       65.609       45.827       38.120     4304.506     2100.135     1453.109        1.105        0.393      119.013       35.709        0.090      348.416       28.096      858.824
09/10/2013  15:02:00       87.340       95.981        0.936       57.400       45.647       30.463     3294.804     2083.637      927.999        1.157        0.315      129.772       28.499        0.048      348.511       28.262      858.803
09/10/2013  15:03:00      -43.467      265.940      -35.856       63.858       72.361       40.883     4077.891     5236.127     1671.456        4.244        0.549      269.469       38.628        0.021      348.457       28.162      858.799
09/10/2013  15:04:00       76.611      102.564       -2.189       75.471       80.043       38.763     5695.798     6406.852     1502.533        1.500        0.680      128.018       34.950        0.075      348.797       28.754      858.781
09/10/2013  15:05:00       64.394      157.076        0.314       81.991      111.022       65.496     6722.494    12325.888     4289.664        2.607        1.167      169.763       60.059        0.125      348.782       28.728      858.769
09/10/2013  15:06:00       83.043      100.463       11.074       85.476      101.392       59.541     7306.171    10280.295     3545.138        1.912        1.057      130.342       64.266        0.243      348.763       28.694      858.759
09/10/2013  15:07:00       67.153      213.000      -23.779       64.423      103.730       58.660     4150.361    10759.876     3440.973        3.439        0.918      223.335       55.680        0.062      348.624       28.453      858.758
09/10/2013  15:08:00      132.786       87.226        8.541       80.400       66.518       43.580     6464.218     4424.634     1899.208        1.905        0.639      158.872       28.930        0.033      348.790       28.741      858.767
09/10/2013  15:09:00      117.932       80.762       24.691       86.773       56.940       43.507     7529.606     3242.148     1892.835        1.685        0.633      142.935       13.280        0.009      348.980       29.069      858.758
09/10/2013  15:10:00      139.743       84.000        8.715       85.478       55.416       46.858     7306.548     3070.968     2195.689        1.961        0.629      163.046       32.294        0.039      348.854       28.854      858.735
09/10/2013  15:11:00       17.955      -15.150       18.985       40.650       50.419       34.948     1652.438     2542.070     1221.371        0.316        0.271       23.493       23.622        1.011      348.998       29.102      858.720
09/10/2013  15:12:00       41.538      -44.859       45.909       67.467       76.526       47.157     4551.829     5856.242     2223.827        0.924        0.632       61.137       44.559        0.531      348.907       28.944      858.698
09/10/2013  15:13:00      170.900     -266.999      -33.936       82.395       85.463       46.936     6788.991     7303.940     2203.032        5.897        0.815      317.010       43.546        0.019      348.387       28.043      858.685
09/10/2013  15:14:00       46.973      -61.994       23.567       53.593       91.479       59.147     2872.241     8368.441     3498.403        1.067        0.737       77.780       61.068        0.616      348.712       28.607      858.676
09/10/2013  15:15:00       79.974      -89.702       12.092       92.643      124.963       60.312     8582.813    15615.795     3637.574        2.121        1.392      120.176       66.565        0.307      348.739       28.654      858.667
09/10/2013  15:16:00      120.395     -218.799      -41.320       70.837       75.801       36.156     5017.908     5745.720     1307.226        3.807        0.604      249.736       36.069        0.021      348.456       28.161      858.664
09/10/2013  15:17:00       55.038     -146.464      -23.320       47.192       69.335       32.364     2227.121     4807.359     1047.419        1.655        0.404      156.463       25.084        0.026      348.377       28.026      858.661
09/10/2013  15:18:00       46.677     -121.103      -18.106       49.554       36.490       27.189     2455.581     1331.544      739.251        1.085        0.226      129.786       22.846        0.031      348.450       28.153      858.659
09/10/2013  15:19:00        6.947     -114.488       -7.132       58.651       36.124       41.135     3439.920     1304.960     1692.061        0.982        0.322      114.699       17.863        0.024      348.478       28.204      858.663
09/10/2013  15:20:00       89.749      -70.577       -2.131       80.459       58.125       37.256     6473.657     3378.483     1388.036        1.214        0.562      114.175       12.810        0.013      348.412       28.089      858.672
09/10/2013  15:21:00       31.895      -58.080        3.833       35.641       67.949       41.432     1270.315     4617.083     1716.638        0.600        0.380       66.261       39.619        0.358      348.707       28.601      858.641
09/10/2013  15:22:00       10.001      -32.090       43.772       55.810       57.884       40.072     3114.794     3350.502     1605.750        0.556        0.404       33.612       42.542        1.602      349.164       29.392      858.624
09/10/2013  15:23:00       26.140       17.105       16.752       34.567       27.331       29.450     1194.863      746.961      867.326        0.203        0.140       31.239       23.252        0.554      348.896       28.927      858.632
09/10/2013  15:24:00       58.458       66.967        8.067       49.262       64.210       36.052     2426.715     4122.975     1299.739        0.791        0.392       88.892       26.498        0.089      348.694       28.578      858.618
09/10/2013  15:25:00      -11.709       53.270        9.337       36.474       48.805       29.579     1330.317     2381.895      874.899        0.382        0.229       54.542       29.209        0.287      348.845       28.838      858.606
09/10/2013  15:26:00       29.650        1.998       20.940       42.272       20.880       25.636     1786.897      435.964      657.206        0.210        0.144       29.718       14.909        0.252      348.506       28.252      858.600
09/10/2013  15:27:00       35.073        6.285       21.992       33.487       23.961       20.268     1121.406      574.131      410.809        0.193        0.105       35.632       14.410        0.164      348.230       27.775      858.599
09/10/2013  15:28:00      139.718      104.902        0.218       70.867       53.756       43.570     5022.112     2889.684     1898.302        2.017        0.491      174.715       24.419        0.020      348.656       28.510      858.591
09/10/2013  15:29:00       44.611       66.623       -8.636       79.455       69.454       35.037     6313.043     4823.842     1227.593        0.943        0.618       80.179       23.451        0.086      348.904       28.940      858.573
09/10/2013  15:30:00      113.276       47.350       51.741      146.430       66.288       46.262    21441.693     4394.091     2140.197        2.286        1.399      122.774       43.698        0.127      348.729       28.638      858.567
09/10/2013  15:31:00      104.842        9.414       25.854       85.110       87.506       50.438     7243.684     7657.290     2544.005        1.459        0.872      105.264       37.800        0.129      348.780       28.726      858.566
09/10/2013  15:32:00       68.698       94.779       81.987       69.900       66.424       47.878     4885.998     4412.101     2292.312        1.601        0.580      117.058       41.830        0.128      348.972       29.058      858.567
09/10/2013  15:33:00      128.472      116.584       35.249       87.548       69.696       62.161     7664.652     4857.576     3863.932        2.386        0.819      173.485       44.478        0.066      348.674       28.540      858.566
09/10/2013  15:34:00      138.799       90.980       23.186       62.123      121.744       39.789     3859.261    14821.585     1583.191        2.417        1.013      165.959       19.313        0.014      348.679       28.549      858.541
09/10/2013  15:35:00        4.379      -15.102       10.551       17.315       34.354       27.387      299.796     1180.210      750.056        0.129        0.112       15.724       16.674        1.124      348.713       28.611      858.536
09/10/2013  15:36:00      -49.063      -50.511        2.405       65.298       62.311       21.028     4263.829     3882.649      442.191        0.677        0.429       70.417        7.102        0.010      349.119       29.313      858.508
09/10/2013  15:37:00       -4.821      -36.834       15.969       56.398       47.960       37.434     3180.754     2300.183     1401.289        0.426        0.344       37.148       21.628        0.339      348.949       29.018      858.490
09/10/2013  15:38:00       23.245      -10.757        4.234       33.974       42.829       25.552     1154.199     1834.325      652.919        0.216        0.182       25.613       13.274        0.269      348.785       28.734      858.490
09/10/2013  15:39:00       61.243       37.505       41.985       47.928       46.997       35.677     2297.056     2208.719     1272.879        0.635        0.289       71.814       22.969        0.102      348.432       28.123      858.482
09/10/2013  15:40:00      147.754       63.102       17.901       81.925       62.868       48.228     6711.690     3952.432     2325.911        1.956        0.650      160.664       37.286        0.054      348.575       28.368      858.456
09/10/2013  15:41:00      135.831       82.010       50.883      129.049       75.762       79.509    16653.640     5739.845     6321.693        2.823        1.436      158.669       68.885        0.188      348.648       28.495      858.429
09/10/2013  15:42:00       76.279       32.593       46.882       74.711       86.340       59.311     5581.716     7454.581     3517.831        1.281        0.828       82.951       52.545        0.401      348.746       28.665      858.434
09/10/2013  15:43:00      123.584      -99.008       -3.426       63.948       72.802       38.892     4089.378     5300.189     1512.615        1.799        0.545      158.353       33.717        0.045      348.508       28.254      858.419
09/10/2013  15:44:00       74.537      -57.924       38.756       81.211      116.032       67.861     6595.168    13463.318     4605.069        1.753        1.233       94.398       63.282        0.449      348.914       28.956      858.404
09/10/2013  15:45:00       71.426      -25.253       32.127       63.993       73.513       47.525     4095.168     5404.126     2258.592        0.926        0.588       75.759       49.628        0.429      348.492       28.228      858.404
09/10/2013  15:46:00      139.462      100.888       46.692       90.780       65.122       64.649     8241.068     4240.935     4179.472        2.423        0.833      172.128       41.753        0.059      348.782       28.727      858.390
09/10/2013  15:47:00       70.806       64.009       80.712       84.361       90.295       64.150     7116.814     8153.098     4115.250        1.750        0.969       95.449       61.073        0.409      348.851       28.847      858.389
09/10/2013  15:48:00      112.461      112.707      124.020      101.821       78.981       72.967    10367.608     6237.920     5324.187        3.133        1.096      159.218       59.054        0.138      348.573       28.366      858.381
09/10/2013  15:49:00      108.560      129.925      154.713       94.715       90.525       80.061     8971.008     8194.759     6409.774        3.808        1.179      169.310       70.569        0.174      348.330       27.944      858.371
09/10/2013  15:50:00      143.221      135.822       55.508       51.165       42.044       52.919     2617.844     1767.682     2800.464        2.461        0.359      197.382       36.983        0.035      348.365       28.004      858.407
09/10/2013  15:51:00      120.898       86.846       28.326       32.668       24.933       37.453     1067.173      621.670     1402.707        1.303        0.155      148.858       10.312        0.005      348.440       28.136      858.415
09/10/2013  15:52:00       78.991       -2.330       -9.886       55.036       46.174       20.876     3028.980     2132.047      435.823        0.597        0.280       79.025       10.095        0.016      348.533       28.298      858.417
09/10/2013  15:53:00       58.642       46.424       59.730       49.319       70.902       37.479     2432.381     5027.134     1404.653        0.901        0.443       74.793       41.457        0.307      348.566       28.356      858.407
09/10/2013  15:54:00      113.254       79.321       15.144       54.077       42.339       46.329     2924.323     1792.597     2146.417        1.310        0.343      138.269        3.714        0.001      348.646       28.494      858.406
09/10/2013  15:55:00       24.274      -53.422      -23.354       39.269       98.623       22.780     1542.071     9726.574      518.933        0.789        0.589       58.678       11.868        0.041      348.547       28.323      858.400
09/10/2013  15:56:00       48.911      -25.913       27.897       51.426       44.799       47.847     2644.603     2006.969     2289.356        0.539        0.347       55.351       30.049        0.295      348.707       28.599      858.377
09/10/2013  15:57:00       52.732      -60.945       -7.543       40.826       58.841       38.553     1666.768     3462.235     1486.327        0.658        0.331       80.591       35.720        0.196      348.561       28.346      858.367
09/10/2013  15:58:00       12.066       45.646       80.146       42.684       75.000       65.151     1821.928     5625.016     4244.626        1.017        0.585       47.214       60.729        1.654      348.576       28.373      858.356
09/10/2013  15:59:00       68.590       78.887       70.676      101.531       62.888       60.887    10308.588     3954.940     3707.238        1.694        0.899      104.536       51.329        0.241      348.560       28.345      858.357
09/10/2013  16:00:00       78.274       51.590       36.193       89.090       50.329       34.308     7936.964     2532.959     1177.034        1.087        0.582       93.746       26.145        0.078      348.684       28.559      858.337
09/10/2013  16:01:00      111.941       54.433       48.189       80.895       67.982       48.677     6543.986     4621.549     2369.416        1.567        0.677      124.474       45.551        0.134      348.414       28.093      858.333
09/10/2013  16:02:00      170.022      110.749       45.886       67.074       53.352       53.607     4498.921     2846.441     2873.697        2.675        0.511      202.911       30.408        0.022      348.537       28.302      858.335
09/10/2013  16:03:00      138.890       27.492       45.558       87.202       64.853       54.698     7604.254     4205.948     2991.895        1.846        0.740      141.585       43.045        0.092      348.287       27.871      858.325
09/10/2013  16:04:00      100.361       47.748       63.710       74.999       65.810       45.718     5624.806     4330.988     2090.146        1.423        0.602      111.140       35.233        0.100      348.205       27.730      858.326
09/10/2013  16:05:00       20.577       17.304       55.239       37.794       50.791       28.931     1428.406     2579.701      836.983        0.431        0.242       26.886       28.211        1.101      348.615       28.439      858.320
09/10/2013  16:06:00       51.458      -96.113        3.682       66.841       50.750       37.375     4467.740     2575.547     1396.886        1.017        0.422      109.021       10.804        0.010      348.712       28.607      858.304
09/10/2013  16:07:00       49.289      -31.262       13.156       62.259       38.538       31.969     3876.167     1485.154     1022.039        0.498        0.319       58.367       25.103        0.185      348.340       27.964      858.292
09/10/2013  16:08:00       83.654     -184.607       -2.879       66.962      129.706       53.534     4483.972    16823.605     2865.849        3.262        1.209      202.676       71.707        0.125      348.673       28.537      858.277
09/10/2013  16:09:00       68.584     -149.084       -0.614       49.713       54.991       35.656     2471.382     3024.063     1271.319        1.685        0.338      164.103       34.372        0.044      348.755       28.681      858.267
09/10/2013  16:10:00       66.288     -160.518       -8.658       38.845       37.517       26.501     1508.936     1407.520      702.299        1.693        0.181      173.667       20.302        0.014      348.715       28.613      858.258
09/10/2013  16:11:00       79.753     -124.863        4.964       55.667       85.669       37.648     3098.814     7339.175     1417.394        1.691        0.593      148.160       43.530        0.086      348.772       28.710      858.257
09/10/2013  16:12:00       29.534      -92.043       -5.402       61.966       83.614       30.094     3839.798     6991.328      905.632        1.055        0.587       96.665       39.001        0.163      348.923       28.972      858.246
09/10/2013  16:13:00       21.385      -68.203       12.936       46.100       60.978       33.661     2125.216     3718.338     1133.032        0.613        0.349       71.477       28.642        0.161      349.161       29.385      858.231
09/10/2013  16:14:00      -71.937     -109.769       -9.484       71.437       64.945       33.773     5103.295     4217.836     1140.639        1.389        0.523      131.241       22.191        0.029      348.717       28.615      858.219
09/10/2013  16:15:00       16.100      -13.343        4.525       38.224       50.087       20.534     1461.075     2508.661      421.631        0.242        0.220       20.911       21.723        1.079      348.689       28.568      858.205
09/10/2013  16:16:00       26.415      -19.793       -2.794       45.970       36.827       28.773     2113.272     1356.208      827.871        0.270        0.215       33.007       11.086        0.113      348.349       27.982      858.193
09/10/2013  16:17:00      138.743     -156.890      -22.899       54.899       60.875       34.088     3013.857     3705.748     1161.965        2.613        0.394      209.438       23.257        0.012      348.719       28.618      858.188
09/10/2013  16:18:00        9.358       -6.110       34.723       30.935       59.597       33.984      956.994     3551.833     1154.911        0.350        0.283       11.176       31.394        7.891      348.516       28.269      858.187
09/10/2013  16:19:00       61.353       14.757       24.449       53.396       43.246       33.644     2851.157     1870.219     1131.895        0.522        0.293       63.103       32.547        0.266      348.349       27.981      858.195
09/10/2013  16:20:00      138.347       65.811       25.396       73.986       59.610       46.827     5473.964     3553.364     2192.727        1.767        0.561      153.202       45.058        0.086      348.797       28.754      858.188
09/10/2013  16:21:00      149.221      108.834       12.458       69.708       39.409       32.765     4859.147     1553.068     1073.526        2.087        0.374      184.694       11.848        0.004      348.808       28.774      858.181
09/10/2013  16:22:00       33.725      126.517      -22.264       37.872       49.038       23.676     1434.263     2404.712      560.532        1.102        0.220      130.935       18.017        0.019      348.866       28.873      858.171
09/10/2013  16:23:00       31.193       70.979       -4.245       36.383       47.224       43.150     1323.739     2230.085     1861.953        0.572        0.271       77.531       34.001        0.192      348.995       29.098      858.163
09/10/2013  16:24:00       78.861       65.129        0.346       37.273       21.179       23.641     1389.241      448.533      558.906        0.643        0.120      102.278       18.524        0.033      348.866       28.875      858.151
09/10/2013  16:25:00       76.831       78.591       20.616       58.559       67.974       37.144     3429.164     4620.491     1379.688        1.097        0.471      109.907       34.213        0.097      348.905       28.942      858.151
09/10/2013  16:26:00      149.184      139.656        7.074      101.999       77.319       74.934    10403.745     5978.184     5615.112        3.190        1.100      204.352       59.351        0.084      348.953       29.022      858.151
09/10/2013  16:27:00       11.729      188.290      -27.784       67.858       78.667       44.435     4604.695     6188.520     1974.429        2.456        0.638      188.655       39.168        0.043      348.925       28.977      858.156
09/10/2013  16:28:00        0.271      257.904      -24.262       65.754      155.908       55.411     4323.583    24307.370     3070.325        4.940        1.585      257.904       78.867        0.094      348.864       28.868      858.144
09/10/2013  16:29:00       28.446      190.889       -2.434      110.157       89.421       65.621    12134.516     7996.140     4306.119        3.084        1.222      192.996       62.101        0.104      348.934       28.990      858.136
09/10/2013  16:30:00      -12.989      162.949      -31.238       36.310       91.420       23.563     1318.401     8357.680      555.198        1.896        0.512      163.466       23.884        0.021      348.672       28.537      858.144
09/10/2013  16:31:00      -32.950      163.902      -10.771       40.156       67.770       26.988     1612.488     4592.763      728.362        1.750        0.347      167.181       22.151        0.018      348.785       28.733      858.128
09/10/2013  16:32:00       -5.291      143.489      -16.560       39.464       56.321       23.496     1557.388     3172.054      552.072        1.309        0.264      143.586       24.098        0.028      348.755       28.683      858.118
09/10/2013  16:33:00       67.337       50.341        0.778       68.010       32.965       28.754     4625.378     1086.724      826.769        0.680        0.327       84.074       11.801        0.020      348.836       28.823      858.104
09/10/2013  16:34:00      108.620       71.734       24.283       81.874       49.970       43.034     6703.321     2497.007     1851.963        1.429        0.553      130.169       41.720        0.103      348.951       29.021      858.089
09/10/2013  16:35:00       75.650       84.350       18.495       78.832       50.465       48.529     6214.543     2546.682     2355.021        1.215        0.556      113.304       34.764        0.094      348.992       29.092      858.079
09/10/2013  16:36:00      161.652      174.217        6.254      124.824      109.150       72.082    15581.029    11913.754     5195.776        4.460        1.635      237.662       69.874        0.086      348.943       29.005      858.084
09/10/2013  16:37:00       57.176      258.109      -12.881       89.814      152.203       69.847     8066.622    23165.613     4878.572        5.308        1.806      264.366       77.650        0.086      348.792       28.743      858.100
09/10/2013  16:38:00      125.108      153.568        8.936       97.653       76.105       58.361     9536.076     5791.966     3406.051        2.902        0.937      198.079       51.840        0.068      348.741       28.656      858.102
09/10/2013  16:39:00       38.988      200.260      -15.354       55.786      104.394       60.272     3112.079    10898.198     3632.736        2.975        0.882      204.019       64.092        0.099      348.770       28.704      858.115
09/10/2013  16:40:00       35.003      165.867      -10.135       63.015       80.400       55.341     3970.881     6464.165     3062.616        2.117        0.675      169.520       52.541        0.096      348.889       28.913      858.113
09/10/2013  16:41:00      -33.047      170.232      -39.964       47.935       53.033       26.515     2297.722     2812.473      703.020        1.874        0.291      173.410       18.549        0.011      348.670       28.535      858.106
09/10/2013  16:42:00        0.373       55.973        5.491       50.329       58.336       32.264     2533.022     3403.094     1040.957        0.507        0.349       55.975       36.233        0.419      348.723       28.628      858.099
09/10/2013  16:43:00       98.319       53.573       17.032       68.547       49.050       39.982     4698.716     2405.948     1598.556        1.076        0.435      111.968       24.861        0.049      348.781       28.727      858.084
09/10/2013  16:44:00      119.843       92.225       52.699       88.015       53.061       48.750     7746.665     2815.495     2376.541        1.929        0.647      151.221       19.849        0.017      348.806       28.769      858.093
09/10/2013  16:45:00      -44.179      149.353      -22.742       61.795       55.257       32.007     3818.593     3053.322     1024.440        1.633        0.395      155.750       20.256        0.017      348.924       28.974      858.104
09/10/2013  16:46:00      -84.258      124.580      -28.162       26.756       78.617       24.048      715.884     6180.558      578.291        1.544        0.374      150.398        3.705        0.001      348.736       28.649      858.108
09/10/2013  16:47:00      -21.902      201.881      -30.254       55.835       54.847       28.393     3117.570     3008.144      806.140        2.454        0.347      203.066       16.463        0.007      348.773       28.712      858.107
09/10/2013  16:48:00      -32.174       82.493       -7.758       35.815       48.101       21.076     1282.680     2313.664      444.195        0.597        0.202       88.545       22.932        0.067      348.824       28.803      858.105
09/10/2013  16:49:00     -124.223       -2.954        8.121       77.898       52.539       32.469     6068.080     2760.314     1054.260        1.269        0.494      124.258       31.740        0.065      349.138       29.346      858.095
09/10/2013  16:50:00      -70.532      -16.991        5.797       60.262       39.526       38.829     3631.508     1562.297     1507.684        0.600        0.335       72.550       30.220        0.174      349.230       29.507      858.092
09/10/2013  16:51:00     -106.193      -61.908       -1.770       72.913       64.228       32.921     5316.293     4125.242     1083.820        1.282        0.526      122.921       30.502        0.062      349.064       29.218      858.089
09/10/2013  16:52:00     -148.404      -15.470       -7.422       46.381       35.719       24.155     2151.195     1275.814      583.448        1.316        0.201      149.208       19.965        0.018      348.929       28.985      858.091
09/10/2013  16:53:00      -99.692      -12.330        7.408       61.161       44.813       31.461     3740.709     2008.163      989.779        0.844        0.337      100.452       30.922        0.095      349.202       29.458      858.084
09/10/2013  16:54:00     -233.786       -0.347      -25.562       56.218       65.288       37.932     3160.426     4262.562     1438.866        3.208        0.443      233.787       32.443        0.019      348.838       28.824      858.078
09/10/2013  16:55:00     -236.915      -26.238      -19.828       55.423       44.511       31.942     3071.702     1981.221     1020.297        3.164        0.304      238.363       30.215        0.016      348.930       28.981      858.070
09/10/2013  16:56:00     -145.694      -36.551      -10.211       59.937       63.531       34.085     3592.462     4036.238     1161.789        1.573        0.440      150.209       35.614        0.056      349.204       29.458      858.063
09/10/2013  16:57:00     -125.321      -22.111        0.515       44.209       66.216       29.306     1954.452     4384.557      858.818        1.169        0.360      127.257       22.311        0.031      349.242       29.527      858.065
09/10/2013  16:58:00      -77.705      -55.883        5.712       78.983       48.861       29.711     6238.379     2387.409      882.743        0.935        0.475       95.713       32.001        0.112      348.855       28.855      858.059
09/10/2013  16:59:00     -130.547      -52.627       -5.288       52.334       28.818       23.453     2738.800      830.493      550.034        1.198        0.206      140.756       22.457        0.025      348.839       28.826      858.074
09/10/2013  17:00:00      -45.986        2.627       31.527       46.406       51.187       26.277     2153.543     2620.062      690.490        0.429        0.273       46.061       21.060        0.209      348.645       28.493      858.080
09/10/2013  17:01:00       44.971       32.998        7.639       30.281       26.790       28.501      916.963      717.723      812.322        0.281        0.122       55.779       17.383        0.097      347.987       27.354      858.091
09/10/2013  17:02:00       59.783       42.579       56.002       60.764       45.655       37.106     3692.267     2084.396     1376.850        0.784        0.358       73.396       30.662        0.175      348.281       27.863      858.101
09/10/2013  17:03:00       24.133        0.804       39.368       51.949       51.181       24.164     2698.750     2619.444      583.894        0.402        0.295       24.146       22.846        0.895      348.733       28.645      858.090
09/10/2013  17:04:00       48.118      -13.431       33.410       43.590       50.502       31.500     1900.046     2550.418      992.236        0.453        0.272       49.958       23.180        0.215      348.207       27.735      858.080
09/10/2013  17:05:00       82.373       37.739       46.005       75.483       85.787       49.158     5697.658     7359.344     2416.508        1.290        0.774       90.606       54.951        0.368      348.218       27.753      858.066
09/10/2013  17:06:00       31.314      127.969       -9.860       60.971       68.868       34.047     3717.444     4742.858     1159.191        1.353        0.481      131.745       29.731        0.051      348.864       28.872      858.095
09/10/2013  17:07:00       70.584       32.716        6.652       43.874       37.584       32.265     1924.902     1412.576     1041.026        0.524        0.219       77.798       18.332        0.056      348.918       28.965      858.103
09/10/2013  17:08:00       64.519       67.086       31.246       68.428       49.901       36.755     4682.402     2490.074     1350.948        0.908        0.426       93.076       22.518        0.059      349.083       29.250      858.095
09/10/2013  17:09:00       69.404       98.989        1.443       63.361       88.343       42.791     4014.604     7804.547     1831.076        1.413        0.683      120.896       51.053        0.178      348.993       29.093      858.097
09/10/2013  17:10:00     -129.621       77.920       -7.774      106.024       92.140       42.094    11241.032     8489.697     1771.934        2.221        1.075      151.238       25.692        0.029      348.973       29.058      858.090
09/10/2013  17:11:00      -22.643      -53.299      -13.347      138.323       50.803       38.163    19133.195     2580.976     1456.431        1.335        1.159       57.909       30.656        0.280      348.460       28.171      858.068
09/10/2013  17:12:00      105.317     -124.799      -16.700       78.330       77.554       39.008     6135.628     6014.622     1521.634        2.031        0.684      163.298       35.686        0.048      348.807       28.773      858.064
09/10/2013  17:13:00       93.459      -58.567        3.718       60.864      139.145       50.708     3704.451    19361.406     2571.257        1.890        1.282      110.294       32.424        0.086      348.930       28.985      858.054
09/10/2013  17:14:00       23.475        8.766       25.753       40.201       45.691       35.023     1616.151     2087.689     1226.628        0.311        0.247       25.058       16.031        0.409      348.547       28.323      858.075
09/10/2013  17:15:00       40.472       27.562       29.766       47.082       31.657       26.605     2216.698     1002.190      707.824        0.360        0.196       48.966       11.337        0.054      348.606       28.424      858.083
09/10/2013  17:16:00      119.308      165.734      151.910      137.072      107.123      106.378    18788.729    11475.418    11316.371        5.317        2.079      204.211      110.151        0.291      348.706       28.594      858.056
09/10/2013  17:17:00      236.466      154.527       27.228      125.430       77.150       72.106    15732.738     5952.156     5199.336        5.370        1.344      282.480       61.559        0.047      348.957       29.028      858.066
09/10/2013  17:18:00      242.548      129.716       24.444       84.182       74.846       60.047     7086.606     5601.877     3605.601        4.627        0.815      275.056       27.141        0.010      349.020       29.137      858.077
09/10/2013  17:19:00      112.505       72.965       14.722       91.359       50.295       47.404     8346.465     2529.627     2247.162        1.566        0.656      134.095       43.353        0.105      348.938       28.997      858.093
09/10/2013  17:20:00      207.903      158.327       35.465      116.254       77.212       64.347    13515.080     5961.651     4140.597        4.658        1.181      261.326       56.925        0.047      348.950       29.018      858.099
09/10/2013  17:21:00      290.126      175.461       42.594       95.320       91.064       65.087     9085.986     8292.691     4236.268        6.919        1.081      339.057       41.690        0.015      348.850       28.843      858.102
09/10/2013  17:22:00      227.639      148.346       65.572      108.701       81.369       72.120    11815.891     6620.926     5201.310        5.088        1.182      271.710       48.682        0.032      348.841       28.825      858.108
09/10/2013  17:23:00      198.617      103.952       36.429      124.656       71.658       56.500    15539.133     5134.859     3192.297        3.772        1.193      224.176       57.028        0.065      348.745       28.663      858.109
09/10/2013  17:24:00      142.406      117.136       16.741       92.375       68.607       48.425     8533.100     4706.947     2344.966        2.493        0.779      184.392       25.875        0.020      348.933       28.990      858.117
09/10/2013  17:25:00       65.899       77.491       -0.838       72.129       58.094       41.409     5202.558     3374.931     1714.683        1.032        0.515      101.723       37.893        0.139      349.048       29.189      858.130
09/10/2013  17:26:00       68.187      184.170      -20.249       90.865       95.601       60.619     8256.473     9139.647     3674.627        3.002        1.054      196.388       54.394        0.077      348.947       29.010      858.141
09/10/2013  17:27:00       77.847      130.386       -9.651       67.612       72.371       45.351     4571.316     5237.539     2056.710        1.751        0.593      151.858       48.253        0.101      348.951       29.021      858.148
09/10/2013  17:28:00       59.789      193.321      -25.163       61.541       97.405       47.857     3787.275     9487.666     2290.299        2.857        0.778      202.356       53.815        0.071      348.849       28.841      858.160
09/10/2013  17:29:00       35.681      102.887        0.061       52.468       75.302       40.763     2752.943     5670.386     1661.612        1.097        0.504      108.899       43.602        0.160      348.860       28.863      858.161
09/10/2013  17:30:00       10.417      125.435       -4.451       49.566       54.734       35.526     2456.815     2995.762     1262.077        1.129        0.336      125.867       33.478        0.071      348.883       28.902      858.163
09/10/2013  17:31:00       37.500       64.513       -0.405       50.582       38.910       34.140     2558.508     1514.022     1165.524        0.540        0.262       74.620       26.136        0.123      348.950       29.020      858.161
09/10/2013  17:32:00        2.246       75.446       -0.926       45.377       78.766       32.887     2059.057     6204.119     1081.530        0.752        0.467       75.480       43.220        0.328      348.874       28.888      858.171
09/10/2013  17:33:00       76.291      108.174        3.378       80.786       69.331       38.607     6526.333     4806.786     1490.532        1.518        0.641      132.370       34.779        0.069      348.837       28.823      858.167
09/10/2013  17:34:00       96.304       70.443        9.777       76.030       53.049       30.294     5780.554     2814.163      917.709        1.192        0.476      119.318       12.736        0.011      348.790       28.743      858.182
09/10/2013  17:35:00       53.961       32.938       26.928       55.107       32.163       39.040     3036.814     1034.437     1524.133        0.516        0.280       63.219       23.342        0.136      348.772       28.712      858.194
09/10/2013  17:36:00      100.370       51.969       29.278       52.650       47.034       35.765     2772.048     2212.175     1279.132        0.995        0.313      113.026       13.561        0.014      348.697       28.582      858.201
09/10/2013  17:37:00      100.247       50.944       18.996       54.985       44.438       36.082     3023.326     1974.767     1301.921        0.965        0.315      112.449       30.151        0.072      348.770       28.707      858.207
09/10/2013  17:38:00       35.763       34.380       -1.158       36.462       36.617       21.400     1329.501     1340.817      457.950        0.279        0.156       49.608       13.917        0.079      348.744       28.664      858.203
09/10/2013  17:39:00       23.086      137.955      -20.861       45.613       48.776       24.704     2080.557     2379.064      610.277        1.253        0.253      139.873       28.308        0.041      348.937       28.997      858.210
09/10/2013  17:40:00       13.702      144.595      -18.509       62.568       75.602       34.251     3914.765     5715.618     1173.162        1.612        0.540      145.242       36.926        0.065      348.842       28.833      858.208
09/10/2013  17:41:00      109.738       78.452       29.926       63.584       50.580       48.084     4042.971     2558.379     2312.037        1.400        0.446      134.897       28.926        0.046      348.885       28.906      858.215
09/10/2013  17:42:00       27.002      141.868      -16.308       42.546       89.601       39.800     1810.178     8028.348     1584.005        1.627        0.571      144.414       50.228        0.121      348.805       28.768      858.219
09/10/2013  17:43:00      -18.906      102.317      -14.172       32.535       41.976       25.888     1058.544     1762.017      670.202        0.726        0.175      104.049       25.993        0.062      348.807       28.772      858.211
09/10/2013  17:44:00      -13.090       51.167        8.712       50.088       37.746       28.805     2508.782     1424.784      829.732        0.381        0.238       52.815       26.126        0.245      348.835       28.822      858.196
09/10/2013  17:45:00       28.804      143.870      -21.020       30.561       64.419       21.578      933.989     4149.788      465.593        1.376        0.277      146.725       26.376        0.032      348.837       28.824      858.220
09/10/2013  17:46:00       15.742      186.114      -31.024       44.805       46.476       28.604     2007.481     2160.013      818.208        2.042        0.249      186.779       24.375        0.017      348.825       28.802      858.220
09/10/2013  17:47:00       -5.096      222.085      -21.988       59.297       87.340       48.656     3516.150     7628.327     2367.418        3.167        0.676      222.143       46.243        0.043      348.855       28.852      858.230
09/10/2013  17:48:00        3.233      254.558      -22.074       82.226      105.783       53.460     6761.094    11190.046     2857.921        4.305        1.040      254.578       52.778        0.043      348.783       28.727      858.236
09/10/2013  17:49:00       28.696      197.293      -27.692       52.041       95.705       52.471     2708.297     9159.352     2753.172        2.756        0.731      199.369       51.714        0.067      348.789       28.738      858.242
09/10/2013  17:50:00       48.795      134.653      -12.013       82.613       75.261       58.440     6824.950     5664.220     3415.283        1.828        0.795      143.221       53.394        0.139      348.772       28.711      858.242
09/10/2013  17:51:00       14.583      133.806      -21.192       40.020       55.708       33.637     1601.593     3103.425     1131.464        1.220        0.292      134.598       37.636        0.078      348.849       28.845      858.250
09/10/2013  17:52:00       25.248      105.842       -6.287       48.612       46.558       32.556     2363.097     2167.664     1059.878        0.873        0.280      108.812       30.852        0.080      348.821       28.796      858.266
09/10/2013  17:53:00      156.886      100.096       15.301       82.220       53.925       54.237     6760.061     2907.931     2941.628        2.374        0.630      186.098       36.914        0.039      348.811       28.776      858.273
09/10/2013  17:54:00      164.815      107.767       34.926       81.741       68.724       57.463     6681.563     4722.991     3302.034        2.735        0.735      196.921       43.457        0.049      348.656       28.508      858.267
09/10/2013  17:55:00      217.484      103.405       21.444       76.671       50.776       51.874     5878.415     2578.168     2690.933        3.480        0.557      240.815       20.708        0.007      348.665       28.524      858.268
09/10/2013  17:56:00      124.021      135.917       21.120       99.235       78.046       62.064     9847.555     6091.103     3851.886        2.704        0.990      183.996       46.427        0.064      348.718       28.617      858.281
09/10/2013  17:57:00      193.688      155.612       11.849      121.224       89.218       83.270    14695.158     7959.795     6933.923        4.572        1.479      248.455       48.979        0.039      348.663       28.521      858.283
09/10/2013  17:58:00      261.236      213.719       34.903      124.153       98.040       69.480    15414.021     9611.779     4827.470        7.249        1.493      337.521       56.860        0.028      348.661       28.517      858.276
09/10/2013  17:59:00      237.516      167.289       16.072      118.214       89.924       72.677    13974.642     8086.319     5281.990        5.599        1.367      290.516       48.777        0.028      348.661       28.517      858.289
09/10/2013  18:00:00      216.750      155.194       25.448      126.537       91.636       66.666    16011.637     8397.097     4444.303        5.028        1.443      266.581       41.952        0.025      348.653       28.502      858.288
09/10/2013  18:01:00       98.888      111.977        5.717       90.087       60.437       44.984     8115.687     3652.660     2023.559        1.807        0.690      149.391       41.524        0.077      348.662       28.520      858.294
09/10/2013  18:02:00       70.215       72.816        0.162       58.621       71.756       37.713     3436.455     5148.870     1422.273        1.012        0.500      101.155       34.829        0.119      348.643       28.489      858.296
09/10/2013  18:03:00       95.688      128.887       11.160       93.238       76.933       52.222     8693.407     5918.712     2727.140        2.161        0.867      160.524       41.454        0.067      348.714       28.610      858.308
09/10/2013  18:04:00       65.542       76.450        7.403       66.943       42.566       35.516     4481.368     1811.886     1261.402        0.887        0.378      100.700       21.556        0.046      348.697       28.581      858.317
09/10/2013  18:05:00       47.110       98.082      -12.057       51.698       45.241       30.767     2672.690     2046.741      946.595        0.882        0.283      108.809       29.259        0.072      348.748       28.671      858.334
09/10/2013  18:06:00       54.812       76.984        4.048       59.047       69.950       44.000     3486.551     4892.991     1935.988        0.963        0.516       94.503       43.387        0.211      348.738       28.654      858.344
09/10/2013  18:07:00       35.468      135.575        1.450       81.187       91.010       48.659     6591.289     8282.909     2367.656        1.844        0.862      140.137       46.523        0.110      348.705       28.595      858.353
09/10/2013  18:08:00       28.835       36.193        2.744       59.798       50.923       34.323     3575.747     2593.201     1178.064        0.475        0.367       46.275       21.603        0.218      348.740       28.657      858.349
09/10/2013  18:09:00      122.760       61.386       12.368       56.694       53.779       42.231     3214.194     2892.209     1783.484        1.344        0.394      137.253       34.268        0.062      348.572       28.365      858.356
09/10/2013  18:10:00      121.874       80.351        5.590       86.103       54.605       43.877     7413.811     2981.727     1925.179        1.683        0.616      145.978       29.567        0.041      348.577       28.372      858.369
09/10/2013  18:11:00      160.294      116.955       34.987      103.241       63.230       55.229    10658.648     3998.050     3050.218        2.915        0.885      198.426       26.376        0.018      348.583       28.381      858.382
09/10/2013  18:12:00      105.618      129.979        5.405       95.029       79.803       69.777     9030.493     6368.531     4868.824        2.417        1.013      167.480       45.418        0.074      348.597       28.406      858.394
09/10/2013  18:13:00      128.315      136.852        7.026       79.466       78.045       59.610     6314.867     6091.037     3553.320        2.560        0.798      187.598       54.954        0.086      348.598       28.410      858.402
09/10/2013  18:14:00       33.364      230.480      -30.139       57.732       67.056       43.158     3332.972     4496.517     1862.572        3.242        0.485      232.883       41.751        0.032      348.592       28.399      858.416
09/10/2013  18:15:00       37.113      134.173       -8.776       53.794       67.843       47.111     2893.793     4602.736     2219.484        1.458        0.486      139.211       41.977        0.091      348.606       28.423      858.424
09/10/2013  18:16:00       51.166       58.260        7.507       52.994       76.167       41.796     2808.384     5801.427     1746.876        0.821        0.518       77.538       43.758        0.318      348.616       28.442      858.430
09/10/2013  18:17:00       28.447       48.905       10.561       51.729       46.722       36.121     2675.878     2182.971     1304.749        0.474        0.308       56.576       28.052        0.246      348.642       28.487      858.432
09/10/2013  18:18:00       40.724      127.236      -10.527       61.258       93.790       48.877     3752.543     8796.620     2388.957        1.645        0.747      133.594       50.763        0.144      348.618       28.445      858.431
09/10/2013  18:19:00       11.753      337.385      -60.096       74.956       77.618       33.907     5618.434     6024.613     1149.678        6.518        0.640      337.590       37.866        0.013      348.565       28.350      858.453
09/10/2013  18:20:00      -54.392      326.139      -44.493       57.451       70.828       38.629     3300.614     5016.623     1492.188        6.056        0.490      330.643       34.408        0.011      348.561       28.342      858.444
09/10/2013  18:21:00       47.355      242.981      -11.604       81.583      105.127       60.520     6655.822    11051.595     3662.697        4.139        1.069      247.552       66.090        0.071      348.554       28.330      858.454
09/10/2013  18:22:00       53.243      177.118      -10.475       68.039       95.806       54.720     4629.330     9178.726     2994.320        2.556        0.840      184.948       51.348        0.077      348.543       28.312      858.465
09/10/2013  18:23:00       52.876      119.505       -3.879       56.712       68.144       48.415     3216.224     4643.555     2344.048        1.365        0.510      130.681       42.220        0.104      348.554       28.333      858.463
09/10/2013  18:24:00       29.056       87.486      -15.994       45.996       50.302       29.109     2115.602     2530.243      847.356        0.712        0.275       92.185       15.484        0.028      348.558       28.340      858.454
09/10/2013  18:25:00      -27.595      107.262      -20.632       26.161       41.928       18.612      684.417     1757.925      346.422        0.774        0.139      110.755       19.350        0.031      348.523       28.282      858.462
09/10/2013  18:26:00      -41.541      137.949      -15.578       71.494       72.454       38.207     5111.327     5249.551     1459.761        1.641        0.591      144.068       36.004        0.062      348.568       28.358      858.464
09/10/2013  18:27:00        5.855      208.198      -21.795       40.779       62.979       30.145     1662.901     3966.319      908.698        2.520        0.327      208.280       30.136        0.021      348.551       28.329      858.473
09/10/2013  18:28:00       52.960      115.552       -5.489       46.330       85.592       35.162     2146.509     7325.947     1236.344        1.345        0.535      127.111       44.645        0.123      348.523       28.279      858.473
09/10/2013  18:29:00       41.839       80.950        3.493       39.537       49.663       30.686     1563.180     2466.415      941.658        0.664        0.249       91.123       22.471        0.061      348.519       28.274      858.478
09/10/2013  18:30:00       62.904      161.952        1.098       85.090       96.331       57.030     7240.340     9279.591     3252.397        2.498        0.989      173.739       62.212        0.128      348.538       28.304      858.485
09/10/2013  18:31:00       29.701      203.309      -24.160       66.700      118.405       61.091     4448.904    14019.805     3732.067        3.250        1.110      205.467       66.202        0.104      348.501       28.240      858.489
09/10/2013  18:32:00        0.613      353.927      -55.148       86.600       89.275       46.868     7499.516     7969.958     2196.580        7.298        0.883      353.928       44.971        0.016      348.508       28.251      858.502
09/10/2013  18:33:00       -5.000      247.389      -18.728       57.840      121.727       57.530     3345.421    14817.409     3309.692        4.152        1.074      247.439       70.300        0.081      348.476       28.196      858.509
09/10/2013  18:34:00       47.821      311.988      -42.159       72.104      103.082       49.402     5199.012    10625.797     2440.531        5.983        0.913      315.632       55.175        0.031      348.455       28.159      858.512
09/10/2013  18:35:00       55.745      216.216      -32.216       67.398       99.015       57.455     4542.427     9803.929     3301.038        3.427        0.882      223.287       59.195        0.070      348.444       28.142      858.520
09/10/2013  18:36:00       12.101      202.048      -30.837       55.567       64.037       35.748     3087.670     4100.747     1277.927        2.519        0.423      202.411       32.687        0.026      348.430       28.119      858.534
09/10/2013  18:37:00       -7.167      260.594      -30.478       61.293       49.719       38.041     3756.883     2471.987     1447.147        3.828        0.384      260.693       21.570        0.007      348.447       28.144      858.537
09/10/2013  18:38:00       37.726      281.352      -43.308       51.925       76.840       36.605     2696.217     5904.449     1339.942        4.620        0.497      283.870       36.138        0.016      348.444       28.142      858.556
09/10/2013  18:39:00       25.339      185.927      -12.044       53.164      113.987       66.708     2826.453    12993.026     4449.982        2.781        1.013      187.646       75.778        0.163      348.406       28.075      858.549
09/10/2013  18:40:00       36.047      171.952      -17.182       57.082       74.358       46.838     3258.371     5529.051     2193.817        2.107        0.549      175.690       48.891        0.077      348.379       28.031      858.546
09/10/2013  18:41:00        6.020      293.545      -37.579       65.043      106.354       44.367     4230.655    11311.128     1968.404        5.256        0.876      293.607       47.438        0.026      348.413       28.088      858.546
09/10/2013  18:42:00       37.692      213.161      -18.804       71.810       91.208       54.573     5156.721     8318.931     2978.248        3.183        0.823      216.468       56.934        0.069      348.344       27.969      858.568
09/10/2013  18:43:00       41.967      144.230       -9.289       89.674       98.332       56.462     8041.397     9669.154     3187.946        2.177        1.045      150.211       57.525        0.147      348.362       28.001      858.566
09/10/2013  18:44:00       75.937      225.297      -17.803       85.927      170.209       76.790     7383.379    28971.199     5896.777        4.954        2.113      237.751       92.910        0.153      348.351       27.980      858.564
09/10/2013  18:45:00       35.548      252.548      -37.862       65.375       86.400       47.723     4273.886     7464.904     2277.483        4.024        0.701      255.038       47.286        0.034      348.313       27.915      858.589
09/10/2013  18:46:00        6.116      185.449       -7.152       61.686      130.762       54.602     3805.175    17098.599     2981.344        2.918        1.194      185.550       73.237        0.156      348.300       27.893      858.601
09/10/2013  18:47:00       46.008      212.508      -26.878       64.138      113.936       50.787     4113.660    12981.464     2579.305        3.383        0.984      217.431       62.716        0.083      348.306       27.903      858.612
09/10/2013  18:48:00      -11.236      209.933      -23.131       53.033      112.587       44.185     2812.482    12675.827     1952.325        3.108        0.872      210.233       55.438        0.070      348.306       27.902      858.624
09/10/2013  18:49:00       52.969      231.635      -25.880       67.828       91.393       57.054     4600.584     8352.643     3255.138        3.667        0.810      237.615       57.336        0.058      348.348       27.976      858.632
09/10/2013  18:50:00       40.510      183.041      -17.273       54.687      112.965       58.631     2990.671    12761.106     3437.590        2.731        0.959      187.470       69.466        0.137      348.328       27.942      858.627
09/10/2013  18:51:00       31.122      108.661        5.491       46.570       79.729       54.579     2168.788     6356.755     2978.890        1.215        0.575      113.030       53.896        0.227      348.274       27.850      858.625
09/10/2013  18:52:00       25.821      187.329      -27.931       74.967      109.171       48.197     5620.012    11918.222     2322.984        2.820        0.993      189.100       51.728        0.075      348.297       27.889      858.629
09/10/2013  18:53:00       50.156      162.645      -16.305       44.105       69.707       41.546     1945.294     4859.125     1726.073        1.888        0.427      170.203       42.769        0.063      348.225       27.762      858.626
09/10/2013  18:54:00       25.606       77.054        0.933       37.542       62.037       35.231     1409.370     3848.649     1241.235        0.655        0.325       81.197       36.220        0.199      348.196       27.716      858.621
09/10/2013  18:55:00       27.999      179.421      -25.683       41.387       48.646       32.078     1712.891     2366.448     1029.001        1.937        0.255      181.593       25.727        0.020      348.194       27.711      858.626
09/10/2013  18:56:00       35.732      154.077       -7.970       63.135       94.511       49.804     3986.085     8932.359     2480.475        2.024        0.770      158.166       50.117        0.100      348.161       27.653      858.626
09/10/2013  18:57:00       40.582      133.464       -4.705       67.703      102.064       58.741     4583.728    10417.127     3450.519        1.896        0.923      139.498       60.813        0.190      348.185       27.696      858.616
09/10/2013  18:58:00       46.058      224.838      -23.334       57.787       73.721       44.479     3339.311     5434.810     1978.358        3.198        0.538      229.507       45.100        0.039      348.202       27.722      858.627
09/10/2013  18:59:00       30.581      237.295      -29.755       53.081       66.833       41.213     2817.645     4466.639     1698.490        3.355        0.449      239.258       40.195        0.028      348.182       27.688      858.626
09/10/2013  19:00:00       13.880      232.710      -40.582       53.696       64.455       41.611     2883.302     4154.509     1731.442        3.238        0.438      233.124       33.527        0.021      348.236       27.782      858.627
09/10/2013  19:01:00      -12.029      177.419      -22.460       51.201       53.277       25.212     2621.583     2838.453      635.645        1.911        0.305      177.826       24.295        0.019      348.130       27.599      858.643
09/10/2013  19:02:00      -22.833      156.387      -14.930       51.418       76.973       32.829     2643.844     5924.880     1077.759        1.742        0.482      158.045       42.812        0.073      348.136       27.609      858.639
09/10/2013  19:03:00        4.532      131.910       -7.523       59.224       59.862       39.981     3507.472     3583.476     1598.446        1.308        0.434      131.987       36.817        0.078      348.026       27.422      858.644
09/10/2013  19:04:00      -53.733      226.035      -33.260       40.204       58.653       28.172     1616.353     3440.185      793.685        3.047        0.293      232.334       27.234        0.014      348.170       27.668      858.661
09/10/2013  19:05:00      -42.748      162.074      -26.196       30.528       63.693       22.040      931.943     4056.811      485.748        1.713        0.274      167.617       23.592        0.020      348.152       27.638      858.655
09/10/2013  19:06:00      -33.545      211.894      -27.455       43.757       50.157       26.585     1914.650     2515.679      706.784        2.596        0.257      214.533       22.205        0.011      348.135       27.607      858.662
09/10/2013  19:07:00        0.267      157.691      -14.988       48.581       41.866       21.698     2360.151     1752.723      470.789        1.484        0.229      157.691       15.007        0.009      348.067       27.493      858.667
09/10/2013  19:08:00      -16.405      164.696      -14.373       47.303       60.816       34.918     2237.568     3698.543     1219.294        1.738        0.358      165.511       37.658        0.052      348.020       27.411      858.667
09/10/2013  19:09:00        7.683      166.821      -22.481       33.506       34.560       20.191     1122.624     1194.363      407.675        1.556        0.136      166.998       12.482        0.006      348.100       27.548      858.681
09/10/2013  19:10:00      -18.123      124.953      -14.086       48.452       47.072       19.254     2347.634     2215.748      370.720        1.054        0.247      126.260       14.893        0.014      347.970       27.325      858.687
09/10/2013  19:11:00      -32.811      138.103      -20.746       51.572       31.876       22.826     2659.631     1016.070      521.023        1.239        0.210      141.947       18.129        0.016      347.970       27.326      858.693
09/10/2013  19:12:00      -20.014      165.738      -15.756       53.817       59.882       25.529     2896.254     3585.821      651.727        1.762        0.357      166.942       24.200        0.021      348.034       27.435      858.703
09/10/2013  19:13:00       -7.364      214.601      -30.919       57.944       58.179       36.941     3357.548     3384.841     1364.621        2.758        0.405      214.727       37.572        0.031      348.047       27.454      858.704
09/10/2013  19:14:00        8.222      206.687      -32.960       43.378       37.280       24.590     1881.694     1389.798      604.662        2.387        0.194      206.850       21.380        0.011      348.016       27.401      858.717
09/10/2013  19:15:00      -42.702      156.422      -16.359       29.585       38.191       22.457      875.273     1458.576      504.295        1.470        0.142      162.145       13.982        0.007      348.009       27.392      858.724
09/10/2013  19:16:00       -9.143      114.403      -19.087       34.866       45.943       19.106     1215.661     2110.755      365.050        0.861        0.185      114.768       18.799        0.027      347.956       27.301      858.727
09/10/2013  19:17:00      -48.022      172.090      -20.027       39.803       81.025       28.487     1584.291     6565.057      811.537        2.064        0.448      178.665       31.383        0.031      347.971       27.324      858.733
09/10/2013  19:18:00      -34.628      146.806      -17.278       24.978       32.190       19.162      623.922     1036.164      367.195        1.254        0.101      150.835       17.362        0.013      347.953       27.295      858.731
09/10/2013  19:19:00        1.817      159.664      -25.507       36.305       63.370       26.839     1318.056     4015.811      720.356        1.610        0.303      159.675       33.629        0.044      347.934       27.263      858.746
09/10/2013  19:20:00      -32.991      173.749      -29.845       34.563       47.429       22.901     1194.572     2249.534      524.460        1.807        0.198      176.854       23.274        0.017      347.930       27.256      858.745
09/10/2013  19:21:00      -18.974      198.547      -26.907       39.161       43.982       24.041     1533.582     1934.447      577.950        2.227        0.202      199.452       20.517        0.011      347.935       27.263      858.752
09/10/2013  19:22:00      -22.975      216.087      -26.744       62.861       46.156       30.443     3951.522     2130.386      926.807        2.747        0.350      217.305       23.632        0.012      347.929       27.251      858.767
09/10/2013  19:23:00       -4.908      182.306      -18.338       55.517       48.231       37.171     3082.109     2326.255     1381.652        2.019        0.340      182.372       30.102        0.027      347.866       27.144      858.771
09/10/2013  19:24:00      -13.077      140.610      -16.379       43.401       64.342       32.876     1883.623     4139.919     1080.864        1.366        0.355      141.217       27.557        0.038      347.794       27.020      858.781
09/10/2013  19:25:00      -10.276      183.689      -25.103       51.093       46.703       24.483     2610.480     2181.196      599.420        1.993        0.270      183.976       20.738        0.013      347.849       27.115      858.785
09/10/2013  19:26:00      -30.513      162.128      -21.915       35.625       38.168       26.083     1269.105     1456.813      680.317        1.555        0.170      164.975       20.883        0.016      347.792       27.018      858.792
09/10/2013  19:27:00      -25.426      151.871      -22.776       33.048       40.266       18.351     1092.193     1621.344      336.766        1.364        0.153      153.985       16.522        0.012      347.783       27.002      858.796
09/10/2013  19:28:00        8.614      170.604      -26.927       30.918       66.103       25.765      955.936     4369.572      663.857        1.795        0.299      170.822       28.574        0.028      347.779       26.993      858.814
09/10/2013  19:29:00      -34.293       90.818      -16.573       25.143       26.268       15.858      632.185      690.004      251.461        0.564        0.079       97.077       10.215        0.011      347.563       26.624      858.826
09/10/2013  19:30:00      -51.437       57.823      -10.429       25.003       26.997       18.224      625.145      728.864      332.109        0.389        0.084       77.390       14.499        0.035      347.611       26.706      858.848
09/10/2013  19:31:00      -43.412      180.381      -31.948       39.734       43.726       24.445     1578.770     1911.966      597.536        1.976        0.204      185.531       18.954        0.010      347.705       26.867      858.856
09/10/2013  19:32:00      -27.229      131.955      -17.265       36.013       58.921       22.161     1296.933     3471.671      491.111        1.185        0.263      134.735       22.239        0.027      347.665       26.798      858.873
09/10/2013  19:33:00      -53.687       66.274      -11.447       39.933       44.621       23.271     1594.611     1991.045      541.516        0.577        0.206       85.291       21.728        0.065      347.646       26.767      858.878
09/10/2013  19:34:00      -54.121      114.578      -15.996       31.128       47.400       23.323      968.922     2246.720      543.953        1.004        0.188      126.717       16.142        0.016      347.594       26.677      858.895
09/10/2013  19:35:00      -80.800      148.354      -22.425       40.714       54.565       33.261     1657.633     2977.290     1106.277        1.739        0.287      168.930       31.020        0.034      347.610       26.704      858.909
09/10/2013  19:36:00      -41.649      114.798      -11.071       39.570       40.091       20.106     1565.766     1607.319      404.254        0.931        0.179      122.120       21.179        0.030      347.651       26.775      858.917
09/10/2013  19:37:00      -63.813       57.759      -14.605       34.021       25.705       17.748     1157.406      660.744      314.987        0.488        0.107       86.071       15.180        0.031      347.586       26.664      858.931
09/10/2013  19:38:00      -58.236       38.988        0.415       36.349       29.401       22.934     1321.271      864.429      525.954        0.381        0.136       70.082       20.261        0.084      347.500       26.516      858.937
09/10/2013  19:39:00      -99.630      132.109      -21.589       69.329       91.711       49.813     4806.568     8410.927     2481.296        2.177        0.785      165.466       49.399        0.089      347.602       26.689      858.951
09/10/2013  19:40:00      -51.004       94.450       -2.640       44.274       52.023       32.078     1960.144     2706.439     1029.026        0.861        0.285      107.341       26.709        0.062      347.466       26.455      858.964
09/10/2013  19:41:00      -71.393       36.300       -1.847       40.073       26.462       26.290     1605.842      700.261      691.187        0.471        0.150       80.092       22.492        0.079      347.464       26.452      858.982
09/10/2013  19:42:00      -90.872       83.945      -20.523       49.116       45.299       28.677     2412.341     2052.043      822.356        1.051        0.264      123.711       30.595        0.061      347.541       26.585      858.999
09/10/2013  19:43:00      -61.025       51.747       -1.724       60.511       29.358       25.387     3661.632      861.866      644.489        0.579        0.258       80.011       32.383        0.164      347.397       26.337      859.012
09/10/2013  19:44:00      -67.311       40.941      -11.981       43.582       28.124       21.397     1899.390      790.933      457.828        0.475        0.157       78.784       24.955        0.100      347.395       26.333      859.024
09/10/2013  19:45:00      -68.610       42.084      -11.309       37.467       33.467       22.245     1403.761     1120.015      494.830        0.481        0.151       80.488       22.137        0.076      347.490       26.494      859.026
09/10/2013  19:46:00      -45.366       78.855      -11.203       30.160       28.829       26.499      909.611      831.132      702.211        0.542        0.122       90.973       16.879        0.034      347.351       26.257      859.036
09/10/2013  19:47:00     -125.272       93.195      -24.825       46.411       58.996       29.165     2153.955     3480.528      850.626        1.574        0.324      156.136       35.183        0.051      347.448       26.423      859.035
09/10/2013  19:48:00      -72.981      111.637      -12.775       38.502       53.390       21.036     1482.385     2850.534      442.500        1.136        0.239      133.376       22.860        0.029      347.321       26.205      859.054
09/10/2013  19:49:00      -82.234       51.806        0.452       40.889       32.113       27.280     1671.892     1031.228      744.204        0.645        0.172       97.192       19.979        0.042      347.271       26.119      859.048
09/10/2013  19:50:00      -75.889       94.896       -8.651       59.585       57.130       29.664     3550.316     3263.865      879.979        1.127        0.385      121.509       39.262        0.104      347.159       25.924      859.063
09/10/2013  19:51:00     -112.261      122.410      -26.483       35.363       38.074       26.552     1250.562     1449.653      705.006        1.585        0.170      166.092       20.883        0.016      347.277       26.128      859.064
09/10/2013  19:52:00     -117.016      125.725      -22.724       59.348       70.057       33.619     3522.225     4907.936     1130.220        1.979        0.478      171.754       33.552        0.038      347.227       26.040      859.081
09/10/2013  19:53:00     -134.963      129.153      -28.287       60.740       57.962       39.247     3689.342     3359.627     1540.320        2.214        0.429      186.803       38.717        0.043      347.199       25.992      859.082
09/10/2013  19:54:00     -134.525      201.292      -34.242       66.492       57.692       41.115     4421.186     3328.327     1690.410        3.461        0.472      242.106       31.767        0.017      347.155       25.917      859.089
09/10/2013  19:55:00     -154.767      170.616      -32.414       68.342       74.840       47.235     4670.619     5601.025     2231.145        3.331        0.625      230.353       45.234        0.039      347.162       25.928      859.092
09/10/2013  19:56:00     -167.508      188.958      -31.832       56.996       92.927       48.378     3248.525     8635.444     2340.458        3.950        0.711      252.516       38.051        0.023      347.182       25.962      859.098
09/10/2013  19:57:00     -186.924      189.428      -44.022       73.774      100.204       48.142     5442.550    10040.915     2317.626        4.528        0.890      266.127       57.316        0.046      347.182       25.962      859.104
09/10/2013  19:58:00     -136.875      151.606      -21.819       59.120       87.579       41.950     3495.194     7670.158     1759.778        2.756        0.646      204.253       35.613        0.030      347.133       25.879      859.104
09/10/2013  19:59:00     -139.460      165.530      -26.247       57.327       88.342       39.141     3286.372     7804.296     1532.026        3.008        0.631      216.447       44.362        0.042      347.123       25.862      859.130
09/10/2013  20:00:00     -169.846      147.598      -31.846       59.446       67.748       37.954     3533.839     4589.814     1440.499        3.060        0.478      225.018       29.340        0.017      347.148       25.903      859.139
09/10/2013  20:01:00     -154.955      188.366      -38.060       70.219       82.471       42.246     4930.738     6801.468     1784.747        3.723        0.676      243.911       38.228        0.025      347.148       25.903      859.160
09/10/2013  20:02:00     -174.853      206.749      -34.773       69.697      115.971       51.027     4857.636    13449.212     2603.770        4.772        1.046      270.774       43.667        0.026      347.146       25.899      859.173
09/10/2013  20:03:00     -206.031      190.795      -52.895       75.477       96.658       48.638     5696.742     9342.689     2365.663        4.952        0.870      280.805       53.310        0.036      347.174       25.948      859.182
09/10/2013  20:04:00     -163.664      166.655      -43.708       68.031       70.175       37.881     4628.194     4924.493     1434.960        3.373        0.549      233.580       34.656        0.022      347.117       25.851      859.201
09/10/2013  20:05:00     -147.580      168.457      -29.581       71.416       93.355       44.660     5100.215     8715.242     1994.556        3.342        0.791      223.959       42.604        0.036      347.099       25.819      859.206
09/10/2013  20:06:00     -180.997      142.670      -40.776       57.144       76.545       39.075     3265.428     5859.088     1526.850        3.271        0.533      230.466       45.095        0.038      347.131       25.875      859.225
09/10/2013  20:07:00      -99.112      129.578      -13.921       50.737       64.809       39.143     2574.198     4200.248     1532.154        1.756        0.415      163.137       33.588        0.042      347.042       25.723      859.236
09/10/2013  20:08:00     -136.489      156.309      -31.523       47.965       59.851       34.673     2300.666     3582.176     1202.246        2.557        0.354      207.513       30.467        0.022      347.129       25.871      859.238
09/10/2013  20:09:00     -138.130      152.091      -33.495       65.192       61.967       43.278     4250.045     3839.880     1873.024        2.665        0.498      205.455       46.611        0.051      347.143       25.896      859.254
09/10/2013  20:10:00      -89.789      121.848      -15.592       41.650       79.493       37.454     1734.701     6319.148     1402.800        1.630        0.473      151.358       39.892        0.069      347.041       25.722      859.257
09/10/2013  20:11:00     -127.103      139.444      -21.039       59.715       67.187       44.858     3565.883     4514.111     2012.253        2.307        0.505      188.679       41.455        0.048      347.100       25.823      859.270
09/10/2013  20:12:00     -125.342      115.299      -22.916       47.969       52.583       33.106     2300.990     2764.952     1096.040        1.784        0.308      170.306       25.317        0.022      347.055       25.747      859.280
09/10/2013  20:13:00     -120.526      164.499      -28.016       64.891       55.415       37.313     4210.854     3070.852     1392.250        2.552        0.434      203.928       42.425        0.043      347.100       25.822      859.302
09/10/2013  20:14:00     -149.066      123.706      -30.710       63.056       53.556       33.396     3976.053     2868.229     1115.319        2.321        0.398      193.711       35.649        0.034      347.120       25.858      859.309
09/10/2013  20:15:00     -122.493      107.414      -23.939       61.319       46.210       36.784     3760.068     2135.385     1353.066        1.718        0.362      162.918       33.907        0.043      347.041       25.721      859.328
09/10/2013  20:16:00     -149.250      175.245      -37.839       57.208       60.775       34.076     3272.733     3693.627     1161.143        3.127        0.406      230.188       36.758        0.025      347.090       25.804      859.349
09/10/2013  20:17:00     -160.539      165.179      -30.848       51.619       90.958       43.009     2664.538     8273.319     1849.767        3.340        0.639      230.341       43.740        0.036      347.073       25.776      859.371
09/10/2013  20:18:00     -150.296      140.627      -36.986       85.125       91.910       47.149     7246.300     8447.487     2223.069        3.082        0.896      205.827       55.865        0.074      347.062       25.757      859.386
09/10/2013  20:19:00     -137.089      184.981      -36.376       63.347       66.825       39.856     4012.887     4465.643     1588.482        3.220        0.503      230.241       34.390        0.022      347.055       25.742      859.404
09/10/2013  20:20:00     -100.688      113.120      -23.736       51.684       67.921       36.309     2671.222     4613.243     1318.311        1.605        0.430      151.440       31.897        0.044      347.012       25.672      859.418
09/10/2013  20:21:00     -124.869      111.808      -27.961       56.466       43.546       32.474     3188.386     1896.215     1054.580        1.751        0.307      167.610       29.206        0.030      347.003       25.655      859.428
09/10/2013  20:22:00     -146.585      152.681      -38.737       63.676       65.618       35.706     4054.573     4305.755     1274.917        2.797        0.482      211.657       41.241        0.038      347.016       25.677      859.447
09/10/2013  20:23:00     -140.851      163.561      -41.563       53.562       66.229       30.315     2868.897     4386.233      918.980        2.824        0.409      215.850       34.117        0.025      347.009       25.664      859.454
09/10/2013  20:24:00     -115.101      146.388      -23.604       61.541       81.968       38.456     3787.274     6718.684     1478.879        2.361        0.599      186.220       46.827        0.063      346.924       25.520      859.465
09/10/2013  20:25:00     -131.852      145.420      -29.332       55.812       58.954       35.738     3114.988     3475.533     1277.187        2.363        0.393      196.295       33.065        0.028      346.955       25.572      859.476
09/10/2013  20:26:00     -111.591      119.793      -27.686       54.599       40.081       36.429     2981.011     1606.464     1327.051        1.674        0.296      163.716       32.633        0.040      346.912       25.499      859.486
09/10/2013  20:27:00     -113.223      122.017      -20.912       60.043       75.999       42.972     3605.189     5775.839     1846.623        1.968        0.561      166.456       43.286        0.068      346.875       25.437      859.512
09/10/2013  20:28:00     -142.949      163.090      -36.476       52.944       53.670       38.577     2803.094     2880.517     1488.191        2.777        0.359      216.870       37.310        0.030      346.950       25.562      859.519
09/10/2013  20:29:00     -139.723      157.771      -29.299       62.596       66.793       42.571     3918.290     4461.362     1812.288        2.773        0.510      210.746       37.366        0.031      346.898       25.474      859.538
09/10/2013  20:30:00     -158.239      152.318      -43.576       55.590       50.759       36.250     3090.290     2576.510     1314.039        2.856        0.349      219.637       27.501        0.016      346.888       25.456      859.550
09/10/2013  20:31:00     -152.646      148.518      -33.590       72.190       65.486       38.171     5211.336     4288.432     1457.035        2.872        0.548      212.975       44.886        0.044      346.815       25.330      859.566
09/10/2013  20:32:00     -132.542      134.650      -32.797       49.868       58.595       38.025     2486.847     3433.430     1445.888        2.207        0.368      188.939       23.601        0.016      346.828       25.354      859.588
09/10/2013  20:33:00     -118.710      155.701      -33.778       49.016       69.820       29.508     2402.594     4874.855      870.745        2.381        0.407      195.792       28.462        0.021      346.782       25.275      859.595
09/10/2013  20:34:00     -110.306       93.111      -17.535       77.250       41.753       33.452     5967.636     1743.352     1119.013        1.499        0.442      144.351       29.553        0.042      346.742       25.207      859.606
09/10/2013  20:35:00     -115.170      131.658      -24.657       59.195       64.023       38.730     3504.044     4098.997     1499.983        2.015        0.455      174.923       39.551        0.051      346.667       25.076      859.609
09/10/2013  20:36:00      -92.871      108.541      -14.825       43.783       54.059       35.869     1916.946     2922.343     1286.617        1.337        0.306      142.850       32.599        0.052      346.675       25.092      859.626
09/10/2013  20:37:00     -136.883      119.472      -20.829       65.859       53.047       39.528     4337.346     2813.984     1562.469        2.108        0.436      181.688       30.973        0.029      346.701       25.137      859.637
09/10/2013  20:38:00     -100.225      127.688      -19.705       55.005       69.703       27.561     3025.601     4858.458      759.615        1.769        0.432      162.324       27.641        0.029      346.679       25.100      859.634
09/10/2013  20:39:00     -179.655      187.576      -42.837       54.840       66.622       35.273     3007.449     4438.538     1244.158        3.899        0.435      259.732       33.953        0.017      346.814       25.329      859.646
09/10/2013  20:40:00     -131.075      126.208      -17.561       48.590       66.868       34.696     2360.982     4471.297     1203.800        2.073        0.402      181.959       28.136        0.024      346.696       25.128      859.639
09/10/2013  20:41:00     -156.440      119.316      -30.160       54.074       71.316       35.733     2924.042     5085.918     1276.871        2.445        0.464      196.748       40.803        0.043      346.716       25.162      859.643
09/10/2013  20:42:00     -126.918      162.836      -26.609       48.400       58.690       39.118     2342.574     3444.506     1530.188        2.532        0.366      206.455       33.432        0.026      346.825       25.349      859.656
09/10/2013  20:43:00     -171.434      158.141      -32.268       89.388       63.491       42.369     7990.201     4031.081     1795.148        3.463        0.691      233.234       49.174        0.044      346.819       25.338      859.657
09/10/2013  20:44:00     -199.040      197.834      -51.134       63.340       76.739       40.012     4011.982     5888.933     1600.997        4.643        0.575      280.634       39.995        0.020      346.876       25.435      859.667
09/10/2013  20:45:00     -144.819      135.270      -27.690       56.074       71.896       42.638     3144.238     5168.969     1817.986        2.508        0.507      198.168       42.940        0.047      346.794       25.296      859.661
09/10/2013  20:46:00     -170.403      185.218      -43.696       53.431       58.571       39.854     2854.862     3430.504     1588.320        3.656        0.394      251.681       31.835        0.016      346.837       25.367      859.660
09/10/2013  20:47:00     -155.535      131.094      -28.260       69.356       71.843       42.585     4810.247     5161.376     1813.509        2.698        0.589      203.413       42.067        0.043      346.800       25.305      859.662
09/10/2013  20:48:00     -167.499      161.282      -32.142       89.010       78.572       51.427     7922.850     6173.590     2644.783        3.592        0.837      232.524       54.530        0.055      346.811       25.326      859.664
09/10/2013  20:49:00     -128.061      180.196      -28.553       55.363       79.196       41.909     3065.108     6271.945     1756.390        3.039        0.555      221.066       35.862        0.026      346.783       25.275      859.663
09/10/2013  20:50:00     -172.842      178.966      -40.788       56.787       76.181       40.916     3224.799     5803.590     1674.115        3.713        0.535      248.803       36.488        0.022      346.819       25.335      859.659
09/10/2013  20:51:00     -167.097      137.438      -44.989       78.185       56.486       45.575     6112.918     3190.648     2077.037        3.011        0.569      216.357       43.777        0.041      346.829       25.353      859.651
09/10/2013  20:52:00     -192.805      152.171      -44.743       59.537       83.693       44.893     3544.647     7004.523     2015.347        3.745        0.628      245.621       45.143        0.034      346.847       25.385      859.666
09/10/2013  20:53:00     -180.970      126.864      -30.918       64.685       75.281       37.404     4184.087     5667.222     1399.077        3.052        0.563      221.008       39.121        0.031      346.834       25.365      859.665
09/10/2013  20:54:00     -161.295      152.387      -34.556       50.341       62.144       34.737     2534.250     3861.858     1206.644        2.902        0.380      221.896       25.956        0.014      346.791       25.291      859.668
09/10/2013  20:55:00     -132.520      119.491      -12.299       63.203       64.134       43.899     3994.655     4113.184     1927.112        2.101        0.502      178.437       42.282        0.056      346.757       25.233      859.696
09/10/2013  20:56:00     -144.196      163.475      -30.547       65.918       68.330       38.227     4345.134     4668.992     1461.277        2.946        0.524      217.982       36.496        0.028      346.723       25.173      859.693
09/10/2013  20:57:00     -118.188      134.492      -24.594       36.107       62.131       29.924     1303.717     3860.218      895.431        1.936        0.303      179.043       24.764        0.019      346.683       25.106      859.694
09/10/2013  20:58:00     -121.958       57.745      -17.428       46.983       51.922       23.971     2207.415     2695.945      574.625        1.199        0.274      134.938       14.445        0.011      346.685       25.111      859.706
09/10/2013  20:59:00     -135.604       55.968      -10.512       59.628       37.763       35.260     3555.528     1426.014     1243.237        1.393        0.311      146.700       28.679        0.038      346.673       25.090      859.701
09/10/2013  21:00:00     -149.657      101.739      -28.502       53.757       60.971       40.005     2889.859     3717.475     1600.414        2.088        0.410      180.964       35.230        0.038      346.692       25.121      859.709
09/10/2013  21:01:00     -108.200       87.015      -17.159       45.127       52.888       34.792     2036.484     2797.091     1210.451        1.281        0.302      138.848       27.918        0.040      346.624       25.005      859.713
09/10/2013  21:02:00     -102.295       52.400      -15.501       40.579       53.621       26.472     1646.691     2875.170      700.786        0.934        0.261      114.935       10.161        0.008      346.597       24.959      859.709
09/10/2013  21:03:00     -113.293       46.571      -11.362       48.200       61.856       29.968     2323.288     3826.164      898.096        1.109        0.352      122.491       17.506        0.020      346.581       24.929      859.726
09/10/2013  21:04:00      -94.584       85.916      -22.814       43.905       80.905       39.349     1927.636     6545.602     1548.366        1.343        0.501      127.780       35.174        0.076      346.593       24.952      859.732
09/10/2013  21:05:00     -106.292       47.191      -15.504       49.460       59.149       26.212     2446.340     3498.552      687.058        1.020        0.332      116.297       28.620        0.061      346.559       24.894      859.728
09/10/2013  21:06:00      -91.653       61.280      -15.858       33.155       39.787       25.356     1099.231     1582.980      642.905        0.787        0.166      110.252       14.805        0.018      346.504       24.799      859.738
09/10/2013  21:07:00     -101.628       51.661      -18.848       52.858       25.514       25.154     2793.962      650.989      632.709        0.871        0.204      114.005       21.919        0.037      346.539       24.861      859.749
09/10/2013  21:08:00     -118.304       86.477      -14.173       54.169       76.119       35.481     2934.288     5794.034     1258.886        1.583        0.499      146.540       36.576        0.062      346.558       24.891      859.747
09/10/2013  21:09:00     -120.573       95.876      -18.909       35.438       64.403       26.373     1255.870     4147.808      695.545        1.509        0.305      154.046       17.902        0.014      346.541       24.862      859.755
09/10/2013  21:10:00     -101.449       65.170      -19.367       44.190       66.036       25.795     1952.743     4360.766      665.377        1.095        0.349      120.578       23.422        0.038      346.547       24.874      859.758
09/10/2013  21:11:00     -140.222       71.566      -19.008       87.570       54.862       45.133     7668.485     3009.805     2036.985        1.893        0.636      157.429       51.164        0.106      346.567       24.906      859.755
09/10/2013  21:12:00     -135.251      -10.953      -10.053       72.017       43.376       35.025     5186.489     1881.449     1226.764        1.340        0.415      135.693       41.351        0.093      346.554       24.882      859.749
09/10/2013  21:13:00     -102.241      -10.073       -2.426       45.975       36.693       25.561     2113.696     1346.380      653.349        0.734        0.206      102.736       26.344        0.066      346.447       24.701      859.762
09/10/2013  21:14:00     -113.655       52.530      -27.114       40.389       49.735       26.241     1631.266     2473.527      688.568        1.060        0.240      125.208       14.520        0.013      346.534       24.850      859.771
09/10/2013  21:15:00     -101.875       26.563      -16.210       26.865       26.795       18.424      721.706      717.974      339.437        0.656        0.089      105.281        6.082        0.003      346.482       24.761      859.774
09/10/2013  21:16:00      -71.884       52.826       -2.665       44.152       52.064       28.233     1949.404     2710.658      797.084        0.671        0.273       89.207       24.596        0.076      346.380       24.586      859.769
09/10/2013  21:17:00      -71.976      -17.043       -5.782       27.442       24.790       15.932      753.042      614.521      253.824        0.356        0.081       73.967        7.867        0.011      346.396       24.612      859.790
09/10/2013  21:18:00      -80.459        8.024       -7.110       39.396       28.397       20.679     1552.046      806.368      427.608        0.469        0.139       80.858       23.518        0.085      346.379       24.583      859.795
09/10/2013  21:19:00      -71.886       -9.626       -4.278       22.735       37.661       13.526      516.870     1418.382      182.947        0.370        0.106       72.528        5.956        0.007      346.319       24.480      859.798
09/10/2013  21:20:00      -62.082      -24.489        4.538       35.564       23.459       19.778     1264.772      550.341      391.171        0.334        0.110       66.738       16.971        0.065      346.208       24.291      859.796
09/10/2013  21:21:00      -36.335      -11.060        9.306       44.947       37.450       25.173     2020.271     1402.497      633.696        0.279        0.203       37.981       24.575        0.419      345.620       23.280      859.811
09/10/2013  21:22:00       -9.025        5.418       18.116       33.442       32.558       23.911     1118.353     1060.048      571.724        0.159        0.138       10.527       18.284        3.017      345.326       22.779      859.820
09/10/2013  21:23:00      -50.131      -26.355       11.090       58.838       43.083       32.468     3461.865     1856.148     1054.148        0.485        0.319       56.636       30.325        0.287      345.668       23.363      859.825
09/10/2013  21:24:00      -64.056      -67.577        1.327       62.805       59.157       35.080     3944.411     3499.514     1230.600        0.867        0.434       93.112       43.181        0.215      345.775       23.546      859.824
09/10/2013  21:25:00     -102.831      -92.267        5.169       77.568       65.946       41.430     6016.871     4348.929     1716.455        1.560        0.604      138.158       46.558        0.114      345.666       23.358      859.838
09/10/2013  21:26:00     -208.899     -116.785       -4.114       55.576       37.287       29.020     3088.690     1390.331      842.138        3.131        0.266      239.327       27.752        0.013      345.808       23.599      859.848
09/10/2013  21:27:00     -160.506     -100.383        0.445       59.979       51.963       30.394     3597.517     2700.180      923.784        2.153        0.361      189.312       26.430        0.019      345.814       23.612      859.844
09/10/2013  21:28:00     -163.241     -116.966        1.329       76.296       60.444       44.010     5821.021     3653.442     1936.872        2.587        0.571      200.820       46.917        0.055      345.941       23.829      859.843
09/10/2013  21:29:00     -119.700      -91.761        4.821       84.793       60.272       40.154     7189.905     3632.688     1612.340        1.760        0.622      150.824       40.769        0.073      345.910       23.777      859.854
09/10/2013  21:30:00     -165.254     -119.593       -8.265       55.129       36.084       32.423     3039.208     1302.086     1051.281        2.354        0.270      203.989       29.620        0.021      345.970       23.880      859.861
09/10/2013  21:31:00     -133.626      -96.311        2.708       66.817       49.648       32.959     4464.533     2464.895     1086.274        1.758        0.401      164.717       24.783        0.023      345.937       23.825      859.868
09/10/2013  21:32:00     -176.856     -129.751       -4.856       46.437       53.536       29.838     2156.395     2866.086      890.326        2.702        0.296      219.347       28.341        0.017      346.091       24.085      859.876
09/10/2013  21:33:00     -138.749     -166.240       -6.183       71.397       55.756       43.787     5097.577     3108.778     1917.267        2.852        0.506      216.534       39.623        0.033      346.190       24.256      859.873
09/10/2013  21:34:00     -180.823     -133.833        4.172       67.232       53.512       38.719     4520.147     2863.556     1499.186        2.975        0.444      224.963       37.293        0.027      346.132       24.154      859.875
09/10/2013  21:35:00     -105.454     -104.179        6.868       66.704       64.080       40.341     4449.426     4106.255     1627.420        1.610        0.509      148.236       42.690        0.083      346.067       24.047      859.882
09/10/2013  21:36:00     -109.042      -76.142        6.854       70.000       40.419       28.878     4899.966     1633.727      833.963        1.255        0.368      132.995       28.058        0.045      346.000       23.932      859.894
09/10/2013  21:37:00     -118.213     -105.723        4.045       78.392       49.973       41.404     6145.352     2497.291     1714.290        1.776        0.518      158.593       33.256        0.044      345.985       23.905      859.891
09/10/2013  21:38:00     -132.544     -103.289        1.428       77.069       68.731       42.415     5939.624     4723.995     1798.992        2.035        0.623      168.037       41.968        0.062      345.953       23.849      859.888
09/10/2013  21:39:00     -100.889      -88.466       -0.623       66.954       60.022       38.707     4482.782     3602.692     1498.245        1.379        0.479      134.182       38.458        0.082      345.963       23.869      859.891
09/10/2013  21:40:00     -114.849      -77.453        8.470       66.468       57.672       38.175     4417.951     3326.078     1457.355        1.423        0.460      138.526       35.806        0.067      345.965       23.873      859.896
09/10/2013  21:41:00     -143.074      -94.747        7.789       76.609       59.372       40.040     5868.940     3525.079     1603.209        2.025        0.550      171.602       36.097        0.044      345.920       23.793      859.899
09/10/2013  21:42:00     -104.190      -98.371        9.972       78.434       47.865       34.442     6151.862     2291.044     1186.251        1.513        0.481      143.291       36.844        0.066      345.995       23.924      859.894
09/10/2013  21:43:00     -112.336      -53.642       -3.420       74.490       42.588       27.231     5548.701     1813.704      741.550        1.180        0.405      124.486       33.932        0.074      345.919       23.794      859.905
09/10/2013  21:44:00     -130.266      -47.125       -3.105       41.342       40.915       22.870     1709.151     1674.021      523.059        1.155        0.195      138.528       19.292        0.019      345.988       23.911      859.912
09/10/2013  21:45:00      -92.474      -38.316       11.849       87.456       53.073       27.044     7648.610     2816.794      731.400        1.068        0.560      100.098       41.551        0.172      345.731       23.472      859.908
09/10/2013  21:46:00     -111.616      -43.799        6.020       43.424       45.345       20.720     1885.607     2056.154      429.305        0.939        0.219      119.902       21.394        0.032      345.806       23.600      859.910
09/10/2013  21:47:00      -25.314      -32.375       21.014       48.285       47.380       22.331     2331.489     2244.860      498.677        0.360        0.254       41.097       33.238        0.654      345.294       22.723      859.916
09/10/2013  21:48:00      -31.468      -34.314        4.794       38.574       35.639       22.062     1487.966     1270.144      486.725        0.272        0.162       46.558       22.055        0.224      345.593       23.235      859.922
09/10/2013  21:49:00       -3.806      -24.308       19.973       28.639       21.482       18.570      820.195      461.481      344.828        0.132        0.081       24.604       18.108        0.542      345.731       23.472      859.921
09/10/2013  21:50:00       -4.436      -20.830       19.156       56.641       25.670       23.268     3208.252      658.928      541.404        0.261        0.220       21.297       26.043        1.495      345.501       23.077      859.931
09/10/2013  21:51:00      -87.353      -26.099        1.547       27.513       31.019       16.412      756.967      962.175      269.349        0.515        0.099       91.169       20.549        0.051      345.796       23.584      859.931
09/10/2013  21:52:00        8.799      -24.962       10.560       48.612       23.040       16.050     2363.164      530.853      257.596        0.198        0.158       26.467       12.943        0.239      344.725       21.749      859.929
09/10/2013  21:53:00       37.966      -12.036        4.725       34.278       25.525       18.843     1174.996      651.530      355.049        0.189        0.109       39.829       17.222        0.187      344.363       21.129      859.933
09/10/2013  21:54:00        6.052       -2.065       15.381       22.623       23.057       17.300      511.791      531.620      299.283        0.081        0.067        6.395       12.491        3.815      344.381       21.159      859.942
09/10/2013  21:55:00       -1.119       -1.441        2.949       10.198       15.628       12.395      103.993      244.240      153.635        0.026        0.025        1.825        9.944       29.698      344.466       21.305      859.937
09/10/2013  21:56:00       25.469       -5.135       18.188       35.855       23.477       24.966     1285.568      551.158      623.304        0.173        0.123       25.981       11.673        0.202      344.309       21.035      859.937
09/10/2013  21:57:00        2.319       13.661       35.578       21.423       15.545       13.993      458.927      241.645      195.818        0.118        0.045       13.856        8.875        0.410      344.358       21.120      859.942
09/10/2013  21:58:00       32.474        1.336       27.260       36.621       32.051       21.442     1341.087     1027.270      459.756        0.231        0.141       32.502       20.720        0.406      344.435       21.252      859.937
09/10/2013  21:59:00        1.526       13.305        9.455       18.504       16.066       15.577      342.405      258.123      242.658        0.056        0.042       13.392        9.714        0.526      344.581       21.502      859.932
09/10/2013  22:00:00      -15.226        3.645       -2.564       15.134        7.365       10.057      229.047       54.237      101.135        0.032        0.019       15.657        9.538        0.371      344.918       22.079      859.945
09/10/2013  22:01:00      -21.018        6.395       10.641       15.712       17.521       14.561      246.860      306.997      212.034        0.068        0.038       21.969       11.661        0.282      344.607       21.545      859.954
09/10/2013  22:02:00      -32.064        0.446        2.585       11.314       16.222        9.765      128.009      263.162       95.349        0.076        0.024       32.067        9.765        0.093      344.965       22.159      859.952
09/10/2013  22:03:00      -16.068       14.153       19.675       12.133       17.603       13.274      147.221      309.852      176.206        0.074        0.032       21.412       11.502        0.289      344.346       21.100      859.970
09/10/2013  22:04:00      -17.903       12.738        4.061       15.193       15.915        8.777      230.833      253.292       77.032        0.053        0.028       21.972        5.340        0.059      344.785       21.851      859.982
09/10/2013  22:05:00      -42.813      -15.479       -3.317       13.391       17.386        7.506      179.324      302.282       56.336        0.131        0.027       45.525        6.582        0.021      345.104       22.397      859.983
09/10/2013  22:06:00      -42.521      -33.525       -4.576       17.828        7.416        7.925      317.823       54.990       62.808        0.169        0.022       54.148        5.003        0.009      345.156       22.485      859.995
09/10/2013  22:07:00      -61.041      -26.336       -6.705       10.777        8.618        8.082      116.139       74.274       65.323        0.236        0.013       66.480        7.283        0.012      345.342       22.805      859.989
09/10/2013  22:08:00      -48.926      -35.381        1.019       23.040        9.686        9.962      530.820       93.824       99.249        0.219        0.036       60.378        8.781        0.021      345.292       22.719      859.997
09/10/2013  22:09:00      -33.246      -40.833        8.502       29.082       21.349       14.843      845.743      455.759      220.327        0.218        0.076       52.656       10.607        0.041      345.305       22.741      860.000
09/10/2013  22:10:00      -51.706      -35.589        3.675       23.697       26.505       12.794      561.540      702.536      163.693        0.269        0.071       62.770       11.384        0.033      345.464       23.014      860.007
09/10/2013  22:11:00      -46.681       29.336       -0.871       35.053       43.230       16.420     1228.731     1868.874      269.613        0.320        0.168       55.133       16.154        0.086      345.113       22.412      860.026
09/10/2013  22:12:00      -42.619       48.372       -4.599       20.562       17.071       11.902      422.781      291.424      141.652        0.252        0.043       64.469        8.487        0.017      344.982       22.186      860.036
09/10/2013  22:13:00      -37.319       21.801       -1.157       22.152       17.557       14.355      490.694      308.260      206.067        0.144        0.050       43.220       12.055        0.078      345.187       22.540      860.043
09/10/2013  22:14:00      -59.519       28.362        1.037       36.031       14.487       13.115     1298.266      209.862      171.998        0.301        0.084       65.931       10.306        0.024      345.387       22.881      860.051
09/10/2013  22:15:00      -31.550       13.209        7.787       17.459       17.792       10.756      304.801      316.548      115.698        0.098        0.037       34.203        7.961        0.054      344.906       22.057      860.044
09/10/2013  22:16:00      -47.461       14.923        8.690       13.685       13.705        8.951      187.273      187.836       80.124        0.150        0.023       49.751        7.662        0.024      345.151       22.477      860.056
09/10/2013  22:17:00      -27.293       12.302        3.061       21.717        9.787        8.020      471.648       95.785       64.321        0.077        0.032       29.937        4.263        0.020      344.944       22.121      860.069
09/10/2013  22:18:00      -38.392       14.798        1.784       11.440       13.901        8.390      130.874      193.251       70.398        0.105        0.020       41.145        6.493        0.025      344.791       21.860      860.083
09/10/2013  22:19:00      -26.581        1.401        3.500       16.131       11.750       10.361      260.213      138.051      107.359        0.061        0.025       26.617        8.733        0.108      344.796       21.869      860.095
09/10/2013  22:20:00      -47.484        7.517        0.988       21.801       19.646       14.790      475.270      385.962      218.736        0.170        0.054       48.075       12.780        0.071      345.104       22.395      860.093
09/10/2013  22:21:00      -59.274      -19.027       -0.744       13.080       16.222       11.566      171.081      263.149      133.776        0.222        0.028       62.253        7.677        0.015      345.131       22.442      860.098
09/10/2013  22:22:00      -49.646      -23.212       -2.669       14.329       19.660        9.889      205.313      386.509       97.792        0.185        0.034       54.805        8.137        0.022      344.906       22.057      860.098
09/10/2013  22:23:00      -51.082      -18.302        3.775       15.916       20.261       10.415      253.321      410.504      108.478        0.187        0.039       54.262        8.848        0.027      344.692       21.690      860.102
09/10/2013  22:24:00      -68.873      -17.683       -2.932       19.465       17.323       11.075      378.905      300.079      122.656        0.293        0.040       71.107       10.266        0.021      344.715       21.730      860.109
09/10/2013  22:25:00      -65.869      -30.654        4.758       13.105       15.839        9.899      171.751      250.865       97.982        0.291        0.026       72.653        6.564        0.008      344.687       21.682      860.102
09/10/2013  22:26:00      -29.242       -8.980        9.577       23.442       22.339       13.869      549.538      499.034      192.344        0.113        0.062       30.589       12.873        0.177      344.306       21.031      860.116
09/10/2013  22:27:00      -38.618        0.463        5.400       22.544       21.548       14.455      508.225      464.330      208.950        0.135        0.059       38.621       11.215        0.084      344.467       21.307      860.113
09/10/2013  22:28:00      -36.975        2.834       -3.225       18.780       30.638       12.992      352.674      938.706      168.781        0.142        0.073       37.083       12.952        0.122      344.414       21.215      860.123
09/10/2013  22:29:00      -49.388       10.599       -7.288       13.028       17.832        9.944      169.731      317.998       98.888        0.160        0.029       50.512        8.449        0.028      344.489       21.344      860.140
09/10/2013  22:30:00      -36.925       -3.369       -5.142       14.325       14.648        8.297      205.197      214.559       68.846        0.094        0.024       37.078        3.941        0.011      344.563       21.469      860.135
09/10/2013  22:31:00      -27.610       -6.085       -2.528       14.755       14.834       10.900      217.709      220.044      118.801        0.068        0.028       28.273        8.339        0.087      344.459       21.293      860.143
09/10/2013  22:32:00      -20.267       -6.311       -5.518       14.395       10.363       11.333      207.205      107.391      128.432        0.046        0.022       21.227        9.114        0.184      344.477       21.325      860.152
09/10/2013  22:33:00      -52.385      -12.786      -13.466       15.096       11.063        7.387      227.885      122.387       54.561        0.175        0.020       53.923        3.371        0.004      344.506       21.374      860.153
09/10/2013  22:34:00      -91.416      -23.289      -13.759       12.933       12.438        8.491      167.254      154.714       72.089        0.474        0.020       94.336        3.898        0.002      344.482       21.333      860.164
09/10/2013  22:35:00      -96.382      -51.358      -14.975        9.889       18.124       10.023       97.787      328.494      100.457        0.634        0.026      109.211       10.518        0.009      344.407       21.203      860.164
09/10/2013  22:36:00      -96.942      -43.093      -10.861       10.566       13.533       11.195      111.644      183.140      125.326        0.590        0.021      106.088        5.341        0.003      344.438       21.257      860.165
09/10/2013  22:37:00     -103.560      -31.146       -8.265       12.212       10.074        7.469      149.140      101.482       55.785        0.603        0.015      108.142        2.164        0.000      344.541       21.433      860.172
09/10/2013  22:38:00      -94.444       -9.939       -9.758       11.009       12.433       11.818      121.194      154.581      139.677        0.476        0.021       94.965        6.763        0.005      344.438       21.256      860.172
09/10/2013  22:39:00      -75.149       -2.928       -5.936       22.979       18.562       13.603      528.026      344.561      185.031        0.337        0.053       75.206       11.072        0.022      344.437       21.255      860.193
09/10/2013  22:40:00      -72.116       -9.655       -1.777       20.046       13.254       13.719      401.862      175.667      188.220        0.303        0.038       72.759       12.952        0.032      344.428       21.239      860.188
09/10/2013  22:41:00      -71.891       -9.076       -4.913       10.295        9.490        7.379      105.979       90.067       54.448        0.276        0.013       72.461        4.470        0.004      344.454       21.285      860.184
09/10/2013  22:42:00      -67.147       -6.211       -9.315       12.324        8.905        6.519      151.878       79.294       42.494        0.245        0.014       67.434        4.023        0.004      344.402       21.195      860.180
09/10/2013  22:43:00      -76.713      -21.000       -9.164       16.012       10.217        8.041      256.397      104.382       64.665        0.342        0.021       79.535        5.562        0.005      344.332       21.075      860.173
09/10/2013  22:44:00     -101.791      -34.299      -10.602       14.305       22.168       10.214      204.623      491.422      104.331        0.623        0.040      107.414        4.992        0.002      344.302       21.023      860.172
09/10/2013  22:45:00     -116.647      -16.571       -7.492       33.824       19.030       19.283     1144.085      362.152      371.828        0.791        0.094      117.818       19.265        0.027      344.246       20.928      860.170
09/10/2013  22:46:00     -119.965      -24.916       -6.917       23.382       17.646       14.576      546.727      311.373      212.463        0.807        0.054      122.525       12.256        0.010      344.146       20.758      860.164
09/10/2013  22:47:00     -119.412      -43.068       -6.301       17.824       22.774       11.795      317.703      518.663      139.121        0.856        0.049      126.941        7.414        0.003      344.157       20.777      860.167
09/10/2013  22:48:00     -142.796      -42.756       -5.046       26.807       27.559       16.164      718.625      759.519      261.289        1.199        0.087      149.060       13.800        0.009      344.137       20.743      860.169
09/10/2013  22:49:00     -134.011      -35.060       -6.606       18.694       18.354       16.824      349.477      336.859      283.038        1.010        0.048      138.521       11.233        0.007      344.066       20.620      860.162
09/10/2013  22:50:00     -131.493      -25.173      -10.043       17.372       27.556       14.661      301.770      759.331      214.942        0.965        0.064      133.881       10.448        0.006      344.059       20.610      860.169
09/10/2013  22:51:00      -90.317       -8.468       -6.941       31.143       22.129       18.151      969.871      489.685      329.455        0.503        0.089       90.714       13.373        0.022      343.998       20.504      860.177
09/10/2013  22:52:00     -101.742        8.413       -8.046       43.739       32.168       22.607     1913.109     1034.754      511.061        0.697        0.173      102.089       19.021        0.035      343.905       20.344      860.182
09/10/2013  22:53:00     -102.325       19.961      -18.284       52.061       37.017       25.925     2710.363     1370.224      672.111        0.798        0.238      104.253       22.421        0.046      343.980       20.474      860.194
09/10/2013  22:54:00      -66.310       18.022        2.833       56.046       37.712       33.893     3141.193     1422.157     1148.709        0.522        0.286       68.715       29.686        0.187      343.855       20.261      860.192
09/10/2013  22:55:00      -33.279       13.952       13.646       27.205       28.128       28.234      740.136      791.183      797.157        0.191        0.116       36.085       25.203        0.488      343.731       20.049      860.204
09/10/2013  22:56:00      -22.144      -11.102        5.194       25.524       16.799       11.239      651.492      282.192      126.315        0.085        0.053       24.771        9.994        0.163      343.444       19.560      860.212
09/10/2013  22:57:00      -62.392      -30.914      -14.352       38.526       21.666       18.804     1484.218      469.405      353.573        0.368        0.115       69.631       14.710        0.045      343.800       20.167      860.205
09/10/2013  22:58:00     -104.001      -49.185      -10.814       32.917       22.164       16.660     1083.508      491.256      277.543        0.760        0.093      115.045        6.832        0.004      343.759       20.097      860.215
09/10/2013  22:59:00     -127.568      -71.256      -11.038       19.980       16.000       15.872      399.198      255.994      251.914        1.119        0.045      146.120        6.572        0.002      343.774       20.121      860.216
09/10/2013  23:00:00     -100.699      -60.169       -7.547       42.900       22.702       20.534     1840.437      515.402      421.648        0.830        0.139      117.305       12.640        0.012      343.831       20.222      860.213
09/10/2013  23:01:00     -113.923      -38.747       -1.054       41.847       31.967       17.535     1751.155     1021.917      307.473        0.878        0.154      120.332       19.071        0.025      343.803       20.173      860.222
09/10/2013  23:02:00      -97.525      -25.218        2.383       35.465       29.341       15.924     1257.773      860.914      253.569        0.626        0.119      100.733       13.687        0.018      343.769       20.114      860.218
09/10/2013  23:03:00     -114.206      -27.834       -0.606       38.962       29.664       21.727     1518.020      879.947      472.056        0.834        0.144      117.549       23.650        0.040      343.706       20.006      860.225
09/10/2013  23:04:00     -107.622      -19.391       -5.333       42.675       35.199       17.354     1821.159     1238.990      301.153        0.767        0.168      109.355       15.389        0.020      343.663       19.933      860.225
09/10/2013  23:05:00      -87.664       15.378        1.637       48.182       40.522       27.025     2321.519     1642.036      730.345        0.631        0.235       89.003       27.095        0.093      343.667       19.939      860.222
09/10/2013  23:06:00     -123.968      -13.655       -6.616       43.631       40.117       22.571     1903.699     1609.386      509.459        0.981        0.201      124.717       17.090        0.019      343.878       20.300      860.231
09/10/2013  23:07:00      -82.513       -5.425        0.388       38.975       41.411       21.943     1519.015     1714.860      481.501        0.528        0.186       82.691       18.520        0.050      343.614       19.849      860.233
09/10/2013  23:08:00      -86.485      -10.366        2.774       24.013       31.533       15.985      576.620      994.299      255.520        0.471        0.091       87.104       12.632        0.021      343.646       19.904      860.236
09/10/2013  23:09:00      -58.167        6.624        0.174       32.225       28.541       19.085     1038.431      814.567      364.248        0.282        0.111       58.543       14.782        0.064      343.622       19.863      860.243
09/10/2013  23:10:00      -88.271       -1.477       -0.321       31.886       33.491       21.756     1016.706     1121.671      473.313        0.520        0.131       88.284       17.970        0.041      343.708       20.009      860.242
09/10/2013  23:11:00     -168.407       17.056      -16.395       37.489       24.585       15.915     1405.412      604.435      253.283        1.559        0.113      169.269       12.143        0.005      343.857       20.262      860.251
09/10/2013  23:12:00     -148.808        3.269       -8.172       28.451       38.570       24.717      809.463     1487.682      610.950        1.256        0.145      148.844       20.291        0.019      343.825       20.210      860.254
09/10/2013  23:13:00     -146.304      -17.790      -12.776       49.854       37.662       22.583     2485.444     1418.403      509.973        1.315        0.221      147.382       20.320        0.019      343.832       20.222      860.249
09/10/2013  23:14:00     -123.931      -32.831        0.068       40.815       36.232       18.394     1665.828     1312.764      338.326        0.988        0.166      128.206       12.827        0.010      343.769       20.115      860.252
09/10/2013  23:15:00     -159.621      -18.394      -10.776       58.987       37.734       29.955     3479.496     1423.889      897.282        1.587        0.290      160.677       28.272        0.031      343.807       20.179      860.241
09/10/2013  23:16:00      -96.203       -8.760       -1.116       63.891       54.909       27.828     4082.080     3015.018      774.410        0.860        0.394       96.601       27.759        0.083      343.750       20.081      860.243
09/10/2013  23:17:00     -120.318       -9.466       -9.986       46.102       58.767       26.769     2125.401     3453.583      716.587        1.048        0.315      120.690       24.612        0.042      343.887       20.315      860.243
09/10/2013  23:18:00      -91.124       -5.329       -2.225       36.118       37.722       26.772     1304.491     1422.921      716.755        0.589        0.172       91.280       21.924        0.058      343.708       20.008      860.227
09/10/2013  23:19:00      -99.892      -21.840       -5.016       38.750       54.404       21.665     1501.573     2959.776      469.357        0.770        0.247      102.252       17.354        0.029      343.777       20.127      860.231
09/10/2013  23:20:00     -106.585      -14.217       -0.537       48.134       48.401       24.538     2316.874     2342.680      602.117        0.841        0.263      107.529       18.911        0.031      343.714       20.019      860.245
09/10/2013  23:21:00     -123.153      -44.946       -0.774       32.339       45.124       25.808     1045.808     2036.191      666.041        1.047        0.187      131.098       17.915        0.019      343.750       20.080      860.247
09/10/2013  23:22:00     -144.936      -55.721       -3.586       31.394       28.944       18.951      985.602      837.729      359.123        1.315        0.109      155.278       16.726        0.012      343.742       20.068      860.254
09/10/2013  23:23:00     -122.638      -53.884       -0.697       44.174       35.656       24.695     1951.372     1271.321      609.855        1.089        0.192      133.954       13.437        0.010      343.698       19.993      860.252
09/10/2013  23:24:00      -78.501      -16.120       -8.624       38.478       35.524       17.798     1480.571     1261.936      316.771        0.478        0.153       80.139       16.033        0.040      343.658       19.926      860.268
09/10/2013  23:25:00      -66.866      -14.996        0.791       33.562       17.492       17.199     1126.420      305.966      295.797        0.321        0.086       68.527       19.490        0.081      343.608       19.839      860.264
09/10/2013  23:26:00      -87.450      -10.477       -4.802       32.222       27.515       16.488     1038.271      757.051      271.838        0.492        0.103       88.075       11.894        0.018      343.710       20.014      860.258
09/10/2013  23:27:00      -76.760      -20.595       -2.072       28.270       25.032       17.030      799.179      626.612      290.022        0.402        0.086       79.475       16.472        0.043      343.749       20.079      860.266
09/10/2013  23:28:00      -54.089       -4.744        1.024       30.702       25.788       17.582      942.629      665.045      309.123        0.243        0.096       54.297       16.906        0.097      343.579       19.790      860.266
09/10/2013  23:29:00     -114.771       16.161       -9.317       38.316       29.495       18.491     1468.079      869.967      341.911        0.810        0.134      115.903       15.785        0.019      343.791       20.152      860.271
09/10/2013  23:30:00     -130.077       -7.576      -14.245       28.815       23.355       16.418      830.294      545.449      269.567        0.941        0.082      130.297       11.185        0.007      343.824       20.207      860.279
09/10/2013  23:31:00     -106.156      -18.874       -2.098       40.873       36.036       17.877     1670.567     1298.558      319.578        0.746        0.164      107.820       18.555        0.030      343.725       20.039      860.282
09/10/2013  23:32:00      -84.357      -24.537       -6.088       20.907       19.676       15.133      437.085      387.163      228.993        0.440        0.053       87.853        9.109        0.011      343.801       20.168      860.298
09/10/2013  23:33:00      -92.178      -28.436       -7.520       28.980       17.557       12.905      839.829      308.243      166.549        0.534        0.066       96.464        6.800        0.005      343.824       20.208      860.296
09/10/2013  23:34:00      -72.708      -34.356       -5.133       29.765       19.008       11.144      885.965      361.300      124.185        0.393        0.069       80.416       12.124        0.023      343.849       20.250      860.303
09/10/2013  23:35:00      -69.996      -38.662       -5.264       24.834       21.482       12.304      616.741      461.487      151.397        0.383        0.061       79.964       13.816        0.030      343.838       20.232      860.314
09/10/2013  23:36:00      -40.278      -28.051        6.455       41.625       22.202       16.862     1732.616      492.946      284.318        0.248        0.125       49.084       18.618        0.144      343.783       20.138      860.315
09/10/2013  23:37:00      -54.131      -46.231        1.784       36.227       23.868       16.665     1312.386      569.685      277.712        0.361        0.108       71.186       18.677        0.069      343.734       20.055      860.327
09/10/2013  23:38:00      -56.582      -49.692        4.445       34.882       27.581       18.547     1216.766      760.698      343.990        0.401        0.116       75.305       16.823        0.050      343.672       19.949      860.324
09/10/2013  23:39:00      -59.995      -44.043        3.219       28.789       21.784       17.158      828.833      474.558      294.386        0.357        0.080       74.426       17.106        0.053      343.698       19.993      860.331
09/10/2013  23:40:00      -30.247      -44.870        6.080       36.805       24.434       17.271     1354.603      597.012      298.276        0.261        0.112       54.113       17.194        0.101      343.614       19.850      860.343
09/10/2013  23:41:00      -37.509      -43.407        5.890       27.554       24.547       17.027      759.198      602.537      289.917        0.249        0.083       57.368       14.908        0.068      343.588       19.804      860.342
09/10/2013  23:42:00      -33.183      -36.192        5.528       40.505       24.305       21.120     1640.647      590.710      446.043        0.256        0.134       49.102       23.241        0.224      343.591       19.808      860.346
09/10/2013  23:43:00      -39.228      -32.338        8.563       35.049       23.256       23.061     1228.414      540.863      531.814        0.248        0.115       50.839       21.517        0.179      343.595       19.817      860.361
09/10/2013  23:44:00      -60.571      -75.173       -1.425       36.716       33.690       19.303     1348.065     1135.014      372.622        0.609        0.143       96.539       11.716        0.015      343.588       19.805      860.362
09/10/2013  23:45:00      -28.407      -46.187        7.272       29.331       29.588       18.838      860.288      875.471      354.871        0.254        0.105       54.224       16.758        0.096      343.600       19.827      860.353
09/10/2013  23:46:00      -59.240     -101.267       -1.011       31.710       36.035       17.261     1005.510     1298.491      297.949        0.818        0.130      117.322       20.021        0.029      343.635       19.884      860.354
09/10/2013  23:47:00      -67.465      -94.499      -17.890       34.630       36.770       17.450     1199.231     1352.016      304.504        0.833        0.143      116.110       10.527        0.008      343.704       20.000      860.363
09/10/2013  23:48:00      -72.735      -52.981        2.146       46.927       35.421       25.172     2202.101     1254.654      633.638        0.610        0.205       89.985       20.006        0.049      343.584       19.799      860.368
09/10/2013  23:49:00     -112.583     -107.112      -17.138       36.744       34.419       24.429     1350.096     1184.661      596.773        1.379        0.157      155.396       12.110        0.006      343.568       19.771      860.367
09/10/2013  23:50:00      -92.457      -82.283        1.840       45.781       31.925       24.258     2095.862     1019.174      588.469        0.951        0.185      123.769       22.517        0.033      343.490       19.638      860.363
09/10/2013  23:51:00     -100.200      -71.935       -4.635       27.700       28.162       20.638      767.275      793.118      425.911        0.861        0.099      123.348       14.119        0.013      343.446       19.563      860.369
09/10/2013  23:52:00      -95.923      -75.923        4.701       48.266       39.606       22.222     2329.598     1568.637      493.838        0.969        0.220      122.333       25.629        0.044      343.400       19.483      860.377
09/10/2013  23:53:00     -118.055      -68.237       -2.055       52.572       35.539       25.522     2763.801     1263.028      651.396        1.164        0.234      136.357       21.077        0.024      343.448       19.566      860.372
09/10/2013  23:54:00      -93.704      -76.682        2.832       60.407       41.607       28.530     3649.018     1731.103      813.947        1.043        0.310      121.081       31.224        0.066      343.427       19.530      860.372
09/10/2013  23:55:00      -88.001      -78.107        4.769       44.821       39.448       22.795     2008.910     1556.108      519.593        0.898        0.204      117.664       21.338        0.033      343.426       19.529      860.380
09/10/2013  23:56:00     -111.636      -68.425       -0.467       47.504       31.433       28.724     2256.593      988.032      825.092        1.061        0.203      130.938       18.466        0.020      343.485       19.629      860.392
09/10/2013  23:57:00     -142.696      -65.459       -2.734       46.123       24.303       21.660     2127.326      590.616      469.159        1.392        0.159      156.994       20.811        0.018      343.511       19.674      860.393
09/10/2013  23:58:00     -123.838      -81.960       -6.541       36.595       29.518       19.709     1339.187      871.326      388.434        1.235        0.130      148.503       19.254        0.017      343.515       19.681      860.390
09/10/2013  23:59:00     -138.514      -63.369       -7.878       29.339       28.610       21.590      860.802      818.504      466.116        1.270        0.107      152.321       14.695        0.009      343.512       19.675      860.377
